[[{"header":{"parameterUnit":"m.s-1","parameterCategory":1,"la1":31.0,"la2":29.5877,"lo1":-88.7671,"lo2":-86.6584,"dy":0.0162,"dx":0.0185,"nx":115,"ny":88,"refTime":"2023-03-18T12:00:00:Z","depth":0,"parameterNumber":2,"parameterNumberName":"U-component_of_WINDS"},"data":[0.0,0.0,0.0,0.0,0.0,0.0,0.0,0.0,0.0,0.0,0.0,0.0,0.0,0.0,0.0,0.0,0.0,0.0,0.0,0.0,0.0,0.0,0.0,0.0,0.0,0.0,0.0,0.0,0.0,0.0,0.0,0.0,0.0,0.0,0.0,0.0,0.0,0.0,0.0,0.0,0.0,0.0,0.0,0.0,0.0,0.0,0.0,0.0,0.0,0.0,0.0,0.0,0.0,0.0,0.0,0.0,0.0,0.0,0.0,0.0,0.0,0.0,0.0,0.0,0.0,0.0,0.0,0.0,0.0,0.0,0.0,0.0,0.0,0.0,0.0,0.0,0.0,0.0,0.0,0.0,0.0,0.0,0.0,0.0,0.0,0.0,0.0,0.0,0.0,0.0,0.0,0.0,0.0,0.0,0.0,0.0,0.0,0.0,0.0,0.0,0.0,0.0,0.0,0.0,0.0,0.0,0.0,0.0,0.0,0.0,0.0,0.0,0.0,0.0,0.0,0.0,0.0,0.0,0.0,0.0,0.0,0.0,0.0,0.0,0.0,0.0,0.0,0.0,0.0,0.0,0.0,0.0,0.0,0.0,0.0,0.0,0.0,0.0,0.0,0.0,0.0,0.0,0.0,0.0,0.0,0.0,0.0,0.0,0.0,0.0,0.0,0.0,0.0,0.0,0.0,0.0,0.0,0.0,0.0,0.0,0.0,0.0,0.0,0.0,0.0,0.0,0.0,0.0,0.0,0.0,0.0,0.0,0.0,0.0,0.0,0.0,0.0,0.0,0.0,0.0,0.0,0.0,0.0,0.0,0.0,0.0,0.0,0.0,0.0,0.0,0.0,0.0,0.0,0.0,0.0,0.0,0.0,0.0,0.0,0.0,0.0,0.0,0.0,0.0,0.0,0.0,0.0,0.0,0.0,0.0,0.0,0.0,0.0,0.0,0.0,0.0,0.0,0.0,0.0,0.0,0.0,0.0,0.0,0.0,0.0,0.0,0.0,0.0,0.0,0.0,0.0,0.0,0.0,0.0,0.0,0.0,0.0,0.0,0.0,0.0,0.0,0.0,0.0,0.0,0.0,0.0,0.0,0.0,0.0,0.0,0.0,0.0,0.0,0.0,0.0,0.0,0.0,0.0,0.0,0.0,0.0,0.0,0.0,0.0,0.0,0.0,0.0,0.0,0.0,0.0,0.0,0.0,0.0,0.0,0.0,0.0,0.0,0.0,0.0,0.0,0.0,0.0,0.0,0.0,0.0,0.0,0.0,0.0,0.0,0.0,0.0,0.0,0.0,0.0,0.0,0.0,0.0,0.0,0.0,0.0,0.0,0.0,0.0,0.0,0.0,0.0,0.0,0.0,0.0,0.0,0.0,0.0,0.0,0.0,0.0,0.0,0.0,0.0,0.0,0.0,0.0,0.0,0.0,0.0,0.0,0.0,0.0,0.0,0.0,0.0,0.0,0.0,0.0,0.0,0.0,0.0,0.0,0.0,0.0,0.0,0.0,0.0,0.0,0.0,0.0,0.0,0.0,0.0,0.0,0.0,0.0,0.0,0.0,0.0,0.0,0.0,0.0,0.0,0.0,0.0,0.0,0.0,0.0,0.0,0.0,0.0,0.0,0.0,0.0,0.0,0.0,0.0,0.0,0.0,0.0,0.0,0.0,0.0,0.0,0.0,0.0,0.0,0.0,0.0,0.0,0.0,0.0,0.0,0.0,0.0,0.0,0.0,0.0,0.0,0.0,0.0,0.0,0.0,0.0,0.0,0.0,0.0,0.0,0.0,0.0,0.0,0.0,0.0,0.0,0.0,0.0,0.0,0.0,0.0,0.0,0.0,0.0,0.0,0.0,0.0,0.0,0.0,0.0,0.0,0.0,0.0,0.0,0.0,0.0,0.0,0.0,0.0,0.0,0.0,0.0,0.0,0.0,0.0,0.0,0.0,0.0,0.0,0.0,0.0,0.0,0.0,0.0,0.0,0.0,0.0,0.0,0.0,0.0,0.0,0.0,0.0,0.0,0.0,0.0,0.0,0.0,0.0,0.0,0.0,0.0,0.0,0.0,0.0,0.0,0.0,0.0,0.0,0.0,0.0,0.0,0.0,0.0,0.0,0.0,0.0,0.0,0.0,0.0,0.0,0.0,0.0,0.0,0.0,0.0,0.0,0.0,0.0,0.0,0.0,0.0,0.0,0.0,0.0,0.0,0.0,0.0,0.0,0.0,0.0,0.0,0.0,0.0,0.0,0.0,0.0,0.0,0.0,0.0,0.0,0.0,0.0,0.0,0.0,0.0,0.0,0.0,0.0,0.0,0.0,0.0,0.0,0.0,0.0,0.0,0.0,0.0,0.0,0.0,0.0,0.0,0.0,0.0,0.0,0.0,0.0,0.0,0.0,0.0,0.0,0.0,0.0,0.0,0.0,0.0,0.0,0.0,0.0,0.0,0.0,0.0,0.0,0.0,0.0,0.0,0.0,0.0,0.0,0.0,0.0,0.0,0.0,0.0,0.0,0.0,0.0,0.0,0.0,0.0,0.0,0.0,0.0,0.0,0.0,0.0,0.0,0.0,0.0,0.0,0.0,0.0,0.0,0.0,0.0,0.0,0.0,0.0,0.0,0.0,0.0,0.0,0.0,0.0,0.0,0.0,0.0,0.0,0.0,0.0,0.0,0.0,0.0,0.0,0.0,0.0,0.0,0.0,0.0,0.0,0.0,0.0,0.0,0.0,0.0,0.0,0.0,0.0,0.0,0.0,0.0,0.0,0.0,0.0,0.0,0.0,0.0,0.0,0.0,0.0,0.0,0.0,0.0,0.0,0.0,0.0,0.0,0.0,0.0,0.0,0.0,0.0,0.0,0.0,0.0,0.0,0.0,0.0,0.0,0.0,0.0,0.0,0.0,0.0,0.0,0.0,0.0,0.0,0.0,0.0,0.0,0.0,0.0,0.0,0.0,0.0,0.0,0.0,0.0,0.0,0.0,0.0,0.0,0.0,0.0,0.0,0.0,0.0,0.0,0.0,0.0,0.0,0.0,0.0,0.0,0.0,0.0,0.0,0.0,0.0,0.0,0.0,0.0,0.0,0.0,0.0,0.0,0.0,0.0,0.0,0.0,0.0,0.0,0.0,0.0,0.0,0.0,0.0,0.0,0.0,0.0,0.0,0.0,0.0,0.0,0.0,0.0,0.0,0.0,0.0,0.0,0.0,0.0,0.0,0.0,0.0,0.0,0.0,0.0,0.0,0.0,0.0,0.0,0.0,0.0,0.0,0.0,0.0,0.0,0.0,0.0,0.0,0.0,0.0,0.0,0.0,0.0,0.0,0.0,0.0,0.0,0.0,0.0,0.0,0.0,0.0,0.0,0.0,0.0,0.0,0.0,0.0,0.0,0.0,0.0,0.0,0.0,0.0,0.0,0.0,0.0,0.0,0.0,0.0,0.0,0.0,0.0,0.0,0.0,0.0,0.0,0.0,0.0,0.0,0.0,0.0,0.0,0.0,0.0,0.0,0.0,0.0,0.0,0.0,0.0,0.0,0.0,0.0,0.0,0.0,0.0,0.0,0.0,0.0,0.0,0.0,0.0,0.0,0.0,0.0,0.0,0.0,0.0,0.0,0.0,0.0,0.0,0.0,0.0,0.0,0.0,0.0,0.0,0.0,0.0,0.0,0.0,0.0,0.0,0.0,0.0,0.0,0.0,0.0,0.0,0.0,0.0,0.0,0.0,0.0,0.0,0.0,0.0,0.0,0.0,0.0,0.0,0.0,0.0,0.0,0.0,0.0,0.0,0.0,0.0,0.0,0.0,0.0,0.0,0.0,0.0,0.0,0.0,0.0,0.0,0.0,0.0,0.0,0.0,0.0,0.0,0.0,0.0,0.0,0.0,0.0,0.0,0.0,0.0,0.0,0.0,0.0,0.0,0.0,0.0,0.0,0.0,0.0,0.0,0.0,0.0,0.0,0.0,0.0,0.0,0.0,0.0,0.0,0.0,0.0,0.0,0.0,0.0,0.0,0.0,0.0,0.0,0.0,0.0,0.0,0.0,0.0,0.0,0.0,0.0,0.0,0.0,0.0,0.0,0.0,0.0,0.0,0.0,0.0,0.0,0.0,0.0,0.0,0.0,0.0,0.0,0.0,0.0,0.0,0.0,0.0,0.0,0.0,0.0,0.0,0.0,0.0,0.0,0.0,0.0,0.0,0.0,0.0,0.0,0.0,0.0,0.0,0.0,0.0,0.0,0.0,0.0,0.0,0.0,0.0,0.0,0.0,0.0,0.7677,0.0,0.0,0.0,0.0,0.0,0.0,0.0,0.0,0.0,0.0,0.0,0.0,0.0,0.0,0.0,0.0,0.0,0.0,0.0,0.0,0.0,0.0,0.0,0.0,0.0,0.0,0.0,0.0,0.0,0.0,0.0,0.0,0.0,0.0,0.0,0.0,0.0,0.0,0.0,0.0,0.0,0.0,0.0,0.0,0.0,0.0,0.0,0.0,0.0,0.0,0.0,0.0,0.0,0.0,0.0,0.0,0.0,0.0,0.0,0.0,0.0,0.0,0.0,0.0,0.0,0.0,0.0,0.0,0.0,0.0,0.0,0.0,0.0,0.0,0.0,0.0,0.0,0.0,0.0,0.0,0.0,0.0,0.0,0.0,0.0,0.0,0.0,0.0,0.0,0.0,0.0,0.0,0.0,0.0,0.0,0.0,0.0,0.0,0.0,0.0,0.0,0.0,0.0,0.0,0.0,0.0,0.0,0.0,0.0,0.0,0.7691,0.7691,0.7691,0.7691,0.7695,0.0,0.0,0.0,0.0,0.0,0.0,0.0,0.0,0.0,0.0,0.0,0.0,0.0,0.0,0.0,0.0,0.0,0.0,0.0,0.0,0.0,0.0,0.0,0.0,0.0,0.0,0.0,0.0,0.0,0.0,0.0,0.0,0.0,0.0,0.0,0.0,0.0,0.0,0.0,0.0,0.0,0.0,0.0,0.0,0.0,0.0,0.0,0.0,0.0,0.0,0.0,0.0,0.0,0.0,0.0,0.0,0.0,0.0,0.0,0.0,0.0,0.0,0.0,0.0,0.0,0.0,0.0,0.0,0.0,0.0,0.0,0.0,0.0,0.0,0.0,0.0,0.0,0.0,0.0,0.0,0.0,0.0,0.0,0.0,0.0,0.0,0.0,0.0,0.0,0.0,0.0,0.0,0.0,0.0,0.0,0.0,0.0,0.0,0.0,0.0,0.0,0.0,0.0,0.0,0.0,0.0,0.0,0.0,0.0,0.0,0.0,0.0,0.7858,0.7863,0.7965,0.0,0.0,0.0,0.0,0.0,0.0,0.0,0.0,0.0,0.0,0.0,0.0,0.0,0.0,0.0,0.0,0.0,0.0,0.0,0.0,0.0,0.0,0.0,0.0,0.0,0.0,0.0,0.0,0.0,0.0,0.0,0.0,0.0,0.0,0.0,0.0,0.0,0.0,0.0,0.0,0.0,0.0,0.0,0.0,0.0,0.0,0.0,0.0,0.0,0.0,0.0,0.0,0.0,0.0,0.0,0.0,0.0,0.0,0.0,0.0,0.0,0.0,0.0,0.0,0.0,0.0,0.0,0.0,0.0,0.0,0.0,0.0,0.0,0.0,0.0,0.0,0.0,0.0,0.0,0.0,0.0,0.0,0.0,0.0,0.0,0.0,0.0,0.0,0.0,0.0,0.0,0.0,0.0,0.0,0.0,0.0,0.0,0.0,0.0,0.0,0.0,0.0,0.0,0.0,0.0,0.0,0.0,0.0,0.0,0.0,0.7997,0.8587,0.8304,0.0,0.8742,0.0,0.0,0.0,0.0,0.0,0.0,0.0,0.0,0.0,0.0,0.0,0.0,0.0,0.0,0.0,0.0,0.0,0.0,0.0,0.0,0.0,0.0,0.0,0.0,0.0,0.0,0.0,0.0,0.0,0.0,0.0,0.0,0.0,0.0,0.0,0.0,0.0,0.0,0.0,0.0,0.0,0.0,0.0,0.0,0.0,0.0,0.0,0.0,0.0,0.0,0.0,0.0,0.0,0.0,0.0,0.0,0.0,0.0,0.0,0.0,0.0,0.0,0.0,0.0,0.0,0.0,0.0,0.0,0.0,0.0,0.0,0.0,0.0,0.0,0.0,0.0,0.0,0.0,0.0,0.0,0.0,0.0,0.0,0.0,0.0,0.0,0.0,0.0,0.0,0.0,0.0,0.0,0.0,0.0,0.0,0.0,0.0,0.0,0.0,0.0,0.0,0.0,0.0,0.0,0.0,0.0,0.0,0.0,0.0,0.0,0.7931,0.8392,0.8268,0.838,0.0,0.0,0.0,0.0,0.0,0.0,0.0,0.0,0.0,0.0,0.0,0.0,0.0,0.0,0.0,0.0,0.0,0.0,0.0,0.0,0.0,0.0,0.0,0.0,0.0,0.0,0.0,0.0,0.0,0.0,0.0,0.0,0.0,0.0,0.0,0.0,0.0,0.0,0.0,0.0,0.0,0.0,0.0,0.0,0.0,0.0,0.0,0.0,0.0,0.0,0.0,0.0,0.0,0.0,0.0,0.0,0.0,0.0,0.0,0.0,0.0,0.0,0.0,0.0,0.0,0.0,0.0,0.0,0.0,0.0,0.0,0.0,0.0,0.0,0.0,0.0,0.0,0.0,0.0,0.0,0.0,0.0,0.0,0.0,0.0,0.0,0.0,0.0,0.0,0.0,0.0,0.0,0.0,0.0,0.0,0.0,0.0,0.0,0.0,0.0,0.0,0.0,0.0,0.0,0.0,0.0,0.0,0.0,0.0,0.0,0.8117,0.8004,0.8304,0.8235,0.8415,0.8821,0.0,0.0,0.0,0.0,0.0,0.0,0.0,0.0,0.0,0.0,0.0,0.0,0.0,0.0,0.0,0.0,0.0,0.0,0.0,0.0,0.0,0.0,0.0,0.0,0.0,0.0,0.0,0.0,0.0,0.0,0.0,0.0,0.0,0.0,0.0,0.0,0.0,0.0,0.0,0.0,0.0,0.0,0.0,0.0,0.0,0.0,0.0,0.0,0.0,0.0,0.0,0.0,0.0,0.0,0.0,0.0,0.0,0.0,0.0,0.0,0.0,0.0,0.0,0.0,0.0,0.0,0.0,0.0,0.0,0.0,0.0,0.0,0.0,0.0,0.0,0.0,0.0,0.0,0.0,0.0,0.0,0.0,0.0,0.0,0.0,0.0,0.0,0.0,0.0,0.0,0.0,0.0,0.0,0.0,0.0,0.0,0.0,0.0,0.0,0.0,0.0,0.0,0.0,0.0,0.0,0.0,0.0,0.0,0.907,0.851,0.8334,0.8645,0.8363,0.8513,0.0,0.0,0.0,0.0,0.0,0.0,0.0,0.0,0.0,0.0,0.0,0.0,0.0,0.0,0.0,0.0,0.0,0.0,0.0,0.0,0.0,0.0,0.0,0.0,0.0,0.0,0.0,0.0,0.0,0.0,0.0,0.0,0.0,0.0,0.0,0.0,0.0,0.0,0.0,0.0,0.0,0.0,0.0,0.0,0.0,0.0,0.0,0.0,0.0,0.0,0.0,0.0,0.0,0.0,0.0,0.0,0.0,0.0,0.0,0.0,0.0,0.0,0.0,0.0,0.0,0.0,0.0,0.0,0.0,0.0,0.0,0.0,0.0,0.0,0.0,0.0,0.0,0.0,0.0,0.0,0.0,0.0,0.0,0.0,0.0,0.0,0.0,0.0,0.0,0.0,0.0,0.0,0.0,0.0,0.0,0.0,0.0,0.0,0.0,0.0,0.0,0.0,0.0,0.0,0.0,0.0,0.0,0.0,0.0,0.8216,0.822,0.826,0.8374,0.826,0.8521,0.0,0.0,0.0,0.0,0.0,0.0,0.0,0.0,0.0,0.0,0.0,0.0,0.0,0.0,0.0,0.0,0.0,0.0,0.0,0.0,0.0,0.0,0.0,0.0,0.0,0.0,0.0,0.0,0.0,0.0,0.0,0.0,0.0,0.0,0.0,0.0,0.0,0.0,0.0,0.0,0.0,0.0,0.0,0.0,0.0,0.0,0.0,0.0,0.0,0.0,0.0,0.0,0.0,0.0,0.0,0.0,0.0,0.0,0.0,0.0,0.0,0.0,0.0,0.0,0.0,0.0,0.0,0.0,0.0,0.0,0.0,0.0,0.0,0.0,0.0,0.0,0.0,0.0,0.0,0.0,0.0,0.0,0.0,0.0,0.0,0.0,0.0,0.0,0.0,0.0,0.0,0.0,0.0,0.0,0.0,0.0,0.0,0.0,0.0,0.0,0.0,0.0,0.0,0.0,0.0,0.0,0.0,0.0,0.0,0.8023,0.0,0.8484,0.8374,0.8458,0.8677,0.0,0.0,0.0,0.0,0.0,0.0,0.0,0.0,0.0,0.0,0.0,0.0,0.0,0.0,0.0,0.0,0.0,0.0,0.0,0.0,0.0,0.0,0.0,0.0,0.0,0.0,0.0,0.0,0.0,0.0,0.0,0.0,0.0,0.0,0.0,0.0,0.0,0.0,0.0,0.0,0.0,0.0,0.0,0.0,0.0,0.0,0.0,0.0,0.0,0.0,0.0,0.0,0.0,0.0,0.0,0.0,0.0,0.0,0.0,0.0,0.0,0.0,0.0,0.0,0.0,0.0,0.0,0.0,0.0,0.0,0.0,0.0,0.0,0.0,0.0,0.0,0.0,0.0,0.0,0.0,0.0,0.0,0.0,0.0,0.0,0.0,0.0,0.0,0.0,0.0,0.0,0.0,0.0,0.0,0.0,0.0,0.0,0.0,0.0,0.0,0.0,0.0,0.0,0.0,0.0,0.0,0.0,0.0,0.8034,0.8645,0.8975,0.8985,0.8721,0.8989,0.9026,0.0,0.0,0.0,0.0,0.0,0.0,0.0,0.0,0.0,0.0,0.0,0.0,0.0,0.0,0.0,0.0,0.0,0.0,0.0,0.0,0.0,0.0,0.0,0.0,0.0,0.0,0.0,0.0,0.0,0.0,0.0,0.0,0.0,0.0,0.0,0.0,0.0,0.0,0.0,0.0,0.0,0.0,0.0,0.0,0.0,0.0,0.0,0.0,0.0,0.0,0.0,0.0,0.0,0.0,0.0,0.0,0.0,0.0,0.0,0.0,0.0,0.0,0.0,0.0,0.0,0.0,0.0,0.0,0.0,0.0,0.0,0.0,0.0,0.0,0.0,0.0,0.0,0.0,0.0,0.0,0.0,0.0,0.0,0.0,0.0,0.0,0.0,0.0,0.0,0.0,0.0,0.0,0.0,0.0,0.0,0.0,0.0,0.0,0.0,0.0,0.0,0.0,0.0,0.0,0.0,0.0,0.0,0.0,0.0,0.8034,0.856,0.8951,0.9107,0.8953,0.9097,0.0,0.0,0.0,0.0,0.0,0.0,0.0,0.0,0.0,0.0,0.0,0.0,0.0,0.0,0.0,0.0,0.0,0.0,0.0,0.0,0.0,0.0,0.0,0.0,0.0,0.0,0.0,0.0,0.0,0.0,0.0,0.0,0.0,0.0,0.0,0.0,0.0,0.0,0.0,0.0,0.0,0.0,0.0,0.0,0.0,0.0,0.0,0.0,0.0,0.0,0.0,0.0,0.0,0.0,0.0,0.0,0.0,0.0,0.0,0.0,0.0,0.0,0.0,0.0,0.0,0.0,0.0,0.0,0.0,0.0,0.0,0.0,0.0,0.0,0.0,0.0,0.0,0.0,0.0,0.0,0.0,0.0,0.0,0.0,0.0,0.0,0.0,0.0,0.0,0.0,0.0,0.0,0.0,0.0,0.0,0.0,0.0,0.0,0.0,0.0,0.0,0.0,0.0,0.0,0.0,0.0,0.0,0.0,0.0,0.8816,0.9077,0.9345,0.9612,0.936,0.9378,0.9732,0.0,0.0,0.0,0.0,0.0,0.0,0.0,0.0,0.0,0.0,0.0,0.0,0.0,0.0,0.0,0.0,0.0,0.0,0.0,0.0,0.0,0.0,0.0,0.0,0.0,0.0,0.0,0.0,0.0,0.0,0.0,0.0,0.0,0.0,0.0,0.0,0.0,0.0,0.0,0.0,0.0,0.0,0.0,0.0,0.0,0.0,0.0,0.0,0.0,0.0,0.0,0.0,0.0,0.0,0.0,0.0,0.0,0.0,0.0,0.0,0.0,0.0,0.0,0.0,0.0,0.0,0.0,0.0,0.0,0.0,0.0,0.0,0.0,0.0,0.0,0.0,0.0,0.0,0.0,0.0,0.0,0.0,0.0,0.0,0.0,0.0,0.0,0.0,0.0,0.0,0.0,0.0,0.0,0.0,0.0,0.0,0.0,0.0,0.0,0.0,0.0,0.0,0.0,0.0,0.0,0.0,0.0,0.0,1.0646,1.0426,1.0287,1.0244,1.0178,0.9891,0.0,0.0,0.0,0.0,0.0,0.0,0.0,0.0,0.0,0.0,0.0,0.0,0.0,0.0,0.0,0.0,0.0,0.0,0.0,0.0,0.0,0.0,0.0,0.0,0.0,0.0,0.0,0.0,0.0,0.0,0.0,0.0,0.0,0.0,0.0,0.0,0.0,0.0,0.0,0.0,0.0,0.0,0.0,0.0,0.0,0.0,0.0,0.0,0.0,0.0,0.0,0.0,0.0,0.0,0.0,0.0,0.0,0.0,0.0,0.0,0.0,0.0,0.0,0.0,0.0,0.0,0.0,0.0,0.0,0.0,0.0,0.0,0.0,0.0,0.0,0.0,0.0,0.0,0.0,0.0,0.0,0.0,0.0,0.0,0.0,0.0,0.0,0.0,0.0,0.0,0.0,0.0,0.0,0.0,0.0,0.0,0.0,0.0,0.0,0.0,0.0,0.0,0.0,0.0,0.0,0.0,0.0,0.0,0.0,1.1271,1.2144,1.2313,1.168,1.1119,1.0661,0.0,0.0,0.0,0.0,0.0,0.0,0.0,0.0,0.0,0.0,0.0,0.0,0.0,0.0,0.0,0.0,0.0,0.0,0.0,0.0,0.0,0.0,0.0,0.0,0.0,0.0,0.0,0.0,0.0,0.0,0.0,0.0,0.0,0.0,0.0,0.0,0.0,0.0,0.0,0.0,0.0,0.0,0.0,0.0,0.0,0.0,0.0,0.0,0.0,0.0,0.0,0.0,0.0,0.0,0.0,0.0,0.0,0.0,0.0,0.0,0.0,0.0,0.0,0.0,0.0,0.0,0.0,0.0,0.0,0.0,0.0,0.0,0.0,0.0,0.0,0.0,0.0,0.0,0.0,0.0,0.0,0.0,0.0,0.0,0.0,0.0,0.0,0.0,0.0,0.0,0.0,0.0,0.0,0.0,0.0,0.0,0.0,0.0,0.0,0.0,0.0,0.0,0.0,0.0,0.0,0.0,0.0,0.0,1.1562,1.227,1.3497,1.3874,1.3264,1.2641,1.1765,0.0,0.0,0.0,0.0,0.0,0.0,0.0,0.0,0.0,0.0,0.0,0.0,0.0,0.0,0.0,0.0,0.0,0.0,0.0,0.0,0.0,0.0,0.0,0.0,0.0,0.0,0.0,0.0,0.0,0.0,0.0,0.0,0.0,0.0,0.0,0.0,0.0,0.0,0.0,0.0,0.0,0.0,0.0,0.0,0.0,0.0,0.0,0.0,0.0,0.0,0.0,0.0,0.0,0.0,0.0,0.0,0.0,0.0,0.0,0.0,0.0,0.0,0.0,0.0,0.0,0.0,0.0,0.0,0.0,0.0,0.0,0.0,0.0,0.0,0.0,0.0,0.0,0.0,0.0,0.0,0.0,0.0,0.0,0.0,0.0,0.0,0.0,0.0,0.0,0.0,0.0,0.0,0.0,0.0,0.0,0.0,0.0,0.0,0.0,0.0,0.0,0.0,0.0,0.0,0.0,0.0,0.0,0.0,1.2494,1.3295,1.4552,1.5054,1.4754,1.4193,1.2879,0.0,0.0,0.0,0.0,0.0,0.0,0.0,0.0,0.0,0.0,0.0,0.0,0.0,0.0,0.0,0.0,0.0,0.0,0.0,0.0,0.0,0.0,0.0,0.0,0.0,0.0,0.0,0.0,0.0,0.0,0.0,0.0,0.0,0.0,0.0,0.0,0.0,0.0,0.0,0.0,0.0,0.0,0.0,0.0,0.0,0.0,0.0,0.0,0.0,0.0,0.0,0.0,0.0,0.0,0.0,0.0,0.0,0.0,0.0,0.0,0.0,0.0,0.0,0.0,0.0,0.0,0.0,0.0,0.0,0.0,0.0,0.0,0.0,0.0,0.0,0.0,0.0,0.0,0.0,0.0,0.0,0.0,0.0,0.0,0.0,0.0,0.0,0.0,0.0,0.0,0.0,0.0,0.0,0.0,0.0,0.0,0.0,0.0,0.0,0.0,0.0,0.0,0.0,0.0,0.0,0.0,0.0,0.0,1.2624,1.3244,1.4973,1.562,1.5094,1.3807,1.2501,0.0,0.0,0.0,0.0,0.0,0.0,0.0,0.0,0.0,0.0,0.0,0.0,0.0,0.0,0.0,0.0,0.0,0.0,0.0,0.0,0.0,0.0,0.0,0.0,0.0,0.0,0.0,0.0,0.0,0.0,0.0,0.0,0.0,0.0,0.0,0.0,0.0,0.0,0.0,0.0,0.0,0.0,0.0,0.0,0.0,0.0,0.0,0.0,1.5233,0.0,0.0,0.0,0.0,0.0,0.0,0.0,0.0,0.0,0.0,0.0,0.0,0.0,0.0,0.0,0.0,0.0,0.0,0.0,0.0,0.0,0.0,0.0,0.0,0.0,0.0,0.0,0.0,0.0,0.0,0.0,0.0,0.0,0.0,0.0,0.0,0.0,0.0,0.0,0.0,0.0,0.0,0.0,0.0,0.0,0.0,0.0,0.0,0.0,0.0,0.0,0.0,0.0,0.0,0.0,0.0,0.0,0.0,0.0,1.2985,1.3641,1.5162,1.5752,1.5282,1.396,1.2797,0.0,0.0,0.0,0.0,0.0,0.0,0.0,0.0,0.0,0.0,0.0,0.0,0.0,0.0,0.0,0.0,0.0,0.0,0.0,0.0,0.0,0.0,0.0,0.0,0.0,0.0,0.0,0.0,0.0,0.0,0.0,0.0,0.0,0.0,0.0,0.0,0.0,0.0,0.0,0.0,0.0,0.0,0.0,0.0,0.0,0.0,0.0,0.0,0.0,0.0,0.0,0.0,0.0,0.0,0.0,0.0,0.0,0.0,0.0,0.0,0.0,0.0,0.0,0.0,0.0,0.0,0.0,0.0,0.0,0.0,0.0,0.0,0.0,0.0,0.0,0.0,0.0,0.0,0.0,0.0,0.0,0.0,0.0,0.0,0.0,0.0,0.0,0.0,0.0,0.0,0.0,0.0,0.0,0.0,0.0,0.0,0.0,0.0,0.0,0.0,0.0,0.0,0.0,0.0,0.0,0.0,0.0,1.2326,1.3331,1.423,1.5271,1.5668,1.5391,1.4349,1.3438,1.2727,0.0,0.0,0.0,0.0,0.0,0.0,0.0,0.0,0.0,0.0,0.0,0.0,0.0,0.0,0.0,0.0,0.0,0.0,0.0,0.0,0.0,0.0,0.0,0.0,0.0,0.0,0.0,0.0,0.0,0.0,0.0,0.0,0.0,0.0,0.0,0.0,0.0,0.0,1.4295,1.4406,0.0,0.0,0.0,0.0,0.0,0.0,0.0,0.0,1.5608,0.0,0.0,0.0,0.0,0.0,0.0,0.0,0.0,0.0,0.0,0.0,0.0,0.0,0.0,0.0,0.0,0.0,0.0,0.0,0.0,0.0,0.0,0.0,0.0,0.0,0.0,0.0,0.0,0.0,0.0,0.0,0.0,0.0,0.0,0.0,0.0,0.0,0.0,0.0,0.0,0.0,0.0,0.0,0.0,0.0,0.0,0.0,0.0,0.0,0.0,0.0,0.0,0.0,0.0,0.0,0.0,1.2054,1.2406,1.3318,1.4821,1.5455,1.5668,1.5398,1.4891,1.4159,1.3205,0.0,0.0,0.0,0.0,0.0,0.0,0.0,0.0,0.0,0.0,0.0,0.0,0.0,0.0,0.0,0.0,0.0,0.0,0.0,0.0,0.0,0.0,0.0,0.0,0.0,0.0,0.0,0.0,0.0,0.0,0.0,0.0,0.0,0.0,0.0,0.0,0.0,0.0,0.0,1.4893,1.5589,0.0,0.0,0.0,0.0,0.0,0.0,0.0,0.0,1.5737,0.0,0.0,0.0,0.0,0.0,0.0,0.0,0.0,0.0,0.0,0.0,0.0,0.0,0.0,0.0,0.0,0.0,0.0,0.0,0.0,0.0,0.0,0.0,0.0,0.0,0.0,0.0,0.0,0.0,0.0,0.0,0.0,0.0,0.0,0.0,0.0,0.0,0.0,0.0,0.0,0.0,0.0,0.0,0.0,0.0,0.0,0.0,0.0,0.0,0.0,0.0,0.0,0.0,0.0,0.0,1.223,1.2814,1.3783,1.516,1.5581,1.5735,1.5581,1.4682,1.3981,0.0,0.0,0.0,0.0,0.0,0.0,0.0,0.0,0.0,0.0,0.0,0.0,0.0,0.0,0.0,0.0,0.0,0.0,0.0,0.0,0.0,0.0,0.0,0.0,0.0,0.0,0.0,0.0,0.0,0.0,0.0,0.0,0.0,0.0,0.0,0.0,0.0,0.0,0.0,0.0,1.5173,1.5676,1.5948,0.0,0.0,0.0,0.0,0.0,0.0,1.538,1.5884,0.0,0.0,0.0,0.0,0.0,0.0,0.0,0.0,0.0,0.0,0.0,0.0,0.0,0.0,0.0,0.0,0.0,0.0,0.0,0.0,0.0,0.0,0.0,0.0,0.0,0.0,0.0,0.0,0.0,0.0,0.0,0.0,0.0,0.0,0.0,0.0,0.0,0.0,0.0,0.0,0.0,0.0,0.0,0.0,0.0,0.0,0.0,0.0,0.0,0.0,0.0,0.0,0.0,0.0,0.0,1.2404,1.3183,1.4188,1.5424,1.5712,1.5781,1.5701,1.4474,1.3696,0.0,0.0,0.0,0.0,0.0,0.0,0.0,0.0,0.0,0.0,0.0,0.0,0.0,0.0,0.0,0.0,0.0,0.0,0.0,0.0,0.0,0.0,0.0,0.0,0.0,0.0,0.0,0.0,0.0,0.0,0.0,0.0,0.0,0.0,0.0,0.0,0.0,0.0,0.0,0.0,0.0,1.5933,1.5707,1.6263,0.0,0.0,0.0,0.0,1.4842,1.5822,0.0,0.0,0.0,0.0,0.0,0.0,0.0,0.0,0.0,0.0,0.0,0.0,0.0,0.0,0.0,0.0,0.0,0.0,0.0,0.0,0.0,0.0,0.0,0.0,0.0,0.0,0.0,0.0,0.0,0.0,0.0,0.0,0.0,0.0,0.0,0.0,0.0,0.0,0.0,0.0,0.0,0.0,0.0,0.0,0.0,0.0,0.0,0.0,0.0,0.0,0.0,0.0,0.0,0.0,0.0,0.0,1.2863,1.3268,1.418,1.5655,1.5781,1.5681,1.5444,1.4754,1.3977,0.0,0.0,0.0,0.0,0.0,0.0,0.0,0.0,0.0,0.0,0.0,0.0,0.0,0.0,0.0,0.0,0.0,0.0,0.0,0.0,0.0,0.0,0.0,0.0,0.0,0.0,0.0,0.0,0.0,0.0,0.0,0.0,0.0,0.0,0.0,0.0,0.0,0.0,0.0,0.0,0.0,1.7178,1.661,1.7426,1.7799,0.0,0.0,1.7889,1.6656,1.7815,0.0,0.0,0.0,0.0,0.0,0.0,0.0,0.0,0.0,0.0,0.0,0.0,0.0,0.0,0.0,0.0,0.0,0.0,0.0,0.0,0.0,0.0,0.0,0.0,0.0,0.0,0.0,0.0,0.0,0.0,0.0,0.0,0.0,0.0,0.0,0.0,0.0,0.0,0.0,0.0,0.0,0.0,0.0,0.0,0.0,0.0,0.0,0.0,0.0,0.0,0.0,0.0,0.0,0.0,0.0,1.154,1.2954,1.352,1.4445,1.5741,1.5801,1.5741,1.5615,1.4414,1.3736,0.0,0.0,0.0,0.0,0.0,0.0,0.0,0.0,0.0,0.0,0.0,0.0,0.0,0.0,0.0,0.0,0.0,0.0,0.0,0.0,0.0,0.0,0.0,0.0,0.0,0.0,0.0,0.0,0.0,0.0,0.0,0.0,0.0,0.0,0.0,0.0,0.0,0.0,0.0,0.0,0.0,0.0,1.6552,1.7504,0.0,0.0,0.0,1.8193,1.8181,0.0,0.0,0.0,0.0,0.0,0.0,0.0,0.0,0.0,0.0,0.0,0.0,0.0,0.0,0.0,0.0,0.0,0.0,0.0,0.0,0.0,0.0,0.0,0.0,0.0,0.0,0.0,0.0,0.0,0.0,0.0,0.0,0.0,0.0,0.0,0.0,0.0,0.0,0.0,0.0,0.0,0.0,0.0,0.0,0.0,0.0,0.0,0.0,0.0,0.0,0.0,0.0,0.0,0.0,0.0,0.0,0.0,1.3013,1.3742,1.4649,1.5755,1.5801,1.5801,1.5775,1.4241,0.0,0.0,0.0,0.0,0.0,0.0,0.0,0.0,0.0,0.0,0.0,0.0,0.0,0.0,0.0,0.0,0.0,0.0,0.0,0.0,0.0,0.0,0.0,0.0,0.0,0.0,0.0,1.5435,0.0,0.0,0.0,0.0,0.0,0.0,0.0,0.0,0.0,0.0,0.0,0.0,0.0,0.0,1.7764,1.671,1.7797,1.8454,0.0,0.0,1.8676,1.9013,1.888,1.8629,0.0,0.0,0.0,0.0,0.0,0.0,0.0,0.0,0.0,0.0,0.0,0.0,0.0,0.0,0.0,0.0,0.0,0.0,0.0,0.0,0.0,0.0,0.0,0.0,0.0,0.0,0.0,0.0,0.0,0.0,0.0,0.0,0.0,0.0,0.0,0.0,0.0,0.0,0.0,0.0,0.0,0.0,0.0,0.0,0.0,0.0,0.0,0.0,0.0,0.0,0.0,0.0,0.0,0.0,0.0,1.314,1.3802,1.4649,1.5755,1.5801,1.5801,1.5781,1.4656,1.4005,0.0,0.0,0.0,0.0,0.0,0.0,0.0,0.0,0.0,0.0,0.0,0.0,0.0,0.0,0.0,0.0,0.0,0.0,0.0,0.0,0.0,0.0,0.0,0.0,0.0,0.0,0.0,0.0,0.0,0.0,0.0,0.0,0.0,0.0,0.0,0.0,0.0,0.0,0.0,0.0,0.0,1.8735,1.7731,1.8864,1.9624,0.0,0.0,1.9752,1.8883,2.0255,2.063,1.8248,0.0,0.0,0.0,0.0,0.0,0.0,0.0,0.0,0.0,0.0,0.0,0.0,0.0,0.0,0.0,0.0,0.0,0.0,0.0,0.0,0.0,0.0,0.0,0.0,0.0,0.0,0.0,0.0,0.0,0.0,0.0,0.0,0.0,0.0,0.0,0.0,0.0,0.0,0.0,0.0,0.0,0.0,0.0,0.0,0.0,0.0,0.0,0.0,0.0,0.0,0.0,0.0,0.0,1.1951,1.3186,1.3808,1.4649,1.5748,1.5801,1.5801,1.5801,1.4494,1.3931,0.0,0.0,0.0,0.0,0.0,0.0,0.0,0.0,0.0,0.0,0.0,0.0,0.0,0.0,0.0,0.0,0.0,0.0,0.0,0.0,0.0,0.0,0.0,0.0,0.0,0.0,0.0,0.0,1.4916,1.5159,1.5295,0.0,0.0,0.0,0.0,0.0,0.0,0.0,0.0,0.0,0.0,1.8926,1.8564,1.9619,0.0,0.0,2.0548,2.0944,2.0906,2.094,2.0622,1.9611,1.9012,0.0,0.0,0.0,0.0,0.0,0.0,0.0,0.0,0.0,0.0,0.0,0.0,0.0,0.0,0.0,0.0,0.0,0.0,0.0,0.0,0.0,0.0,0.0,0.0,0.0,0.0,0.0,0.0,0.0,0.0,0.0,0.0,0.0,0.0,0.0,0.0,0.0,0.0,0.0,0.0,0.0,0.0,0.0,0.0,0.0,0.0,0.0,0.0,0.0,0.0,0.0,0.0,1.2213,1.3307,1.3921,1.4743,1.5781,1.5801,1.5801,1.5768,1.4554,1.4052,0.0,0.0,0.0,0.0,0.0,0.0,0.0,0.0,0.0,0.0,0.0,0.0,0.0,0.0,0.0,0.0,0.0,0.0,0.0,0.0,0.0,0.0,0.0,0.0,0.0,0.0,0.0,0.0,1.5138,1.5457,1.5423,0.0,0.0,0.0,0.0,0.0,0.0,0.0,0.0,0.0,0.0,1.9205,1.9258,2.0201,2.0841,2.0695,2.0927,2.1275,2.1704,2.105,2.0402,2.0014,0.0,0.0,0.0,0.0,0.0,0.0,0.0,0.0,0.0,0.0,0.0,0.0,0.0,0.0,0.0,0.0,0.0,0.0,0.0,0.0,0.0,0.0,0.0,0.0,0.0,0.0,0.0,0.0,0.0,0.0,0.0,0.0,0.0,0.0,0.0,0.0,0.0,0.0,0.0,0.0,0.0,0.0,0.0,0.0,0.0,0.0,0.0,0.0,0.0,0.0,0.0,0.0,0.0,1.27,1.36,1.4181,1.4908,1.5775,1.5801,1.5801,1.5781,1.4941,1.4455,1.4391,0.0,0.0,0.0,0.0,0.0,0.0,0.0,0.0,0.0,0.0,0.0,0.0,0.0,0.0,0.0,0.0,0.0,0.0,0.0,0.0,0.0,0.0,0.0,0.0,0.0,0.0,1.4253,1.4785,1.523,0.0,0.0,0.0,0.0,0.0,0.0,0.0,0.0,0.0,0.0,1.8692,1.9637,1.9802,2.0543,2.0994,2.1025,2.0723,2.0515,2.0519,2.0506,2.0097,0.0,0.0,0.0,0.0,0.0,0.0,0.0,0.0,0.0,0.0,0.0,0.0,0.0,0.0,0.0,0.0,0.0,0.0,0.0,0.0,0.0,0.0,0.0,0.0,0.0,0.0,0.0,1.2753,1.274,0.0,0.0,0.0,0.0,0.0,0.0,0.0,0.0,0.0,0.0,0.0,1.2476,1.259,0.0,0.0,0.0,0.0,0.0,0.0,0.0,0.0,0.0,0.0,0.0,0.0,1.2746,1.358,1.4201,1.4921,1.5768,1.5801,1.5801,1.5778,1.5164,1.4445,1.3608,0.0,0.0,0.0,0.0,0.0,0.0,0.0,0.0,0.0,0.0,0.0,0.0,0.0,0.0,0.0,0.0,0.0,0.0,0.0,0.0,0.0,0.0,0.0,0.0,0.0,1.5954,0.0,0.0,0.0,0.0,0.0,0.0,0.0,0.0,0.0,0.0,0.0,1.6383,1.6319,1.7097,1.7852,1.8371,1.8903,1.9326,0.0,0.0,0.0,0.0,0.0,0.0,0.0,0.0,0.0,0.0,0.0,0.0,0.0,0.0,1.9976,1.8374,1.81,1.81,1.81,0.0,0.0,0.0,0.0,0.0,0.0,0.0,0.0,0.0,0.0,0.0,0.0,0.0,0.0,0.0,0.0,1.2561,0.0,0.0,0.0,0.0,0.0,0.0,0.0,0.0,1.2179,1.2709,1.3085,1.3252,1.3413,0.0,1.3533,1.3115,0.0,0.0,0.0,0.0,0.0,0.0,0.0,0.0,1.3087,1.3767,1.4454,1.5157,1.5768,1.5801,1.5801,1.5788,1.5164,1.4402,1.354,1.366,1.3638,0.0,0.0,0.0,0.0,0.0,0.0,0.0,0.0,0.0,0.0,0.0,0.0,0.0,0.0,0.0,0.0,0.0,0.0,0.0,0.0,0.0,0.0,0.0,1.6459,0.0,0.0,0.0,0.0,0.0,0.0,0.0,0.0,0.0,1.5704,1.5961,1.6171,1.619,1.6608,1.7148,1.7797,0.0,0.0,0.0,0.0,0.0,0.0,0.0,1.8378,1.7767,1.8137,1.8387,1.8201,1.8917,1.9772,2.0447,0.0,0.0,1.9013,1.8807,1.8698,1.8308,1.8458,1.8674,1.8754,1.9116,1.9453,0.0,0.0,0.0,0.0,0.0,0.0,0.0,0.0,1.3116,1.3762,0.0,1.3397,0.0,0.0,0.0,0.0,0.0,0.0,0.0,0.0,1.3077,1.3413,1.3653,1.372,1.3867,1.4155,1.4387,1.4214,1.364,1.3243,0.0,0.0,0.0,0.0,0.0,0.0,1.378,1.4136,1.4943,1.5531,1.5788,1.5801,1.5801,1.5788,1.4981,1.4416,1.413,1.4155,1.4182,1.4194,1.5135,0.0,0.0,0.0,0.0,0.0,0.0,0.0,0.0,0.0,0.0,0.0,0.0,0.0,0.0,0.0,0.0,0.0,0.0,0.0,0.0,1.6332,0.0,0.0,0.0,0.0,0.0,0.0,0.0,0.0,0.0,0.0,1.6054,1.6077,1.6291,1.6902,0.0,0.0,0.0,0.0,1.8167,1.8109,1.8323,1.8363,1.8126,1.8352,1.8306,1.765,0.0,0.0,1.8512,1.852,1.8613,1.8605,1.8752,1.8889,1.9862,1.9909,1.9626,1.8716,1.8548,1.8636,1.8871,1.8925,1.8934,1.3223,0.0,0.0,0.0,0.0,1.2836,1.32,1.3589,1.3675,1.3681,1.3626,1.3075,0.0,0.0,0.0,0.0,0.0,0.0,1.3118,1.3353,1.4302,1.4816,1.4923,1.5538,1.5635,1.5308,1.5181,1.495,1.4604,1.4244,1.3735,1.3106,0.0,0.0,0.0,0.0,1.4102,1.4394,1.505,1.5538,1.5801,1.5801,1.5801,1.5801,1.5361,1.491,1.4409,1.4233,1.4094,1.4005,1.4807,0.0,0.0,0.0,0.0,0.0,0.0,0.0,0.0,0.0,0.0,0.0,0.0,0.0,0.0,0.0,0.0,0.0,0.0,0.0,1.7577,1.7598,1.7354,0.0,0.0,0.0,0.0,0.0,0.0,0.0,0.0,0.0,1.5476,1.5464,1.5409,0.0,0.0,1.5798,1.6148,1.6204,1.6281,1.6476,0.0,0.0,0.0,1.6917,1.7131,1.673,1.7173,1.7853,1.8607,1.8868,1.9275,2.0017,2.0207,2.0082,1.9514,1.9169,1.8939,1.8809,1.9003,1.93,1.9555,1.9962,2.0288,1.4438,1.3543,1.314,1.2962,1.2984,1.3427,1.3756,1.4,1.4087,1.4105,1.4027,1.3654,1.334,1.3112,1.2665,0.0,0.0,0.0,1.4122,1.4492,1.5364,1.5805,1.5945,1.6435,1.6526,1.6155,1.5999,1.5772,1.5531,1.5184,1.4716,1.4067,0.0,0.0,1.3581,1.4163,1.4544,1.471,1.5271,1.5628,1.5801,1.5801,1.5801,1.5801,1.5545,1.5177,1.4716,1.4302,1.4001,1.3798,1.4316,1.4827,0.0,0.0,0.0,0.0,0.0,0.0,0.0,0.0,0.0,0.0,0.0,1.6437,0.0,0.0,0.0,0.0,1.7401,1.7414,1.757,1.7278,0.0,0.0,0.0,0.0,0.0,0.0,0.0,1.5024,1.4968,1.5014,1.5245,1.5287,1.516,1.4888,1.4952,1.5133,1.5511,0.0,1.5671,1.5959,1.5952,1.5979,1.6122,1.645,1.6635,1.6497,1.6755,1.7181,1.7812,1.81,1.844,1.9039,1.9246,1.902,1.8342,1.7973,1.7914,1.8296,1.8538,1.8789,1.9106,1.9432,1.9697,1.5991,1.5322,1.3992,1.3427,1.3453,1.4042,1.4297,1.4322,1.4567,1.4961,1.5434,1.485,1.4716,1.4912,1.4437,0.0,0.0,1.4959,1.5311,1.5762,1.6078,1.6307,1.6451,1.6484,1.6477,1.6451,1.6539,1.6462,1.6171,1.5977,1.5765,1.5491,1.4941,1.4494,1.423,1.478,1.5053,1.5059,1.5605,1.5861,1.5841,1.5815,1.5764,1.5761,1.5515,1.5273,1.4975,1.4409,1.3975,1.3627,1.3843,1.4042,1.4238,0.0,0.0,0.0,0.0,0.0,0.0,0.0,0.0,0.0,0.0,0.0,0.0,0.0,0.0,0.0,1.7347,0.0,1.6765,1.6024,0.0,0.0,0.0,1.5478,1.5401,1.5026,1.4871,1.5068,0.0,0.0,1.5255,0.0,1.5391,1.5362,1.5204,1.5247,1.5711,1.5771,1.5901,1.6135,1.6415,1.6602,1.6481,1.6572,1.6623,1.6613,1.6685,1.6723,1.6765,1.677,1.673,1.6882,1.6723,1.675,1.6723,1.6777,1.6871,1.7432,1.756,1.7639,1.8063,1.798,1.8002,1.6292,1.5758,1.54,1.5219,1.5214,1.5598,1.5879,1.6086,1.6152,1.6139,1.6049,1.5451,1.4977,1.4643,1.4943,1.5244,1.5508,1.5855,1.5709,1.522,1.5485,1.5183,1.444,1.4622,1.4611,1.4466,1.5295,1.5572,1.5338,1.6098,1.646,1.6393,1.6253,1.5705,1.4832,1.5331,1.5625,1.5595,1.6199,1.6386,1.6166,1.5921,1.5695,1.5504,1.5431,1.515,1.4649,1.4496,1.4154,1.3654,1.4219,1.4496,1.4292,1.5121,0.0,0.0,0.0,0.0,0.0,0.0,0.0,0.0,0.0,1.7685,1.7288,0.0,1.7378,0.0,1.6059,1.5992,1.6255,1.6083,0.0,0.0,1.5425,1.516,1.4524,1.4523,1.4522,1.4367,1.4656,1.4842,1.48,1.5012,1.5171,1.5171,1.5436,1.5601,1.5598,1.5706,1.5781,1.5723,1.5779,1.5774,1.5863,1.6131,1.6414,1.6388,1.6573,1.6686,1.6691,1.6697,1.6697,1.6697,1.6697,1.6697,1.6677,1.6687,1.6736,1.6917,1.7253,1.7719,1.8183,1.8227,1.8147,1.5158,1.484,1.484,1.476,1.4773,1.5833,1.6376,1.6514,1.652,1.6435,1.6259,1.5815,1.5443,1.5175,1.5601,1.5654,1.5487,1.5853,1.5477,1.455,1.4921,1.4689,1.393,1.4226,1.4297,1.418,1.4797,1.4974,1.4788,1.5247,1.5444,1.5367,1.5745,1.5628,1.5054,1.5787,1.6219,1.6195,1.6413,1.6433,1.6297,1.5961,1.5728,1.5598,1.5464,1.5184,1.473,1.4589,1.4287,1.3847,1.4111,1.4175,1.4,1.4604,1.5161,0.0,0.0,0.0,0.0,0.0,0.0,0.0,0.0,0.0,0.0,0.0,1.6668,0.0,1.5657,0.0,1.5779,1.5429,1.5101,1.4845,1.4713,1.4516,1.4127,1.4156,1.4221,1.4318,1.462,1.4818,1.4811,1.4981,1.5059,1.4957,1.5244,1.5458,1.5376,1.5508,1.5617,1.5527,1.5502,1.5551,1.5661,1.6011,1.629,1.6312,1.6424,1.6477,1.6365,1.6338,1.6338,1.6338,1.6365,1.6338,1.6344,1.6343,1.6382,1.6551,1.6789,1.7204,1.7685,1.7925,1.7954,1.3564,1.3421,1.3391,1.3315,1.3389,1.5086,1.5848,1.5926,1.5931,1.5925,1.5855,1.569,1.5573,1.5548,1.582,1.5539,1.4875,1.5248,1.4805,1.3709,1.4156,1.413,1.3728,1.3993,1.4135,1.4135,1.4334,1.4319,1.4098,1.4069,1.3906,1.372,1.4421,1.4871,1.504,1.5999,1.6587,1.6789,1.6558,1.6411,1.6404,1.6059,1.5828,1.5748,1.5491,1.5213,1.4908,1.4603,1.4349,1.4095,1.382,1.366,1.3674,1.4049,1.4322,0.0,1.5098,0.0,0.0,0.0,0.0,0.0,0.0,0.0,0.0,1.5397,1.5521,1.5951,1.5533,1.5235,1.5235,1.4551,1.4099,1.4099,1.3874,1.3814,1.4071,1.395,1.4021,1.4484,1.4572,1.4716,1.4937,1.4987,1.4885,1.4718,1.4838,1.4981,1.5024,1.5237,1.5425,1.5396,1.5366,1.5305,1.5544,1.584,1.6046,1.6099,1.6145,1.6127,1.5959,1.5912,1.5912,1.5912,1.5939,1.5912,1.5885,1.5918,1.5997,1.6196,1.6314,1.652,1.6974,1.7247,1.7382,1.3226,1.3013,1.2823,1.2856,1.2993,1.3081,1.3402,1.3864,1.4,1.387,1.3627,1.3849,1.3802,1.3597,1.3877,1.4028,1.393,1.4027,1.3459,1.2345,1.2467,1.1974,1.1072,1.1101,1.1129,1.1212,1.2318,1.2752,1.2483,1.36,1.3945,1.3564,1.371,1.4196,1.4961,0.0,0.0,0.0,1.716,1.7032,1.7012,1.6484,1.5959,1.5498,1.522,0.0,1.4303,1.4202,1.4148,1.4109,1.4056,0.0,0.0,0.0,0.0,0.0,0.0,0.0,0.0,0.0,0.0,0.0,1.5886,1.5836,1.5438,1.4772,1.469,1.5423,1.481,1.4349,1.4334,1.4203,1.4104,1.4082,1.3902,1.3865,1.4123,1.4155,1.4169,1.4258,1.4494,1.4602,1.443,1.4472,1.4418,1.4298,1.4394,1.4448,1.4442,1.484,1.5063,1.4895,1.4715,1.4564,1.4582,1.4857,1.5174,1.528,1.5523,1.569,1.5792,1.5873,1.5879,1.5847,1.5885,1.5885,1.5885,1.5885,1.593,1.5952,1.6145,1.6398,1.6706,1.6809,1.6911,1.1422,0.0,1.1129,1.1102,0.0,1.0948,1.1104,1.1436,1.2581,1.3026,1.2942,1.3137,1.3118,1.297,1.3272,1.3126,1.2694,1.2901,1.2287,1.1058,1.1284,1.1004,1.0303,1.0484,1.0543,1.0572,1.1299,1.1515,1.1321,1.2006,1.2223,1.192,1.2476,1.3269,1.4266,1.5317,1.6358,1.7378,1.7269,1.7132,1.6946,1.6524,1.6066,1.5601,0.0,0.0,0.0,0.0,0.0,0.0,0.0,0.0,0.0,0.0,0.0,1.473,1.4933,1.5138,1.544,1.5462,1.5338,1.5033,1.5009,1.5007,1.5001,1.4589,1.4466,1.4756,1.4268,1.4011,1.4132,1.4036,1.3994,1.4141,1.3961,1.3934,1.4139,1.4091,1.4127,1.4233,1.4404,1.4274,1.3583,1.3511,1.3294,1.2853,1.2756,1.298,1.3487,1.4196,1.464,1.452,1.4418,1.4376,1.4461,1.4606,1.4755,1.5059,1.5221,1.511,1.476,1.5267,1.5566,1.5112,1.5444,1.5885,1.5885,1.5885,1.5885,1.5897,1.6,1.6133,1.6296,1.6507,1.6736,0.9646,0.9466,0.9568,0.9479,0.9305,0.9379,0.9427,0.9557,0.0,0.0,0.0,1.2318,1.2314,1.2343,1.2544,1.2135,1.1321,1.1695,1.1173,1.0007,1.0428,1.0486,1.0243,1.0486,1.0607,1.0637,1.0698,1.0601,1.0391,1.0417,1.0347,1.0229,1.1093,1.2032,1.3078,1.5212,1.6465,1.673,1.6964,1.6906,1.6629,1.633,1.6011,1.5696,1.5411,1.5239,1.5173,1.4745,1.4487,1.4443,1.4283,1.4171,1.4127,1.4317,1.4355,1.4158,1.4365,1.4446,1.4205,1.4182,1.4201,1.4268,1.4325,1.4397,1.452,1.453,1.444,1.4221,1.3983,1.3967,1.4179,1.4018,1.3964,1.4181,1.4025,1.3924,1.3924,1.3754,1.3608,1.3753,1.3655,1.3444,1.2581,1.2436,1.2145,1.1439,1.1365,1.1439,1.2339,1.3312,1.3884,1.3613,1.3492,1.3718,1.397,1.3942,1.4193,1.424,1.4354,1.4174,1.3674,1.4132,1.4454,1.3762,1.4559,1.5018,1.5221,1.5104,1.5345,1.5565,1.5618,1.5672,1.5901,1.6235,1.6537,0.9765,0.9751,0.9623,0.9652,0.9707,0.9479,0.9459,0.9574,0.9905,1.0023,1.0074,1.0074,1.0074,1.0074,1.0103,1.0115,1.0056,1.011,1.003,0.0,0.9903,0.9913,0.9883,0.9913,0.9943,0.997,1.0213,1.0203,0.9973,1.0178,1.007,0.9619,0.9697,1.0258,1.1224,1.3614,1.4927,1.4974,1.5922,1.6407,1.6356,1.5857,1.5484,1.5202,1.488,1.4612,1.4388,1.4495,1.4465,1.4276,1.4433,1.4429,1.4196,1.4228,1.4238,1.4186,1.4231,1.425,1.4182,1.4182,1.4306,1.4518,1.4805,1.4765,1.4294,1.4244,1.425,1.4182,1.4151,1.416,1.4189,1.4112,1.4056,1.4095,1.3991,1.3667,1.3001,1.2696,1.2337,1.1847,1.1634,1.1682,1.1463,1.139,1.1317,1.1199,1.0974,1.1224,1.139,1.2271,1.249,1.1858,1.1634,1.1648,1.1942,1.1737,1.2008,1.2069,1.2229,1.2314,1.2158,1.2473,1.2656,1.2458,1.2765,1.2944,1.3018,1.2874,1.342,1.4191,1.4439,1.4675,1.5458,1.5806,1.6049,0.926,0.9166,0.9175,0.9202,0.9156,0.9284,0.948,0.969,0.9727,0.9724,0.9724,0.9697,0.9727,0.9724,0.9724,0.9758,0.9788,0.9788,0.9788,0.9788,0.9788,0.9788,0.9788,0.9788,0.9788,0.9822,0.994,0.9943,0.9852,0.997,0.9901,0.9648,1.0152,1.0593,1.1008,1.2639,1.3788,1.4401,1.5812,1.6443,1.6291,1.5929,1.5585,1.5305,1.5015,1.4811,1.4678,1.4618,1.4535,1.4427,1.4394,1.4334,1.4211,1.4344,1.4358,1.422,1.4351,1.4409,1.4252,1.4246,1.4301,1.4425,1.4572,1.4303,1.3455,1.4053,1.4415,1.4263,1.4146,1.386,1.3438,1.3251,1.3003,1.2608,1.2475,1.2277,1.1968,1.1802,1.1579,1.1249,1.1194,1.0974,1.0386,1.0337,1.0047,0.9653,0.9875,1.0121,0.9632,1.0366,1.1097,1.1146,1.1194,1.1194,1.117,1.1194,1.1242,1.1352,1.1386,1.1176,1.0936,1.1185,1.1529,1.1272,1.1647,1.2203,1.2321,1.239,1.2689,1.2933,1.3214,1.3533,1.3932,1.4482,1.521,0.8821,0.8678,0.8839,0.879,0.8705,0.9048,0.9366,0.9579,0.9636,0.9667,0.97,0.9761,0.9805,0.9748,0.9775,0.9775,0.9751,0.9775,0.9788,0.9788,0.9788,0.9788,0.9788,0.9788,0.9788,0.9788,0.9788,0.9788,0.9788,0.9788,0.9775,0.9814,1.0469,1.0767,1.0697,1.1675,1.2578,1.344,1.4932,1.5846,1.609,1.5852,1.5607,1.5331,1.5093,1.4978,1.4903,1.4732,1.4589,1.4529,1.4387,1.4297,1.4235,1.4429,1.4448,1.4273,1.4475,1.4394,1.4004,1.3956,1.383,1.3613,1.3607,1.3245,1.2581,1.3294,1.3835,1.3614,1.3328,1.2991,1.2464,1.2188,1.1816,1.1273,1.1194,1.1141,1.0901,1.0828,1.071,1.0563,1.0485,1.0096,0.9484,0.9242,0.8949,0.8407,0.8726,0.8825,0.8262,0.8751,0.9558,1.017,1.0464,1.0366,1.0464,1.0391,1.0371,1.046,1.0395,0.9998,0.9607,1.0162,1.0504,0.9973,1.0566,1.1102,1.145,1.1497,1.1624,1.1873,1.2005,1.2114,1.2575,1.3209,1.4137,0.8876,0.89,0.8848,0.8909,0.8863,0.8909,0.8976,0.9037,0.9244,0.9335,0.94,0.967,0.9721,0.9656,0.9768,0.9758,0.9659,0.9734,0.9788,0.9788,0.9788,0.9788,0.9788,0.9788,0.9788,0.9788,0.9788,0.9788,0.9788,0.9788,0.9727,0.9608,0.9481,0.9432,0.9529,1.0413,1.0939,1.1055,1.2195,1.3682,1.5421,1.5316,1.503,1.4776,1.477,1.4631,1.4448,1.4567,1.4573,1.4358,1.4524,1.4536,1.4291,1.4292,1.428,1.4226,1.4286,1.3908,1.2974,1.2853,1.2484,1.1609,1.1585,1.1541,1.137,1.1463,1.1512,1.1482,1.1473,1.1512,1.1336,1.1288,1.1186,1.0936,1.0974,1.0832,0.9948,0.9756,0.9386,0.8407,0.8531,0.8258,0.8311,0.8283,0.8187,0.8038,0.8162,0.8262,0.8088,0.8137,0.8333,0.8407,0.8357,0.8432,0.8503,0.8333,0.8577,0.8478,0.8382,0.8407,0.8467,0.8404,0.836,0.8988,0.8842,0.9207,0.9283,0.9179,0.9731,1.0589,1.0893,1.1133,1.2064,1.2445,1.2987,0.8302,0.8302,0.8299,0.8424,0.8583,0.861,0.8735,0.8915,0.9007,0.9068,0.9095,0.9366,0.9576,0.9707,0.9768,0.9758,0.9741,0.9765,0.9788,0.9788,0.9788,0.9788,0.9788,0.9788,0.9788,0.9788,0.9788,0.9788,0.9788,0.9788,0.9791,0.9694,0.952,0.941,0.934,0.9642,1.0096,1.0703,1.1164,1.2126,1.3512,1.4091,1.4608,1.5085,1.4858,1.4648,1.4539,1.4491,1.4394,1.4322,1.4394,1.4124,1.339,1.3336,1.31,1.2538,1.246,1.2271,1.1858,1.1828,1.1634,1.1219,1.1194,1.0955,1.0317,1.0239,0.9998,0.9562,1.044,1.0979,1.0366,1.0239,1.0022,0.946,0.9316,0.9143,0.8726,0.8676,0.8457,0.8038,0.7988,0.7988,0.7988,0.7988,0.7988,0.7988,0.7988,0.7988,0.7988,0.7988,0.7988,0.7988,0.7988,0.7988,0.7988,0.7988,0.7988,0.7988,0.7988,0.7988,0.7988,0.7988,0.8092,0.8241,0.8345,0.8444,0.8679,0.8615,0.8901,0.9518,0.9631,0.9805,1.0272,1.0895,1.1574,0.7903,0.7903,0.7903,0.8027,0.8244,0.8244,0.8397,0.8638,0.8732,0.8766,0.8796,0.9065,0.9305,0.9548,0.9697,0.9771,0.9741,0.9802,0.9788,0.9788,0.9788,0.9788,0.9788,0.9788,0.9788,0.9788,0.9788,0.9788,0.9788,0.9788,0.9788,0.9768,0.968,0.9554,0.9435,0.9284,0.9542,1.018,1.0237,1.0785,1.1846,1.2583,1.3461,1.4389,1.4151,1.3922,1.3781,1.3618,1.3488,1.3444,1.3463,1.31,1.2363,1.229,1.1974,1.1321,1.1194,1.1052,1.0808,1.0759,1.0636,1.0366,1.0342,1.0002,0.9361,0.9167,0.8821,0.8308,0.9435,0.9903,0.9336,0.9167,0.88,0.8088,0.7988,0.7988,0.8013,0.7988,0.8038,0.7988,0.7988,0.7988,0.7988,0.7988,0.7988,0.7988,0.7988,0.7988,0.7988,0.7988,0.7988,0.7988,0.7988,0.7988,0.7988,0.7988,0.7988,0.7988,0.7988,0.7988,0.7988,0.7988,0.7995,0.8157,0.8247,0.8328,0.8447,0.8488,0.8587,0.8733,0.8852,0.8954,0.921,0.9781,1.0107,0.7903,0.7903,0.7903,0.7903,0.7933,0.7928,0.793,0.8025,0.8302,0.843,0.8458,0.8766,0.8915,0.9007,0.9518,0.9721,0.9626,0.9707,0.9697,0.9667,0.9758,0.9788,0.9788,0.9788,0.9788,0.9731,0.97,0.9731,0.9758,0.9758,0.9788,0.9751,0.9616,0.9575,0.9521,0.9335,0.9239,0.9359,0.9252,0.9599,1.0629,1.0859,1.131,1.2064,1.2188,1.2086,1.1739,1.1587,1.1532,1.138,1.1482,1.138,1.1248,1.1248,1.1146,1.1077,1.1097,1.0656,0.9776,0.9608,0.9266,0.8407,0.8329,0.8184,0.8159,0.8162,0.8088,0.7988,0.8159,0.8258,0.8162,0.8233,0.8162,0.8038,0.7988,0.7988,0.7988,0.7988,0.7988,0.7988,0.7988,0.7988,0.7988,0.7988,0.7988,0.7988,0.7988,0.7988,0.7988,0.7988,0.7988,0.7988,0.7988,0.7988,0.7988,0.7988,0.7988,0.7988,0.7988,0.7988,0.7988,0.7992,0.8027,0.8054,0.8167,0.827,0.8345,0.8462,0.8625,0.8757,0.8818,0.8872,0.8902,0.8909,0.9182,0.7903,0.7903,0.7903,0.7903,0.7894,0.7823,0.7834,0.7892,0.7917,0.7988,0.8113,0.8427,0.8583,0.8613,0.9037,0.9191,0.9184,0.9377,0.9058,0.8443,0.9089,0.9055,0.8382,0.8879,0.9217,0.9217,0.9217,0.9217,0.9217,0.9247,0.922,0.9222,0.9257,0.9304,0.9298,0.9314,0.9325,0.9325,0.9245,0.9401,0.9717,0.9734,0.9828,1.0077,1.1322,1.1934,1.1784,1.1627,1.1459,1.1333,1.1323,1.0965,1.0212,0.9509,0.9072,0.892,0.8899,0.8648,0.8177,0.8053,0.7928,0.7559,0.7487,0.7512,0.7487,0.7487,0.749,0.7512,0.749,0.7487,0.7562,0.7789,0.7988,0.7988,0.7988,0.7963,0.7988,0.7988,0.7988,0.7988,0.7988,0.7988,0.7988,0.7988,0.7988,0.7988,0.7988,0.7988,0.7988,0.7988,0.7988,0.7988,0.7988,0.7988,0.7988,0.7988,0.7988,0.7988,0.7988,0.7988,0.7988,0.7988,0.7998,0.7998,0.8123,0.8157,0.8218,0.8316,0.854,0.8669,0.8713,0.8838,0.8892,0.8906,0.8909,0.7903,0.7903,0.7903,0.7655,0.7248,0.7153,0.6915,0.663,0.651,0.6549,0.6632,0.6855,0.695,0.698,0.7192,0.7281,0.7406,0.8075,0.7831,0.6726,0.7492,0.7647,0.7431,0.7925,0.8513,0.8854,0.8918,0.8918,0.8918,0.8918,0.8918,0.8909,0.8995,0.9011,0.9048,0.9114,0.9156,0.9124,0.9114,0.9038,0.8946,0.8894,0.8828,0.8862,1.0023,1.0787,1.0919,1.0677,1.0444,1.0294,1.0171,0.9715,0.884,0.8155,0.7665,0.749,0.749,0.7391,0.7235,0.721,0.721,0.721,0.721,0.721,0.721,0.721,0.721,0.721,0.721,0.721,0.7263,0.7537,0.7736,0.7739,0.7736,0.7764,0.7867,0.7892,0.7917,0.7963,0.7988,0.7988,0.7988,0.7988,0.7988,0.7988,0.7988,0.7988,0.7988,0.7988,0.7988,0.7988,0.7988,0.7988,0.7988,0.7988,0.7988,0.7988,0.7988,0.7988,0.7988,0.7988,0.7988,0.7988,0.8023,0.8044,0.8119,0.8204,0.834,0.8499,0.8648,0.8767,0.8835,0.8906,0.8909,0.7778,0.7686,0.7839,0.6947,0.5963,0.5855,0.5129,0.4303,0.4142,0.4292,0.4456,0.4183,0.4398,0.4152,0.449,0.4152,0.4458,0.5867,0.6018,0.5008,0.51,0.5743,0.651,0.6846,0.7681,0.8732,0.8854,0.8854,0.8793,0.8793,0.8824,0.8851,0.8845,0.886,0.8879,0.8771,0.8679,0.8658,0.8608,0.8508,0.8384,0.8373,0.8328,0.8228,0.8335,0.8533,0.8811,0.8605,0.8445,0.8107,0.7814,0.7407,0.7438,0.731,0.7238,0.7188,0.7188,0.7185,0.7163,0.7135,0.711,0.711,0.716,0.711,0.7086,0.711,0.711,0.7086,0.711,0.7138,0.7138,0.7188,0.7213,0.721,0.7285,0.7388,0.7543,0.7618,0.7693,0.7914,0.7963,0.7988,0.7988,0.7988,0.7988,0.7988,0.7988,0.7988,0.7988,0.7988,0.7988,0.7988,0.7988,0.7988,0.7988,0.7988,0.7988,0.7988,0.7988,0.7988,0.7988,0.7988,0.7988,0.7988,0.7988,0.8033,0.8081,0.8197,0.8347,0.8496,0.8621,0.874,0.8831,0.8909,0.8909,0.5134,0.5165,0.5134,0.492,0.4514,0.4471,0.42,0.3899,0.3863,0.3837,0.3901,0.3907,0.3907,0.3876,0.3907,0.3384,0.268,0.3264,0.3416,0.3383,0.4119,0.424,0.4272,0.5502,0.6917,0.8025,0.8208,0.8238,0.8244,0.8241,0.8208,0.8238,0.8458,0.8552,0.858,0.869,0.8821,0.8787,0.8784,0.8689,0.8539,0.8487,0.8381,0.8208,0.815,0.818,0.8216,0.8152,0.796,0.7703,0.7583,0.7428,0.7237,0.721,0.7113,0.6942,0.6917,0.6842,0.6686,0.6664,0.6689,0.6661,0.6661,0.6637,0.6637,0.6661,0.6661,0.6661,0.6661,0.6661,0.6661,0.6659,0.6811,0.7163,0.721,0.7188,0.7313,0.7494,0.7618,0.7721,0.7867,0.7988,0.7988,0.7988,0.7988,0.7988,0.7988,0.7988,0.7988,0.7988,0.7988,0.7988,0.7988,0.7988,0.7988,0.7988,0.7988,0.7988,0.7988,0.7988,0.7988,0.7988,0.7988,0.7988,0.7988,0.803,0.8081,0.8177,0.8299,0.8457,0.853,0.8686,0.8848,0.8909,0.8906,0.3916,0.3903,0.3913,0.3613,0.3225,0.3148,0.2842,0.2496,0.2402,0.2398,0.242,0.2436,0.2472,0.2445,0.2456,0.2033,0.1296,0.1264,0.1356,0.1633,0.2308,0.2523,0.2617,0.4798,0.6298,0.7178,0.7677,0.7927,0.7965,0.7922,0.7903,0.7964,0.8119,0.8214,0.8244,0.8427,0.8546,0.8549,0.8513,0.8444,0.8371,0.8286,0.8166,0.795,0.7878,0.7813,0.7721,0.7709,0.7643,0.7505,0.7343,0.7127,0.6909,0.6886,0.6814,0.6717,0.6642,0.6564,0.6437,0.6437,0.6412,0.6412,0.6412,0.6412,0.6412,0.6412,0.6412,0.6412,0.6412,0.6412,0.6412,0.6412,0.6564,0.6839,0.6886,0.6939,0.7039,0.7291,0.7444,0.7515,0.7665,0.7814,0.7867,0.7963,0.7988,0.7988,0.7988,0.7988,0.7988,0.7988,0.7988,0.7988,0.7988,0.7988,0.7988,0.7988,0.7988,0.7988,0.7988,0.7988,0.7988,0.7988,0.7988,0.7988,0.7988,0.7988,0.8054,0.8047,0.8121,0.8282,0.8475,0.8608,0.8777,0.8879,0.8902,0.3643,0.3681,0.3664,0.2859,0.1968,0.1883,0.1301,0.0,0.0,0.0,0.0,0.0,0.0,0.0,0.0,0.0,0.0,0.0,0.0,0.0,0.0,0.0894,0.2281,0.4278,0.5389,0.6033,0.71,0.7729,0.7707,0.7881,0.7908,0.7903,0.7933,0.7933,0.7964,0.7933,0.7994,0.7994,0.7964,0.7958,0.7944,0.7832,0.7687,0.7561,0.745,0.7369,0.7343,0.7307,0.731,0.7294,0.6952,0.6657,0.648,0.6423,0.6486,0.6445,0.6412,0.6437,0.6412,0.6412,0.6412,0.6412,0.6412,0.6412,0.6412,0.6412,0.6412,0.6412,0.6412,0.6412,0.6412,0.6412,0.6437,0.6412,0.6512,0.6562,0.6742,0.7014,0.7166,0.7216,0.7391,0.7568,0.7593,0.7793,0.7917,0.7939,0.7963,0.7988,0.7988,0.7988,0.7988,0.7988,0.7988,0.7988,0.7988,0.7988,0.7988,0.7988,0.7988,0.7988,0.7988,0.7988,0.7988,0.7988,0.7988,0.7988,0.7988,0.7992,0.8077,0.8281,0.843,0.8563,0.8682,0.8804,0.8902,0.0798,0.1017,0.1013,0.083,0.0555,0.0522,0.0,0.0,0.0,0.0,0.0,0.0,0.0,0.0,0.0,0.0,0.0,0.0,0.0,0.0,0.0,0.0,0.1788,0.265,0.36,0.4582,0.5948,0.6514,0.6571,0.7578,0.7987,0.7903,0.7903,0.7903,0.7903,0.7903,0.7903,0.7903,0.7903,0.7903,0.7897,0.7875,0.7771,0.7655,0.7506,0.7456,0.7413,0.7305,0.719,0.7073,0.6895,0.6672,0.6586,0.6544,0.6512,0.6447,0.642,0.6414,0.6417,0.6412,0.6412,0.6412,0.6412,0.6412,0.6412,0.6412,0.6412,0.6412,0.6412,0.6412,0.6412,0.6412,0.6412,0.6412,0.6412,0.6412,0.6539,0.6739,0.6895,0.6917,0.7141,0.7263,0.7366,0.7519,0.7693,0.7743,0.7842,0.7988,0.7988,0.7988,0.7988,0.7988,0.7988,0.7988,0.7988,0.7988,0.7988,0.7988,0.7988,0.7988,0.7988,0.7988,0.7988,0.7988,0.7988,0.7988,0.7988,0.7988,0.8147,0.825,0.841,0.8553,0.8676,0.8794,0.8879,-0.0307,0.0,0.0,0.0,0.0,0.0,0.0,0.0,0.0,0.0,0.0,0.0,0.0,0.0,0.0,0.0,0.0,0.0,0.0,0.0,0.0,0.0,0.1141,0.1603,0.2399,0.3296,0.517,0.5963,0.6271,0.7417,0.7958,0.7924,0.7903,0.7903,0.7903,0.7903,0.7903,0.7903,0.7903,0.7903,0.7903,0.7903,0.7837,0.7714,0.7625,0.7533,0.7424,0.734,0.72,0.7027,0.6915,0.6825,0.6711,0.6669,0.6636,0.6566,0.652,0.649,0.6477,0.6447,0.6412,0.6412,0.6412,0.6412,0.6412,0.6412,0.6412,0.6412,0.6412,0.6412,0.6412,0.6412,0.6412,0.6412,0.6412,0.6412,0.6412,0.6539,0.6642,0.6717,0.6864,0.7039,0.7039,0.7266,0.7469,0.7593,0.7721,0.7871,0.7967,0.7992,0.7988,0.7988,0.7988,0.7988,0.7988,0.7988,0.7988,0.7988,0.7988,0.7988,0.7988,0.7988,0.7988,0.7988,0.7988,0.7988,0.7988,0.7992,0.805,0.8184,0.8379,0.8522,0.8625,0.8798,0.8875,-0.0366,0.0,0.0,0.0,0.0,0.0,0.0,0.0,0.0,0.0,0.0,0.0,0.0,0.0,0.0,0.0,0.0,0.0,0.0,0.0,0.0,0.0,0.0309,0.111,0.1626,0.226,0.4583,0.5541,0.6035,0.7202,0.7958,0.793,0.7903,0.7903,0.7903,0.7903,0.7903,0.7903,0.7903,0.7903,0.7903,0.79,0.7856,0.7788,0.7733,0.7552,0.7397,0.7311,0.7227,0.7016,0.7032,0.6967,0.6839,0.6823,0.6801,0.6771,0.6658,0.6607,0.6577,0.649,0.6425,0.642,0.6412,0.6412,0.6412,0.6412,0.6412,0.6412,0.6412,0.6412,0.6412,0.6412,0.6412,0.6412,0.6412,0.6412,0.6412,0.6412,0.6412,0.6412,0.6617,0.6745,0.6845,0.6992,0.7241,0.7319,0.7497,0.7746,0.7867,0.7942,0.7963,0.7988,0.7988,0.7988,0.7988,0.7988,0.7988,0.7988,0.7988,0.7988,0.7988,0.7988,0.7988,0.7988,0.7988,0.7988,0.7988,0.7995,0.8027,0.8111,0.8306,0.8437,0.8553,0.8788,0.8909,-0.0677,-0.037,-0.0123,0.0,0.0,0.0,0.0,0.0,0.0,0.0,0.0,0.0,0.0,0.0,0.0,0.0,0.0,0.0,0.0,0.0,0.0,0.0,0.0,0.0,0.0,0.0,0.3249,0.4413,0.4954,0.671,0.802,0.7916,0.7903,0.7903,0.7903,0.7903,0.7903,0.7903,0.7903,0.7903,0.7903,0.7903,0.7889,0.7856,0.7856,0.766,0.7403,0.74,0.7358,0.7215,0.7136,0.7081,0.697,0.6945,0.691,0.6836,0.6785,0.6717,0.6612,0.6572,0.6509,0.6433,0.6428,0.6412,0.6412,0.6412,0.6412,0.6412,0.6412,0.6412,0.6412,0.6412,0.6412,0.6412,0.6412,0.6412,0.6412,0.6412,0.6412,0.6412,0.6464,0.6489,0.6514,0.6717,0.6917,0.702,0.7272,0.7572,0.7718,0.7842,0.7892,0.7917,0.7988,0.7988,0.7988,0.7988,0.7988,0.7988,0.7988,0.7988,0.7988,0.7988,0.7988,0.7988,0.7988,0.7988,0.7988,0.7992,0.7998,0.8128,0.8269,0.8408,0.8574,0.8774,0.8909,-0.0803,-0.0463,-0.0124,0.0,0.0,0.0,0.0,0.0,0.0,0.0,0.0,0.0,0.0,0.0,0.0,0.0,0.0,0.0,0.0,0.0,0.0,0.0,0.0,0.0,0.0,0.0,0.2111,0.3273,0.4373,0.5997,0.7394,0.788,0.7903,0.7903,0.7903,0.7903,0.7903,0.7903,0.7903,0.7903,0.7903,0.7903,0.7903,0.7903,0.7894,0.7774,0.7522,0.7476,0.7418,0.7277,0.7215,0.7188,0.7108,0.7092,0.7054,0.7002,0.6844,0.6825,0.6777,0.6658,0.6561,0.6504,0.6498,0.646,0.6433,0.6412,0.6412,0.6412,0.6412,0.6412,0.6412,0.6412,0.6412,0.6412,0.6412,0.6412,0.6412,0.6412,0.6412,0.6412,0.6412,0.6412,0.6489,0.6589,0.6717,0.687,0.692,0.7219,0.7466,0.7565,0.7718,0.7793,0.7939,0.7988,0.7988,0.7988,0.7988,0.7988,0.7988,0.7988,0.7988,0.7988,0.7988,0.7992,0.7998,0.7988,0.7988,0.7992,0.8074,0.8208,0.8333,0.8465,0.8621,0.8787,0.8885,-0.0834,-0.0556,-0.0154,0.0,0.0,0.0,0.0,0.0,0.0,0.0,0.0,0.0,0.0,0.0,0.0,0.0,0.0,0.0,0.0,0.0,0.0,0.0,0.0,0.0,0.0,0.0,0.1537,0.2727,0.4053,0.5362,0.6884,0.7718,0.7905,0.7903,0.7903,0.7903,0.7903,0.7903,0.7903,0.7903,0.7903,0.7903,0.7903,0.7903,0.7897,0.784,0.7676,0.7568,0.7454,0.7316,0.7239,0.7209,0.7213,0.721,0.721,0.7168,0.6972,0.6915,0.6907,0.6804,0.669,0.6657,0.6593,0.6547,0.6474,0.6428,0.6412,0.6412,0.6412,0.6412,0.6412,0.6412,0.6412,0.6412,0.6412,0.6412,0.6412,0.6412,0.6412,0.6412,0.6412,0.6412,0.6412,0.6464,0.6589,0.6692,0.6745,0.687,0.7116,0.7338,0.7494,0.7646,0.7793,0.7939,0.7963,0.7988,0.7988,0.7988,0.7988,0.7988,0.7988,0.7988,0.7992,0.8005,0.8008,0.8047,0.8091,0.8152,0.8238,0.8328,0.844,0.8567,0.8679,0.8808,0.8869,-0.0957,-0.0865,-0.0247,0.0,0.0,0.0,0.0,0.0,0.0,0.0,0.0,0.0,0.0,0.0,0.0,0.0,0.0,0.0,0.0,0.0,0.0,0.0,0.0,0.0,0.0,0.0,0.1271,0.2523,0.3908,0.5348,0.6436,0.7668,0.7949,0.7903,0.7903,0.7903,0.7903,0.7903,0.7903,0.7903,0.7903,0.7903,0.7903,0.7903,0.7903,0.7848,0.7766,0.7676,0.7538,0.7306,0.7289,0.7252,0.7223,0.7226,0.721,0.7166,0.7117,0.7051,0.7021,0.6977,0.6864,0.6782,0.6672,0.6612,0.6553,0.6485,0.6458,0.6428,0.6425,0.6417,0.6412,0.6412,0.6412,0.6412,0.6412,0.6412,0.6412,0.6412,0.6412,0.6412,0.6412,0.6412,0.6412,0.6412,0.6489,0.6589,0.6642,0.6692,0.6842,0.7092,0.7316,0.7469,0.7618,0.7793,0.7942,0.7963,0.7988,0.7988,0.7988,0.7988,0.7988,0.7988,0.7998,0.8071,0.815,0.8194,0.8248,0.8296,0.8377,0.8471,0.856,0.8676,0.8747,0.8841,0.8899,-0.1019,-0.0926,-0.0278,0.0,0.0,0.0,0.0,0.0,0.0,0.0,0.0,0.0,0.0,0.0,0.0,0.0,0.0,0.0,0.0,0.0,0.0,0.0,0.0,0.0,0.0,0.0,0.0741,0.1702,0.3019,0.424,0.566,0.6787,0.7493,0.7903,0.7903,0.7903,0.7903,0.7903,0.7903,0.7903,0.7903,0.7903,0.7903,0.7903,0.7903,0.7872,0.7829,0.772,0.7622,0.7498,0.7373,0.7324,0.7335,0.7256,0.7215,0.7179,0.7133,0.7111,0.7081,0.7057,0.695,0.6931,0.6831,0.6777,0.6722,0.6662,0.6566,0.652,0.6501,0.6477,0.6398,0.642,0.6412,0.6412,0.6412,0.6412,0.6412,0.6412,0.6417,0.6417,0.6414,0.6414,0.6412,0.6412,0.6412,0.6464,0.6542,0.6589,0.6617,0.6817,0.7067,0.7244,0.7419,0.7718,0.7892,0.7967,0.8019,0.8047,0.8047,0.8047,0.8074,0.8101,0.8125,0.8184,0.8267,0.8345,0.8342,0.835,0.8465,0.8584,0.8655,0.8706,0.8787,0.8865,0.8923,-0.105,-0.0926,-0.034,-0.0062,0.0,0.0,0.0,0.0,0.0,0.0,0.0,0.0,0.0,0.0,0.0,0.0,0.0,0.0,0.0,0.0,0.0,0.0,0.0,0.0,0.0,0.0,0.0,0.0,0.2206,0.3455,0.4662,0.6079,0.7314,0.7903,0.7903,0.7903,0.7903,0.7903,0.7903,0.7903,0.7903,0.7903,0.7903,0.7903,0.7903,0.79,0.7878,0.7793,0.7731,0.7644,0.7508,0.7416,0.7472,0.7362,0.725,0.7207,0.7108,0.7111,0.7125,0.7111,0.7059,0.704,0.7021,0.6929,0.6861,0.6793,0.6747,0.6679,0.6628,0.6601,0.6534,0.6469,0.6458,0.645,0.6436,0.6412,0.6412,0.642,0.6442,0.6439,0.6425,0.6447,0.6474,0.6423,0.6425,0.6458,0.6536,0.6489,0.6514,0.6589,0.6792,0.697,0.7219,0.7593,0.7817,0.7942,0.8039,0.8118,0.8153,0.816,0.8204,0.8226,0.8279,0.8342,0.8394,0.8459,0.8428,0.8462,0.8632,0.874,0.8723,0.8764,0.8845,0.8899,0.8946,-0.1266,-0.0957,-0.0587,-0.0278,0.0,0.0,0.0,0.0,0.0,0.0,0.0,0.0,0.0,0.0,0.0,0.0,0.0,0.0,0.0,0.0,0.0,0.0,0.0,0.0,0.0,0.0,0.0,0.0,0.1907,0.3164,0.4535,0.5885,0.7101,0.7903,0.7903,0.7903,0.7903,0.7905,0.7908,0.7905,0.7903,0.7903,0.7903,0.7903,0.7903,0.7903,0.7903,0.7867,0.7832,0.7717,0.7679,0.7579,0.7508,0.7473,0.7384,0.7317,0.7242,0.7166,0.7207,0.7155,0.7141,0.7122,0.7076,0.7018,0.695,0.6885,0.6828,0.6793,0.6782,0.676,0.6706,0.6651,0.6588,0.6544,0.6509,0.6466,0.6444,0.6515,0.6528,0.6531,0.6542,0.6561,0.6582,0.6504,0.6442,0.6479,0.6496,0.645,0.6412,0.6489,0.6617,0.6845,0.7045,0.7394,0.7693,0.7842,0.8041,0.8169,0.8218,0.8274,0.8323,0.8381,0.8438,0.8482,0.856,0.8625,0.8612,0.8683,0.8818,0.8845,0.8821,0.8848,0.8896,0.8943,0.9022,-0.1233,-0.0903,-0.0425,-0.0122,0.0,0.0,0.0,0.0,0.0,0.0,0.0,0.0,0.0,0.0,0.0,0.0,0.0,0.0,0.0,0.0,0.0,0.0,0.0,0.0,0.0,0.0,0.0,0.0,0.1399,0.2866,0.4336,0.505,0.682,0.7903,0.7903,0.7903,0.7946,0.7984,0.8003,0.7968,0.7922,0.7903,0.7903,0.7903,0.7903,0.7903,0.7903,0.79,0.7883,0.7818,0.775,0.772,0.7674,0.7608,0.7479,0.7551,0.7429,0.7332,0.724,0.7221,0.7218,0.7207,0.7166,0.7141,0.7095,0.7057,0.6956,0.691,0.6907,0.6883,0.6825,0.6755,0.671,0.6672,0.6649,0.6638,0.6593,0.6643,0.6679,0.6655,0.6661,0.6691,0.668,0.6566,0.6525,0.6572,0.6558,0.6493,0.6444,0.6437,0.6592,0.6795,0.6995,0.7194,0.7494,0.7724,0.7973,0.8123,0.8287,0.8338,0.8464,0.8536,0.8577,0.8655,0.873,0.8764,0.8808,0.8835,0.8875,0.8896,0.8909,0.8946,0.9015,0.9107,0.9196,-0.1135,-0.0845,-0.0327,-0.009,0.0,0.0,0.0,0.0,0.0,0.0,0.0,0.0,0.0,0.0,0.0,0.0,0.0,0.0,0.0,0.0,0.0,0.0,0.0,0.0,0.0,0.0,0.0,0.0,0.0,0.239,0.3939,0.406,0.6677,0.7717,0.7903,0.7911,0.7949,0.8061,0.8072,0.8031,0.7968,0.7916,0.7905,0.7903,0.7903,0.7903,0.7903,0.7903,0.79,0.7881,0.7829,0.7818,0.7834,0.7752,0.7646,0.7657,0.7578,0.7467,0.7354,0.7275,0.7234,0.7218,0.7215,0.7193,0.7199,0.7207,0.7188,0.7057,0.7057,0.7005,0.6912,0.6877,0.6847,0.6834,0.6804,0.6806,0.6804,0.6785,0.6793,0.6812,0.6831,0.6874,0.6823,0.6645,0.6612,0.669,0.6654,0.6544,0.6479,0.6425,0.6495,0.6703,0.6905,0.7063,0.7276,0.7566,0.7843,0.8142,0.8282,0.8468,0.8601,0.8689,0.8723,0.8801,0.8852,0.8933,0.8967,0.8926,0.8912,0.8923,0.895,0.9049,0.9138,0.9213,0.9322,-0.0928,-0.0874,-0.0582,-0.0265,0.0,0.0,0.0,0.0,0.0,0.0,0.0,0.0,0.0,0.0,0.0,0.0,0.0,0.0,0.0,0.0,0.0,0.0,0.0,0.0,0.0,0.0,0.0,0.0,0.0,0.2623,0.3639,0.4306,0.6646,0.7566,0.7933,0.7979,0.8003,0.8088,0.8102,0.8085,0.802,0.796,0.7903,0.7903,0.7903,0.7903,0.7903,0.7903,0.7903,0.7903,0.7878,0.7867,0.7881,0.7851,0.7804,0.7728,0.7712,0.7616,0.751,0.7385,0.7294,0.7262,0.7253,0.721,0.721,0.721,0.7196,0.7182,0.7166,0.7172,0.7103,0.7076,0.7007,0.6983,0.6956,0.6899,0.6891,0.6896,0.6909,0.6953,0.6988,0.7021,0.7027,0.6861,0.6787,0.6834,0.6671,0.6558,0.649,0.6439,0.6431,0.6578,0.6814,0.6981,0.709,0.7392,0.7845,0.8187,0.8408,0.8619,0.8804,0.8862,0.8845,0.8879,0.8916,0.9022,0.9089,0.9079,0.9055,0.8977,0.9032,0.9157,0.9289,0.9398,0.9483,-0.0785,-0.0561,-0.0284,-0.0115,0.0,0.0,0.0,0.0,0.0,0.0,0.0,0.0,0.0,0.0,0.0,0.0,0.0,0.0,0.0,0.0,0.0,0.0,0.0,0.0,0.0,0.0,0.0,0.0,0.0,0.0,0.3658,0.4778,0.6728,0.7626,0.8009,0.8115,0.8156,0.8102,0.8132,0.8108,0.7973,0.7941,0.7903,0.7903,0.7903,0.7903,0.7903,0.7903,0.7903,0.7903,0.7903,0.7903,0.7903,0.7903,0.7875,0.7801,0.7826,0.7796,0.7698,0.7554,0.7392,0.7289,0.7259,0.7221,0.7209,0.719,0.7213,0.721,0.7213,0.721,0.7196,0.7141,0.7144,0.7133,0.7076,0.7032,0.7013,0.6997,0.7007,0.7054,0.7084,0.7141,0.7141,0.7122,0.704,0.6991,0.6768,0.6577,0.6517,0.6482,0.6488,0.6517,0.6753,0.6958,0.7073,0.7448,0.7865,0.8184,0.8487,0.8695,0.8881,0.8902,0.8896,0.8933,0.8997,0.9113,0.9203,0.9198,0.9195,0.9174,0.9228,0.9327,0.9462,0.9595,0.9649,-0.0701,-0.0392,-0.0112,0.0,0.0,0.0,0.0,0.0,0.0,0.0,0.0,0.0,0.0,0.0,0.0,0.0,0.0,0.0,0.0,0.0,0.0,0.0,0.0,0.0,0.0,0.0,0.0,0.0,0.0,0.0,0.4049,0.5206,0.6692,0.7748,0.8122,0.8244,0.8258,0.8162,0.8134,0.8119,0.7971,0.7922,0.7903,0.7903,0.7903,0.7903,0.7903,0.7903,0.7903,0.7903,0.7903,0.7903,0.7903,0.7903,0.7903,0.7903,0.7903,0.7903,0.7848,0.7698,0.7492,0.7387,0.7342,0.7316,0.7289,0.7261,0.7256,0.7217,0.7218,0.7213,0.7215,0.7199,0.7193,0.7174,0.7177,0.7119,0.7125,0.7119,0.7161,0.7185,0.7196,0.7191,0.7185,0.7172,0.7092,0.7043,0.6912,0.6733,0.658,0.6561,0.6577,0.6643,0.6732,0.6934,0.7107,0.746,0.7783,0.8079,0.8401,0.8728,0.8877,0.8912,0.9014,0.9144,0.9201,0.9264,0.9328,0.9381,0.9384,0.9364,0.9425,0.9486,0.9602,0.972,0.9721,-0.0701,-0.0392,-0.0112,0.0,0.0,0.0,0.0,0.0,0.0,0.0,0.0,0.0,0.0,0.0,0.0,0.0,0.0,0.0,0.0,0.0,0.0,0.0,0.0,0.0,0.0,0.0,0.0,0.0586,0.1788,0.317,0.4439,0.5758,0.7081,0.8002,0.8209,0.8202,0.8174,0.811,0.811,0.8083,0.8047,0.7957,0.7908,0.7903,0.7903,0.7903,0.7903,0.7903,0.7903,0.7903,0.7903,0.7903,0.7903,0.7903,0.7903,0.7903,0.7903,0.7903,0.7889,0.7785,0.7644,0.7503,0.7462,0.7445,0.743,0.7381,0.7334,0.73,0.7247,0.7212,0.7193,0.7213,0.7213,0.7204,0.7207,0.7229,0.7234,0.7226,0.7234,0.7239,0.7209,0.7213,0.721,0.7193,0.7144,0.707,0.7002,0.688,0.6709,0.6671,0.6666,0.6757,0.6815,0.6941,0.7159,0.7399,0.7686,0.7977,0.8294,0.8631,0.8917,0.9048,0.9146,0.9306,0.9396,0.942,0.949,0.9595,0.9568,0.9544,0.9571,0.9635,0.9751,0.9781,0.9788,-0.0392,-0.014,-0.0028,0.0,0.0,0.0,0.0,0.0,0.0,0.0,0.0,0.0,0.0,0.0,0.0,0.0,0.0,0.0,0.0,0.0,0.0,0.0,0.0,0.0,0.0,0.0,0.0,0.071,0.1973,0.3293,0.4646,0.6011,0.7355,0.8009,0.8141,0.8176,0.8204,0.8166,0.8143,0.8083,0.81,0.7971,0.7903,0.7903,0.7903,0.7903,0.7903,0.7903,0.7903,0.7903,0.7903,0.7903,0.7903,0.7903,0.7903,0.7903,0.7903,0.7903,0.7897,0.7845,0.7763,0.7665,0.7584,0.7548,0.7484,0.7489,0.7433,0.7405,0.7316,0.729,0.7279,0.7223,0.7212,0.7241,0.7266,0.7335,0.7346,0.7298,0.729,0.7265,0.7277,0.7234,0.7232,0.7215,0.7172,0.7139,0.7076,0.6948,0.679,0.6774,0.679,0.6869,0.6967,0.7037,0.7196,0.7384,0.7566,0.7797,0.8162,0.8567,0.8807,0.9106,0.9276,0.9395,0.9473,0.9551,0.9615,0.9676,0.9713,0.9724,0.9713,0.9713,0.9751,0.9785,0.9788,-0.0252,0.0,0.0,0.0,0.0,0.0,0.0,0.0,0.0,0.0,0.0,0.0,0.0,0.0,0.0,0.0,0.0,0.0,0.0,0.0,0.0,0.0,0.0,0.0,0.0,0.0,0.0,0.0833,0.271,0.3507,0.4971,0.66,0.7593,0.7933,0.8072,0.8089,0.8133,0.8076,0.8031,0.8006,0.799,0.7943,0.7903,0.7903,0.7903,0.7903,0.7903,0.7903,0.7903,0.7903,0.7903,0.7903,0.7903,0.7903,0.7903,0.7903,0.7903,0.7903,0.79,0.7897,0.7848,0.7769,0.7679,0.7646,0.7627,0.7611,0.7592,0.7519,0.7433,0.7392,0.7351,0.7285,0.7293,0.7324,0.7346,0.7415,0.7432,0.7413,0.7343,0.7346,0.73,0.726,0.722,0.7226,0.7199,0.7174,0.7119,0.7013,0.6899,0.6902,0.6896,0.695,0.7048,0.7106,0.7199,0.7279,0.746,0.7637,0.8027,0.8476,0.8902,0.9224,0.9351,0.9486,0.9598,0.968,0.967,0.971,0.9734,0.9754,0.9761,0.9768,0.9788,0.9788,0.9788,-0.0224,0.0,0.0,0.0,0.0,0.0,0.0,0.0,0.0,0.0,0.0,0.0,0.0,0.0,0.0,0.0,0.0,0.0,0.0,0.0,0.0,0.0,0.0,0.0,0.0,0.0,0.0432,0.1572,0.363,0.4642,0.597,0.7207,0.7798,0.7952,0.7976,0.8009,0.8013,0.8014,0.7965,0.796,0.7965,0.7924,0.7905,0.7903,0.7903,0.7903,0.7903,0.7903,0.7903,0.7903,0.7903,0.7903,0.7903,0.7903,0.7903,0.7903,0.7903,0.7903,0.7903,0.7903,0.79,0.787,0.7872,0.7886,0.7851,0.7744,0.7714,0.7657,0.7546,0.7516,0.7476,0.7452,0.743,0.7454,0.7465,0.7521,0.7543,0.7521,0.7441,0.74,0.7335,0.7296,0.7248,0.7215,0.7201,0.7212,0.719,0.7152,0.7054,0.7084,0.707,0.7008,0.71,0.7185,0.7243,0.7265,0.7362,0.7525,0.794,0.8393,0.8861,0.9262,0.9403,0.9546,0.9721,0.9775,0.9748,0.9751,0.9775,0.9788,0.9788,0.9788,0.9788,0.9788,0.9788,-0.0056,0.0,0.0,0.0,0.0,0.0,0.0,0.0,0.0,0.0,0.0,0.0,0.0,0.0,0.0,0.0,0.0,0.0,0.0,0.0,0.0,0.0,0.0,0.0,0.0,0.0,0.1018,0.2156,0.3999,0.5349,0.667,0.778,0.7903,0.7903,0.7916,0.7941,0.7973,0.7982,0.7933,0.7946,0.796,0.7938,0.7919,0.7903,0.7903,0.7903,0.7903,0.7903,0.7903,0.7903,0.7903,0.7903,0.7903,0.7903,0.7903,0.7903,0.7903,0.7903,0.7903,0.7903,0.7903,0.7903,0.7903,0.7903,0.7889,0.7867,0.7809,0.775,0.7668,0.7619,0.7568,0.7554,0.7592,0.7616,0.7622,0.7625,0.7649,0.7657,0.7606,0.7532,0.7467,0.7319,0.7269,0.7234,0.7229,0.7259,0.7239,0.722,0.7195,0.722,0.7201,0.7158,0.7185,0.725,0.725,0.7264,0.731,0.7445,0.7875,0.8323,0.8721,0.9095,0.939,0.9593,0.9741,0.9788,0.9785,0.9788,0.9788,0.9788,0.9788,0.9788,0.9788,0.9788,0.9788,0.0,0.0,0.0,0.0,0.0,0.0,0.0,0.0,0.0,0.0,0.0,0.0,0.0,0.0,0.0,0.0,0.0,0.0,0.0,0.0,0.0,0.0,0.0,0.0,0.0,0.0,0.1356,0.2556,0.4367,0.6394,0.7903,0.7903,0.7903,0.7903,0.7905,0.7916,0.7941,0.7954,0.7952,0.796,0.7954,0.7943,0.7916,0.7903,0.7903,0.7903,0.7905,0.7905,0.7903,0.7903,0.7903,0.7903,0.7903,0.7903,0.7903,0.7903,0.7903,0.7903,0.7903,0.7903,0.7903,0.7903,0.7903,0.7903,0.7903,0.7889,0.7886,0.7862,0.7747,0.7679,0.7671,0.7668,0.7712,0.7782,0.7772,0.7731,0.7758,0.7788,0.7736,0.7663,0.7557,0.7397,0.7308,0.7269,0.7263,0.7347,0.7385,0.7377,0.7305,0.7267,0.7274,0.7236,0.7274,0.7323,0.7315,0.7326,0.7407,0.7559,0.7897,0.8319,0.8656,0.9042,0.9392,0.9603,0.9781,0.9788,0.9788,0.9788,0.9788,0.9788,0.9792,0.9795,0.9795,0.9788,0.9788,0.0,0.0,0.0,0.0,0.0,0.0,0.0,0.0,0.0,0.0,0.0,0.0,0.0,0.0,0.0,0.0,0.0,0.0,0.0,0.0,0.0,0.0,0.0,0.0,0.0,0.0,0.1695,0.3386,0.4766,0.6578,0.7903,0.7903,0.7903,0.7903,0.7903,0.7903,0.7916,0.7919,0.7919,0.7919,0.7913,0.7905,0.7903,0.7903,0.7903,0.7905,0.7916,0.7913,0.7908,0.7913,0.7903,0.7905,0.7903,0.7903,0.7903,0.7903,0.7903,0.7903,0.7903,0.7903,0.7903,0.7903,0.7903,0.7903,0.7903,0.7903,0.7903,0.7886,0.7774,0.7793,0.7791,0.7733,0.775,0.7826,0.7842,0.7837,0.7851,0.7856,0.7815,0.7709,0.7608,0.7468,0.746,0.7432,0.7399,0.7486,0.7491,0.7454,0.7465,0.7408,0.7365,0.7364,0.738,0.7415,0.7387,0.7419,0.7557,0.7751,0.7977,0.8363,0.8742,0.9115,0.942,0.9636,0.9788,0.9788,0.9788,0.9788,0.9788,0.9788,0.9795,0.9832,0.9839,0.9825,0.9802,0.0,0.0,0.0,0.0,0.0,0.0,0.0,0.0,0.0,0.0,0.0,0.0,0.0,0.0,0.0,0.0,0.0,0.0,0.0,0.0,0.0,0.0,0.0,0.0,0.0,0.1695,0.2956,0.4429,0.6333,0.7469,0.7903,0.7903,0.7903,0.7903,0.7903,0.7903,0.7903,0.7903,0.7903,0.7903,0.7903,0.7903,0.7903,0.7903,0.7903,0.7949,0.7954,0.7941,0.7979,0.8012,0.7935,0.7911,0.7903,0.7903,0.7903,0.7903,0.7903,0.7903,0.7903,0.7903,0.7903,0.7903,0.7903,0.7903,0.7903,0.7903,0.7894,0.7875,0.7834,0.787,0.7864,0.7832,0.7785,0.7862,0.7903,0.7903,0.7903,0.7875,0.7848,0.7741,0.7649,0.7622,0.7616,0.76,0.7578,0.7554,0.7527,0.7506,0.7622,0.7584,0.753,0.7524,0.7489,0.7502,0.7479,0.7533,0.7665,0.7722,0.7881,0.8333,0.8818,0.9244,0.9606,0.9697,0.9788,0.9788,0.9788,0.9788,0.9788,0.9788,0.9805,0.9819,0.99,0.994,0.9876,0.0,0.0,0.0,0.0,0.0,0.0,0.0,0.0,0.0,0.0,0.0,0.0,0.0,0.0,0.0,0.0,0.0,0.0,0.0,0.0,0.0,0.0,0.0,0.0,0.0,0.1387,0.3231,0.5073,0.75,0.7903,0.7903,0.7903,0.7903,0.7903,0.7903,0.7903,0.7903,0.7903,0.7903,0.7903,0.7903,0.7903,0.7903,0.7903,0.7916,0.796,0.7949,0.7938,0.7993,0.8042,0.8014,0.7946,0.7924,0.7903,0.7903,0.7903,0.7903,0.7903,0.7903,0.7903,0.7903,0.7903,0.7903,0.7903,0.7903,0.7903,0.7903,0.7886,0.785,0.7883,0.7886,0.7864,0.7862,0.7889,0.79,0.7903,0.7903,0.7892,0.7875,0.7845,0.7744,0.7706,0.7698,0.7679,0.7671,0.7761,0.7684,0.7663,0.7736,0.7755,0.7712,0.7679,0.7638,0.7611,0.7614,0.7679,0.7769,0.7842,0.7859,0.8276,0.879,0.9366,0.9788,0.9808,0.9808,0.9788,0.9788,0.9832,0.9802,0.9788,0.9812,0.9836,0.994,1.0052,1.0028,0.0,0.0,0.0,0.0,0.0,0.0,0.0,0.0,0.0,0.0,0.0,0.0,0.0,0.0,0.0,0.0,0.0,0.0,0.0,0.0,0.0,0.0,0.0,0.0,0.0,0.1848,0.3783,0.5716,0.7839,0.7903,0.7903,0.7903,0.7903,0.7903,0.7903,0.7903,0.7903,0.7903,0.7903,0.7903,0.7903,0.7903,0.7903,0.7903,0.7905,0.7916,0.7933,0.7933,0.7987,0.8028,0.8064,0.8001,0.7952,0.7922,0.7903,0.7903,0.7903,0.7903,0.7903,0.7903,0.7903,0.7903,0.7903,0.7903,0.7903,0.7903,0.7903,0.79,0.7894,0.7894,0.7897,0.7897,0.7897,0.7897,0.79,0.7903,0.7903,0.7903,0.7897,0.7892,0.7859,0.7818,0.7771,0.7752,0.7782,0.7878,0.7903,0.7903,0.7892,0.7864,0.7829,0.7821,0.7804,0.7782,0.7731,0.7761,0.7867,0.7875,0.7944,0.8324,0.876,0.9366,0.9778,0.9849,0.9842,0.9863,0.9896,0.9978,0.9927,0.9849,0.993,1.0001,1.0052,1.0147,1.0191,0.0,0.0,0.0,0.0,0.0,0.0,0.0,0.0,0.0,0.0,0.0,0.0,0.0,0.0,0.0,0.0,0.0,0.0,0.0,0.0,0.0,0.0,0.0,0.0,0.0,0.3108,0.5073,0.71,0.7903,0.7903,0.7903,0.7903,0.7903,0.7903,0.7903,0.7903,0.7903,0.7903,0.7903,0.7903,0.7903,0.7903,0.7903,0.7903,0.7903,0.7997,0.8057,0.7959,0.8035,0.8073,0.8066,0.8014,0.7973,0.7941,0.7911,0.7903,0.7903,0.7903,0.7903,0.7903,0.7903,0.7903,0.7903,0.7903,0.7903,0.7903,0.7903,0.7903,0.79,0.79,0.79,0.79,0.79,0.79,0.7903,0.7903,0.7903,0.7903,0.79,0.7897,0.7889,0.787,0.7867,0.7856,0.7859,0.7903,0.7903,0.7903,0.7903,0.7903,0.7903,0.7903,0.7903,0.79,0.7867,0.7848,0.7889,0.7897,0.8025,0.8424,0.8851,0.9396,0.9727,0.9859,0.9964,1.0008,1.0042,1.0097,1.008,1.0059,1.0158,1.0229,1.0256,1.029,1.0344]},{"header":{"parameterUnit":"m.s-1","parameterCategory":1,"la1":31.0,"la2":29.5877,"lo1":-88.7671,"lo2":-86.6584,"dy":0.0162,"dx":0.0185,"nx":115,"ny":88,"refTime":"2023-03-18T12:00:00:Z","depth":0,"parameterNumber":3,"parameterNumberName":"V-component_of_WINDS"},"data":[0.0,0.0,0.0,0.0,0.0,0.0,0.0,0.0,0.0,0.0,0.0,0.0,0.0,0.0,0.0,0.0,0.0,0.0,0.0,0.0,0.0,0.0,0.0,0.0,0.0,0.0,0.0,0.0,0.0,0.0,0.0,0.0,0.0,0.0,0.0,0.0,0.0,0.0,0.0,0.0,0.0,0.0,0.0,0.0,0.0,0.0,0.0,0.0,0.0,0.0,0.0,0.0,0.0,0.0,0.0,0.0,0.0,0.0,0.0,0.0,0.0,0.0,0.0,0.0,0.0,0.0,0.0,0.0,0.0,0.0,0.0,0.0,0.0,0.0,0.0,0.0,0.0,0.0,0.0,0.0,0.0,0.0,0.0,0.0,0.0,0.0,0.0,0.0,0.0,0.0,0.0,0.0,0.0,0.0,0.0,0.0,0.0,0.0,0.0,0.0,0.0,0.0,0.0,0.0,0.0,0.0,0.0,0.0,0.0,0.0,0.0,0.0,0.0,0.0,0.0,0.0,0.0,0.0,0.0,0.0,0.0,0.0,0.0,0.0,0.0,0.0,0.0,0.0,0.0,0.0,0.0,0.0,0.0,0.0,0.0,0.0,0.0,0.0,0.0,0.0,0.0,0.0,0.0,0.0,0.0,0.0,0.0,0.0,0.0,0.0,0.0,0.0,0.0,0.0,0.0,0.0,0.0,0.0,0.0,0.0,0.0,0.0,0.0,0.0,0.0,0.0,0.0,0.0,0.0,0.0,0.0,0.0,0.0,0.0,0.0,0.0,0.0,0.0,0.0,0.0,0.0,0.0,0.0,0.0,0.0,0.0,0.0,0.0,0.0,0.0,0.0,0.0,0.0,0.0,0.0,0.0,0.0,0.0,0.0,0.0,0.0,0.0,0.0,0.0,0.0,0.0,0.0,0.0,0.0,0.0,0.0,0.0,0.0,0.0,0.0,0.0,0.0,0.0,0.0,0.0,0.0,0.0,0.0,0.0,0.0,0.0,0.0,0.0,0.0,0.0,0.0,0.0,0.0,0.0,0.0,0.0,0.0,0.0,0.0,0.0,0.0,0.0,0.0,0.0,0.0,0.0,0.0,0.0,0.0,0.0,0.0,0.0,0.0,0.0,0.0,0.0,0.0,0.0,0.0,0.0,0.0,0.0,0.0,0.0,0.0,0.0,0.0,0.0,0.0,0.0,0.0,0.0,0.0,0.0,0.0,0.0,0.0,0.0,0.0,0.0,0.0,0.0,0.0,0.0,0.0,0.0,0.0,0.0,0.0,0.0,0.0,0.0,0.0,0.0,0.0,0.0,0.0,0.0,0.0,0.0,0.0,0.0,0.0,0.0,0.0,0.0,0.0,0.0,0.0,0.0,0.0,0.0,0.0,0.0,0.0,0.0,0.0,0.0,0.0,0.0,0.0,0.0,0.0,0.0,0.0,0.0,0.0,0.0,0.0,0.0,0.0,0.0,0.0,0.0,0.0,0.0,0.0,0.0,0.0,0.0,0.0,0.0,0.0,0.0,0.0,0.0,0.0,0.0,0.0,0.0,0.0,0.0,0.0,0.0,0.0,0.0,0.0,0.0,0.0,0.0,0.0,0.0,0.0,0.0,0.0,0.0,0.0,0.0,0.0,0.0,0.0,0.0,0.0,0.0,0.0,0.0,0.0,0.0,0.0,0.0,0.0,0.0,0.0,0.0,0.0,0.0,0.0,0.0,0.0,0.0,0.0,0.0,0.0,0.0,0.0,0.0,0.0,0.0,0.0,0.0,0.0,0.0,0.0,0.0,0.0,0.0,0.0,0.0,0.0,0.0,0.0,0.0,0.0,0.0,0.0,0.0,0.0,0.0,0.0,0.0,0.0,0.0,0.0,0.0,0.0,0.0,0.0,0.0,0.0,0.0,0.0,0.0,0.0,0.0,0.0,0.0,0.0,0.0,0.0,0.0,0.0,0.0,0.0,0.0,0.0,0.0,0.0,0.0,0.0,0.0,0.0,0.0,0.0,0.0,0.0,0.0,0.0,0.0,0.0,0.0,0.0,0.0,0.0,0.0,0.0,0.0,0.0,0.0,0.0,0.0,0.0,0.0,0.0,0.0,0.0,0.0,0.0,0.0,0.0,0.0,0.0,0.0,0.0,0.0,0.0,0.0,0.0,0.0,0.0,0.0,0.0,0.0,0.0,0.0,0.0,0.0,0.0,0.0,0.0,0.0,0.0,0.0,0.0,0.0,0.0,0.0,0.0,0.0,0.0,0.0,0.0,0.0,0.0,0.0,0.0,0.0,0.0,0.0,0.0,0.0,0.0,0.0,0.0,0.0,0.0,0.0,0.0,0.0,0.0,0.0,0.0,0.0,0.0,0.0,0.0,0.0,0.0,0.0,0.0,0.0,0.0,0.0,0.0,0.0,0.0,0.0,0.0,0.0,0.0,0.0,0.0,0.0,0.0,0.0,0.0,0.0,0.0,0.0,0.0,0.0,0.0,0.0,0.0,0.0,0.0,0.0,0.0,0.0,0.0,0.0,0.0,0.0,0.0,0.0,0.0,0.0,0.0,0.0,0.0,0.0,0.0,0.0,0.0,0.0,0.0,0.0,0.0,0.0,0.0,0.0,0.0,0.0,0.0,0.0,0.0,0.0,0.0,0.0,0.0,0.0,0.0,0.0,0.0,0.0,0.0,0.0,0.0,0.0,0.0,0.0,0.0,0.0,0.0,0.0,0.0,0.0,0.0,0.0,0.0,0.0,0.0,0.0,0.0,0.0,0.0,0.0,0.0,0.0,0.0,0.0,0.0,0.0,0.0,0.0,0.0,0.0,0.0,0.0,0.0,0.0,0.0,0.0,0.0,0.0,0.0,0.0,0.0,0.0,0.0,0.0,0.0,0.0,0.0,0.0,0.0,0.0,0.0,0.0,0.0,0.0,0.0,0.0,0.0,0.0,0.0,0.0,0.0,0.0,0.0,0.0,0.0,0.0,0.0,0.0,0.0,0.0,0.0,0.0,0.0,0.0,0.0,0.0,0.0,0.0,0.0,0.0,0.0,0.0,0.0,0.0,0.0,0.0,0.0,0.0,0.0,0.0,0.0,0.0,0.0,0.0,0.0,0.0,0.0,0.0,0.0,0.0,0.0,0.0,0.0,0.0,0.0,0.0,0.0,0.0,0.0,0.0,0.0,0.0,0.0,0.0,0.0,0.0,0.0,0.0,0.0,0.0,0.0,0.0,0.0,0.0,0.0,0.0,0.0,0.0,0.0,0.0,0.0,0.0,0.0,0.0,0.0,0.0,0.0,0.0,0.0,0.0,0.0,0.0,0.0,0.0,0.0,0.0,0.0,0.0,0.0,0.0,0.0,0.0,0.0,0.0,0.0,0.0,0.0,0.0,0.0,0.0,0.0,0.0,0.0,0.0,0.0,0.0,0.0,0.0,0.0,0.0,0.0,0.0,0.0,0.0,0.0,0.0,0.0,0.0,0.0,0.0,0.0,0.0,0.0,0.0,0.0,0.0,0.0,0.0,0.0,0.0,0.0,0.0,0.0,0.0,0.0,0.0,0.0,0.0,0.0,0.0,0.0,0.0,0.0,0.0,0.0,0.0,0.0,0.0,0.0,0.0,0.0,0.0,0.0,0.0,0.0,0.0,0.0,0.0,0.0,0.0,0.0,0.0,0.0,0.0,0.0,0.0,0.0,0.0,0.0,0.0,0.0,0.0,0.0,0.0,0.0,0.0,0.0,0.0,0.0,0.0,0.0,0.0,0.0,0.0,0.0,0.0,0.0,0.0,0.0,0.0,0.0,0.0,0.0,0.0,0.0,0.0,0.0,0.0,0.0,0.0,0.0,0.0,0.0,0.0,0.0,0.0,0.0,0.0,0.0,0.0,0.0,0.0,0.0,0.0,0.0,0.0,0.0,0.0,0.0,0.0,0.0,0.0,0.0,0.0,0.0,0.0,0.0,0.0,0.0,0.0,0.0,0.0,0.0,0.0,0.0,0.0,0.0,0.0,0.0,0.0,0.0,0.0,0.0,0.0,0.0,0.0,0.0,0.0,0.0,0.0,0.0,0.0,0.0,0.0,0.0,0.0,0.0,0.0,0.0,0.0,0.0,0.0,0.0,0.0,0.0,0.0,0.0,0.0,0.0,0.0,0.0,0.0,0.0,0.0,0.0,0.0,0.0,0.0,0.0,0.0,0.0,0.0,0.0,0.0,0.0,0.0,0.0,0.0,0.0,0.0,0.0,0.0,0.0,0.0,0.0,0.0,0.0,0.0,0.0,0.0,1.9122,0.0,0.0,0.0,0.0,0.0,0.0,0.0,0.0,0.0,0.0,0.0,0.0,0.0,0.0,0.0,0.0,0.0,0.0,0.0,0.0,0.0,0.0,0.0,0.0,0.0,0.0,0.0,0.0,0.0,0.0,0.0,0.0,0.0,0.0,0.0,0.0,0.0,0.0,0.0,0.0,0.0,0.0,0.0,0.0,0.0,0.0,0.0,0.0,0.0,0.0,0.0,0.0,0.0,0.0,0.0,0.0,0.0,0.0,0.0,0.0,0.0,0.0,0.0,0.0,0.0,0.0,0.0,0.0,0.0,0.0,0.0,0.0,0.0,0.0,0.0,0.0,0.0,0.0,0.0,0.0,0.0,0.0,0.0,0.0,0.0,0.0,0.0,0.0,0.0,0.0,0.0,0.0,0.0,0.0,0.0,0.0,0.0,0.0,0.0,0.0,0.0,0.0,0.0,0.0,0.0,0.0,0.0,0.0,0.0,0.0,1.9095,1.9095,1.9095,1.9095,1.9136,0.0,0.0,0.0,0.0,0.0,0.0,0.0,0.0,0.0,0.0,0.0,0.0,0.0,0.0,0.0,0.0,0.0,0.0,0.0,0.0,0.0,0.0,0.0,0.0,0.0,0.0,0.0,0.0,0.0,0.0,0.0,0.0,0.0,0.0,0.0,0.0,0.0,0.0,0.0,0.0,0.0,0.0,0.0,0.0,0.0,0.0,0.0,0.0,0.0,0.0,0.0,0.0,0.0,0.0,0.0,0.0,0.0,0.0,0.0,0.0,0.0,0.0,0.0,0.0,0.0,0.0,0.0,0.0,0.0,0.0,0.0,0.0,0.0,0.0,0.0,0.0,0.0,0.0,0.0,0.0,0.0,0.0,0.0,0.0,0.0,0.0,0.0,0.0,0.0,0.0,0.0,0.0,0.0,0.0,0.0,0.0,0.0,0.0,0.0,0.0,0.0,0.0,0.0,0.0,0.0,0.0,0.0,0.0,0.0,0.0,0.0,0.0,1.9449,1.9553,1.9932,0.0,0.0,0.0,0.0,0.0,0.0,0.0,0.0,0.0,0.0,0.0,0.0,0.0,0.0,0.0,0.0,0.0,0.0,0.0,0.0,0.0,0.0,0.0,0.0,0.0,0.0,0.0,0.0,0.0,0.0,0.0,0.0,0.0,0.0,0.0,0.0,0.0,0.0,0.0,0.0,0.0,0.0,0.0,0.0,0.0,0.0,0.0,0.0,0.0,0.0,0.0,0.0,0.0,0.0,0.0,0.0,0.0,0.0,0.0,0.0,0.0,0.0,0.0,0.0,0.0,0.0,0.0,0.0,0.0,0.0,0.0,0.0,0.0,0.0,0.0,0.0,0.0,0.0,0.0,0.0,0.0,0.0,0.0,0.0,0.0,0.0,0.0,0.0,0.0,0.0,0.0,0.0,0.0,0.0,0.0,0.0,0.0,0.0,0.0,0.0,0.0,0.0,0.0,0.0,0.0,0.0,0.0,0.0,0.0,0.0,1.9793,2.1219,2.0554,0.0,2.2229,0.0,0.0,0.0,0.0,0.0,0.0,0.0,0.0,0.0,0.0,0.0,0.0,0.0,0.0,0.0,0.0,0.0,0.0,0.0,0.0,0.0,0.0,0.0,0.0,0.0,0.0,0.0,0.0,0.0,0.0,0.0,0.0,0.0,0.0,0.0,0.0,0.0,0.0,0.0,0.0,0.0,0.0,0.0,0.0,0.0,0.0,0.0,0.0,0.0,0.0,0.0,0.0,0.0,0.0,0.0,0.0,0.0,0.0,0.0,0.0,0.0,0.0,0.0,0.0,0.0,0.0,0.0,0.0,0.0,0.0,0.0,0.0,0.0,0.0,0.0,0.0,0.0,0.0,0.0,0.0,0.0,0.0,0.0,0.0,0.0,0.0,0.0,0.0,0.0,0.0,0.0,0.0,0.0,0.0,0.0,0.0,0.0,0.0,0.0,0.0,0.0,0.0,0.0,0.0,0.0,0.0,0.0,0.0,0.0,0.0,1.963,2.0771,2.0463,2.0839,0.0,0.0,0.0,0.0,0.0,0.0,0.0,0.0,0.0,0.0,0.0,0.0,0.0,0.0,0.0,0.0,0.0,0.0,0.0,0.0,0.0,0.0,0.0,0.0,0.0,0.0,0.0,0.0,0.0,0.0,0.0,0.0,0.0,0.0,0.0,0.0,0.0,0.0,0.0,0.0,0.0,0.0,0.0,0.0,0.0,0.0,0.0,0.0,0.0,0.0,0.0,0.0,0.0,0.0,0.0,0.0,0.0,0.0,0.0,0.0,0.0,0.0,0.0,0.0,0.0,0.0,0.0,0.0,0.0,0.0,0.0,0.0,0.0,0.0,0.0,0.0,0.0,0.0,0.0,0.0,0.0,0.0,0.0,0.0,0.0,0.0,0.0,0.0,0.0,0.0,0.0,0.0,0.0,0.0,0.0,0.0,0.0,0.0,0.0,0.0,0.0,0.0,0.0,0.0,0.0,0.0,0.0,0.0,0.0,0.0,1.9596,1.9811,2.0554,2.0413,2.0762,2.1798,0.0,0.0,0.0,0.0,0.0,0.0,0.0,0.0,0.0,0.0,0.0,0.0,0.0,0.0,0.0,0.0,0.0,0.0,0.0,0.0,0.0,0.0,0.0,0.0,0.0,0.0,0.0,0.0,0.0,0.0,0.0,0.0,0.0,0.0,0.0,0.0,0.0,0.0,0.0,0.0,0.0,0.0,0.0,0.0,0.0,0.0,0.0,0.0,0.0,0.0,0.0,0.0,0.0,0.0,0.0,0.0,0.0,0.0,0.0,0.0,0.0,0.0,0.0,0.0,0.0,0.0,0.0,0.0,0.0,0.0,0.0,0.0,0.0,0.0,0.0,0.0,0.0,0.0,0.0,0.0,0.0,0.0,0.0,0.0,0.0,0.0,0.0,0.0,0.0,0.0,0.0,0.0,0.0,0.0,0.0,0.0,0.0,0.0,0.0,0.0,0.0,0.0,0.0,0.0,0.0,0.0,0.0,0.0,2.2309,2.0997,2.0626,2.1364,2.0699,2.1038,0.0,0.0,0.0,0.0,0.0,0.0,0.0,0.0,0.0,0.0,0.0,0.0,0.0,0.0,0.0,0.0,0.0,0.0,0.0,0.0,0.0,0.0,0.0,0.0,0.0,0.0,0.0,0.0,0.0,0.0,0.0,0.0,0.0,0.0,0.0,0.0,0.0,0.0,0.0,0.0,0.0,0.0,0.0,0.0,0.0,0.0,0.0,0.0,0.0,0.0,0.0,0.0,0.0,0.0,0.0,0.0,0.0,0.0,0.0,0.0,0.0,0.0,0.0,0.0,0.0,0.0,0.0,0.0,0.0,0.0,0.0,0.0,0.0,0.0,0.0,0.0,0.0,0.0,0.0,0.0,0.0,0.0,0.0,0.0,0.0,0.0,0.0,0.0,0.0,0.0,0.0,0.0,0.0,0.0,0.0,0.0,0.0,0.0,0.0,0.0,0.0,0.0,0.0,0.0,0.0,0.0,0.0,0.0,0.0,2.0336,2.0314,2.0445,2.0694,2.0445,2.1056,0.0,0.0,0.0,0.0,0.0,0.0,0.0,0.0,0.0,0.0,0.0,0.0,0.0,0.0,0.0,0.0,0.0,0.0,0.0,0.0,0.0,0.0,0.0,0.0,0.0,0.0,0.0,0.0,0.0,0.0,0.0,0.0,0.0,0.0,0.0,0.0,0.0,0.0,0.0,0.0,0.0,0.0,0.0,0.0,0.0,0.0,0.0,0.0,0.0,0.0,0.0,0.0,0.0,0.0,0.0,0.0,0.0,0.0,0.0,0.0,0.0,0.0,0.0,0.0,0.0,0.0,0.0,0.0,0.0,0.0,0.0,0.0,0.0,0.0,0.0,0.0,0.0,0.0,0.0,0.0,0.0,0.0,0.0,0.0,0.0,0.0,0.0,0.0,0.0,0.0,0.0,0.0,0.0,0.0,0.0,0.0,0.0,0.0,0.0,0.0,0.0,0.0,0.0,0.0,0.0,0.0,0.0,0.0,0.0,1.9888,0.0,2.0966,2.0694,2.0934,2.1477,0.0,0.0,0.0,0.0,0.0,0.0,0.0,0.0,0.0,0.0,0.0,0.0,0.0,0.0,0.0,0.0,0.0,0.0,0.0,0.0,0.0,0.0,0.0,0.0,0.0,0.0,0.0,0.0,0.0,0.0,0.0,0.0,0.0,0.0,0.0,0.0,0.0,0.0,0.0,0.0,0.0,0.0,0.0,0.0,0.0,0.0,0.0,0.0,0.0,0.0,0.0,0.0,0.0,0.0,0.0,0.0,0.0,0.0,0.0,0.0,0.0,0.0,0.0,0.0,0.0,0.0,0.0,0.0,0.0,0.0,0.0,0.0,0.0,0.0,0.0,0.0,0.0,0.0,0.0,0.0,0.0,0.0,0.0,0.0,0.0,0.0,0.0,0.0,0.0,0.0,0.0,0.0,0.0,0.0,0.0,0.0,0.0,0.0,0.0,0.0,0.0,0.0,0.0,0.0,0.0,0.0,0.0,0.0,1.9884,2.1364,2.2179,2.2238,2.1586,2.2215,2.2305,0.0,0.0,0.0,0.0,0.0,0.0,0.0,0.0,0.0,0.0,0.0,0.0,0.0,0.0,0.0,0.0,0.0,0.0,0.0,0.0,0.0,0.0,0.0,0.0,0.0,0.0,0.0,0.0,0.0,0.0,0.0,0.0,0.0,0.0,0.0,0.0,0.0,0.0,0.0,0.0,0.0,0.0,0.0,0.0,0.0,0.0,0.0,0.0,0.0,0.0,0.0,0.0,0.0,0.0,0.0,0.0,0.0,0.0,0.0,0.0,0.0,0.0,0.0,0.0,0.0,0.0,0.0,0.0,0.0,0.0,0.0,0.0,0.0,0.0,0.0,0.0,0.0,0.0,0.0,0.0,0.0,0.0,0.0,0.0,0.0,0.0,0.0,0.0,0.0,0.0,0.0,0.0,0.0,0.0,0.0,0.0,0.0,0.0,0.0,0.0,0.0,0.0,0.0,0.0,0.0,0.0,0.0,0.0,0.0,1.9884,2.1188,2.2294,2.3156,2.2335,2.2803,0.0,0.0,0.0,0.0,0.0,0.0,0.0,0.0,0.0,0.0,0.0,0.0,0.0,0.0,0.0,0.0,0.0,0.0,0.0,0.0,0.0,0.0,0.0,0.0,0.0,0.0,0.0,0.0,0.0,0.0,0.0,0.0,0.0,0.0,0.0,0.0,0.0,0.0,0.0,0.0,0.0,0.0,0.0,0.0,0.0,0.0,0.0,0.0,0.0,0.0,0.0,0.0,0.0,0.0,0.0,0.0,0.0,0.0,0.0,0.0,0.0,0.0,0.0,0.0,0.0,0.0,0.0,0.0,0.0,0.0,0.0,0.0,0.0,0.0,0.0,0.0,0.0,0.0,0.0,0.0,0.0,0.0,0.0,0.0,0.0,0.0,0.0,0.0,0.0,0.0,0.0,0.0,0.0,0.0,0.0,0.0,0.0,0.0,0.0,0.0,0.0,0.0,0.0,0.0,0.0,0.0,0.0,0.0,0.0,2.1821,2.2432,2.3314,2.4364,2.335,2.3469,2.4904,0.0,0.0,0.0,0.0,0.0,0.0,0.0,0.0,0.0,0.0,0.0,0.0,0.0,0.0,0.0,0.0,0.0,0.0,0.0,0.0,0.0,0.0,0.0,0.0,0.0,0.0,0.0,0.0,0.0,0.0,0.0,0.0,0.0,0.0,0.0,0.0,0.0,0.0,0.0,0.0,0.0,0.0,0.0,0.0,0.0,0.0,0.0,0.0,0.0,0.0,0.0,0.0,0.0,0.0,0.0,0.0,0.0,0.0,0.0,0.0,0.0,0.0,0.0,0.0,0.0,0.0,0.0,0.0,0.0,0.0,0.0,0.0,0.0,0.0,0.0,0.0,0.0,0.0,0.0,0.0,0.0,0.0,0.0,0.0,0.0,0.0,0.0,0.0,0.0,0.0,0.0,0.0,0.0,0.0,0.0,0.0,0.0,0.0,0.0,0.0,0.0,0.0,0.0,0.0,0.0,0.0,0.0,0.0,2.6391,2.5805,2.5461,2.5394,2.5231,2.4442,0.0,0.0,0.0,0.0,0.0,0.0,0.0,0.0,0.0,0.0,0.0,0.0,0.0,0.0,0.0,0.0,0.0,0.0,0.0,0.0,0.0,0.0,0.0,0.0,0.0,0.0,0.0,0.0,0.0,0.0,0.0,0.0,0.0,0.0,0.0,0.0,0.0,0.0,0.0,0.0,0.0,0.0,0.0,0.0,0.0,0.0,0.0,0.0,0.0,0.0,0.0,0.0,0.0,0.0,0.0,0.0,0.0,0.0,0.0,0.0,0.0,0.0,0.0,0.0,0.0,0.0,0.0,0.0,0.0,0.0,0.0,0.0,0.0,0.0,0.0,0.0,0.0,0.0,0.0,0.0,0.0,0.0,0.0,0.0,0.0,0.0,0.0,0.0,0.0,0.0,0.0,0.0,0.0,0.0,0.0,0.0,0.0,0.0,0.0,0.0,0.0,0.0,0.0,0.0,0.0,0.0,0.0,0.0,0.0,2.8937,3.044,3.0667,2.9511,2.7737,2.6637,0.0,0.0,0.0,0.0,0.0,0.0,0.0,0.0,0.0,0.0,0.0,0.0,0.0,0.0,0.0,0.0,0.0,0.0,0.0,0.0,0.0,0.0,0.0,0.0,0.0,0.0,0.0,0.0,0.0,0.0,0.0,0.0,0.0,0.0,0.0,0.0,0.0,0.0,0.0,0.0,0.0,0.0,0.0,0.0,0.0,0.0,0.0,0.0,0.0,0.0,0.0,0.0,0.0,0.0,0.0,0.0,0.0,0.0,0.0,0.0,0.0,0.0,0.0,0.0,0.0,0.0,0.0,0.0,0.0,0.0,0.0,0.0,0.0,0.0,0.0,0.0,0.0,0.0,0.0,0.0,0.0,0.0,0.0,0.0,0.0,0.0,0.0,0.0,0.0,0.0,0.0,0.0,0.0,0.0,0.0,0.0,0.0,0.0,0.0,0.0,0.0,0.0,0.0,0.0,0.0,0.0,0.0,0.0,2.9494,3.1964,3.4652,3.5448,3.4218,3.1735,2.9351,0.0,0.0,0.0,0.0,0.0,0.0,0.0,0.0,0.0,0.0,0.0,0.0,0.0,0.0,0.0,0.0,0.0,0.0,0.0,0.0,0.0,0.0,0.0,0.0,0.0,0.0,0.0,0.0,0.0,0.0,0.0,0.0,0.0,0.0,0.0,0.0,0.0,0.0,0.0,0.0,0.0,0.0,0.0,0.0,0.0,0.0,0.0,0.0,0.0,0.0,0.0,0.0,0.0,0.0,0.0,0.0,0.0,0.0,0.0,0.0,0.0,0.0,0.0,0.0,0.0,0.0,0.0,0.0,0.0,0.0,0.0,0.0,0.0,0.0,0.0,0.0,0.0,0.0,0.0,0.0,0.0,0.0,0.0,0.0,0.0,0.0,0.0,0.0,0.0,0.0,0.0,0.0,0.0,0.0,0.0,0.0,0.0,0.0,0.0,0.0,0.0,0.0,0.0,0.0,0.0,0.0,0.0,0.0,3.2443,3.4918,3.8159,3.9473,3.8625,3.5973,3.1976,0.0,0.0,0.0,0.0,0.0,0.0,0.0,0.0,0.0,0.0,0.0,0.0,0.0,0.0,0.0,0.0,0.0,0.0,0.0,0.0,0.0,0.0,0.0,0.0,0.0,0.0,0.0,0.0,0.0,0.0,0.0,0.0,0.0,0.0,0.0,0.0,0.0,0.0,0.0,0.0,0.0,0.0,0.0,0.0,0.0,0.0,0.0,0.0,0.0,0.0,0.0,0.0,0.0,0.0,0.0,0.0,0.0,0.0,0.0,0.0,0.0,0.0,0.0,0.0,0.0,0.0,0.0,0.0,0.0,0.0,0.0,0.0,0.0,0.0,0.0,0.0,0.0,0.0,0.0,0.0,0.0,0.0,0.0,0.0,0.0,0.0,0.0,0.0,0.0,0.0,0.0,0.0,0.0,0.0,0.0,0.0,0.0,0.0,0.0,0.0,0.0,0.0,0.0,0.0,0.0,0.0,0.0,0.0,3.3376,3.5959,3.9587,4.1159,4.0439,3.6144,3.2042,0.0,0.0,0.0,0.0,0.0,0.0,0.0,0.0,0.0,0.0,0.0,0.0,0.0,0.0,0.0,0.0,0.0,0.0,0.0,0.0,0.0,0.0,0.0,0.0,0.0,0.0,0.0,0.0,0.0,0.0,0.0,0.0,0.0,0.0,0.0,0.0,0.0,0.0,0.0,0.0,0.0,0.0,0.0,0.0,0.0,0.0,0.0,0.0,2.0727,0.0,0.0,0.0,0.0,0.0,0.0,0.0,0.0,0.0,0.0,0.0,0.0,0.0,0.0,0.0,0.0,0.0,0.0,0.0,0.0,0.0,0.0,0.0,0.0,0.0,0.0,0.0,0.0,0.0,0.0,0.0,0.0,0.0,0.0,0.0,0.0,0.0,0.0,0.0,0.0,0.0,0.0,0.0,0.0,0.0,0.0,0.0,0.0,0.0,0.0,0.0,0.0,0.0,0.0,0.0,0.0,0.0,0.0,0.0,3.4847,3.7415,4.0893,4.2341,4.1494,3.7589,3.3832,0.0,0.0,0.0,0.0,0.0,0.0,0.0,0.0,0.0,0.0,0.0,0.0,0.0,0.0,0.0,0.0,0.0,0.0,0.0,0.0,0.0,0.0,0.0,0.0,0.0,0.0,0.0,0.0,0.0,0.0,0.0,0.0,0.0,0.0,0.0,0.0,0.0,0.0,0.0,0.0,0.0,0.0,0.0,0.0,0.0,0.0,0.0,0.0,0.0,0.0,0.0,0.0,0.0,0.0,0.0,0.0,0.0,0.0,0.0,0.0,0.0,0.0,0.0,0.0,0.0,0.0,0.0,0.0,0.0,0.0,0.0,0.0,0.0,0.0,0.0,0.0,0.0,0.0,0.0,0.0,0.0,0.0,0.0,0.0,0.0,0.0,0.0,0.0,0.0,0.0,0.0,0.0,0.0,0.0,0.0,0.0,0.0,0.0,0.0,0.0,0.0,0.0,0.0,0.0,0.0,0.0,0.0,3.2966,3.6197,3.903,4.1956,4.3121,4.2286,3.9423,3.6241,3.2834,0.0,0.0,0.0,0.0,0.0,0.0,0.0,0.0,0.0,0.0,0.0,0.0,0.0,0.0,0.0,0.0,0.0,0.0,0.0,0.0,0.0,0.0,0.0,0.0,0.0,0.0,0.0,0.0,0.0,0.0,0.0,0.0,0.0,0.0,0.0,0.0,0.0,0.0,1.8672,2.0384,0.0,0.0,0.0,0.0,0.0,0.0,0.0,0.0,2.2499,0.0,0.0,0.0,0.0,0.0,0.0,0.0,0.0,0.0,0.0,0.0,0.0,0.0,0.0,0.0,0.0,0.0,0.0,0.0,0.0,0.0,0.0,0.0,0.0,0.0,0.0,0.0,0.0,0.0,0.0,0.0,0.0,0.0,0.0,0.0,0.0,0.0,0.0,0.0,0.0,0.0,0.0,0.0,0.0,0.0,0.0,0.0,0.0,0.0,0.0,0.0,0.0,0.0,0.0,0.0,0.0,3.1816,3.3291,3.6161,4.0581,4.2533,4.3121,4.2304,4.0431,3.7869,3.4513,0.0,0.0,0.0,0.0,0.0,0.0,0.0,0.0,0.0,0.0,0.0,0.0,0.0,0.0,0.0,0.0,0.0,0.0,0.0,0.0,0.0,0.0,0.0,0.0,0.0,0.0,0.0,0.0,0.0,0.0,0.0,0.0,0.0,0.0,0.0,0.0,0.0,0.0,0.0,2.2183,2.3386,0.0,0.0,0.0,0.0,0.0,0.0,0.0,0.0,2.3663,0.0,0.0,0.0,0.0,0.0,0.0,0.0,0.0,0.0,0.0,0.0,0.0,0.0,0.0,0.0,0.0,0.0,0.0,0.0,0.0,0.0,0.0,0.0,0.0,0.0,0.0,0.0,0.0,0.0,0.0,0.0,0.0,0.0,0.0,0.0,0.0,0.0,0.0,0.0,0.0,0.0,0.0,0.0,0.0,0.0,0.0,0.0,0.0,0.0,0.0,0.0,0.0,0.0,0.0,0.0,3.2335,3.4618,3.7675,4.158,4.2882,4.3304,4.2882,4.0133,3.7644,0.0,0.0,0.0,0.0,0.0,0.0,0.0,0.0,0.0,0.0,0.0,0.0,0.0,0.0,0.0,0.0,0.0,0.0,0.0,0.0,0.0,0.0,0.0,0.0,0.0,0.0,0.0,0.0,0.0,0.0,0.0,0.0,0.0,0.0,0.0,0.0,0.0,0.0,0.0,0.0,2.2842,2.3797,2.4646,0.0,0.0,0.0,0.0,0.0,0.0,2.4406,2.4431,0.0,0.0,0.0,0.0,0.0,0.0,0.0,0.0,0.0,0.0,0.0,0.0,0.0,0.0,0.0,0.0,0.0,0.0,0.0,0.0,0.0,0.0,0.0,0.0,0.0,0.0,0.0,0.0,0.0,0.0,0.0,0.0,0.0,0.0,0.0,0.0,0.0,0.0,0.0,0.0,0.0,0.0,0.0,0.0,0.0,0.0,0.0,0.0,0.0,0.0,0.0,0.0,0.0,0.0,0.0,3.2958,3.5794,3.8982,4.2378,4.3167,4.3433,4.3212,3.9835,3.7312,0.0,0.0,0.0,0.0,0.0,0.0,0.0,0.0,0.0,0.0,0.0,0.0,0.0,0.0,0.0,0.0,0.0,0.0,0.0,0.0,0.0,0.0,0.0,0.0,0.0,0.0,0.0,0.0,0.0,0.0,0.0,0.0,0.0,0.0,0.0,0.0,0.0,0.0,0.0,0.0,0.0,2.4771,2.5445,2.6249,0.0,0.0,0.0,0.0,2.5869,2.6267,0.0,0.0,0.0,0.0,0.0,0.0,0.0,0.0,0.0,0.0,0.0,0.0,0.0,0.0,0.0,0.0,0.0,0.0,0.0,0.0,0.0,0.0,0.0,0.0,0.0,0.0,0.0,0.0,0.0,0.0,0.0,0.0,0.0,0.0,0.0,0.0,0.0,0.0,0.0,0.0,0.0,0.0,0.0,0.0,0.0,0.0,0.0,0.0,0.0,0.0,0.0,0.0,0.0,0.0,0.0,0.0,3.4517,3.5783,3.8632,4.3084,4.3433,4.3157,4.2433,4.0606,3.8207,0.0,0.0,0.0,0.0,0.0,0.0,0.0,0.0,0.0,0.0,0.0,0.0,0.0,0.0,0.0,0.0,0.0,0.0,0.0,0.0,0.0,0.0,0.0,0.0,0.0,0.0,0.0,0.0,0.0,0.0,0.0,0.0,0.0,0.0,0.0,0.0,0.0,0.0,0.0,0.0,0.0,2.7658,2.7205,2.8263,2.8904,0.0,0.0,3.0106,2.978,3.1974,0.0,0.0,0.0,0.0,0.0,0.0,0.0,0.0,0.0,0.0,0.0,0.0,0.0,0.0,0.0,0.0,0.0,0.0,0.0,0.0,0.0,0.0,0.0,0.0,0.0,0.0,0.0,0.0,0.0,0.0,0.0,0.0,0.0,0.0,0.0,0.0,0.0,0.0,0.0,0.0,0.0,0.0,0.0,0.0,0.0,0.0,0.0,0.0,0.0,0.0,0.0,0.0,0.0,0.0,0.0,3.0612,3.4879,3.671,3.9554,4.3322,4.3488,4.3322,4.2974,3.9669,3.7359,0.0,0.0,0.0,0.0,0.0,0.0,0.0,0.0,0.0,0.0,0.0,0.0,0.0,0.0,0.0,0.0,0.0,0.0,0.0,0.0,0.0,0.0,0.0,0.0,0.0,0.0,0.0,0.0,0.0,0.0,0.0,0.0,0.0,0.0,0.0,0.0,0.0,0.0,0.0,0.0,0.0,0.0,2.849,3.0015,0.0,0.0,0.0,3.2074,3.2842,0.0,0.0,0.0,0.0,0.0,0.0,0.0,0.0,0.0,0.0,0.0,0.0,0.0,0.0,0.0,0.0,0.0,0.0,0.0,0.0,0.0,0.0,0.0,0.0,0.0,0.0,0.0,0.0,0.0,0.0,0.0,0.0,0.0,0.0,0.0,0.0,0.0,0.0,0.0,0.0,0.0,0.0,0.0,0.0,0.0,0.0,0.0,0.0,0.0,0.0,0.0,0.0,0.0,0.0,0.0,0.0,0.0,3.5274,3.7565,4.0249,4.3359,4.3488,4.3488,4.3414,3.9192,0.0,0.0,0.0,0.0,0.0,0.0,0.0,0.0,0.0,0.0,0.0,0.0,0.0,0.0,0.0,0.0,0.0,0.0,0.0,0.0,0.0,0.0,0.0,0.0,0.0,0.0,0.0,2.0553,0.0,0.0,0.0,0.0,0.0,0.0,0.0,0.0,0.0,0.0,0.0,0.0,0.0,0.0,3.027,3.0107,3.1983,3.3249,0.0,0.0,3.4042,3.4837,3.4909,3.4534,0.0,0.0,0.0,0.0,0.0,0.0,0.0,0.0,0.0,0.0,0.0,0.0,0.0,0.0,0.0,0.0,0.0,0.0,0.0,0.0,0.0,0.0,0.0,0.0,0.0,0.0,0.0,0.0,0.0,0.0,0.0,0.0,0.0,0.0,0.0,0.0,0.0,0.0,0.0,0.0,0.0,0.0,0.0,0.0,0.0,0.0,0.0,0.0,0.0,0.0,0.0,0.0,0.0,0.0,0.0,3.6101,3.7855,4.0249,4.3359,4.3488,4.3488,4.3433,4.0267,3.8155,0.0,0.0,0.0,0.0,0.0,0.0,0.0,0.0,0.0,0.0,0.0,0.0,0.0,0.0,0.0,0.0,0.0,0.0,0.0,0.0,0.0,0.0,0.0,0.0,0.0,0.0,0.0,0.0,0.0,0.0,0.0,0.0,0.0,0.0,0.0,0.0,0.0,0.0,0.0,0.0,0.0,3.1965,3.2488,3.4384,3.5816,0.0,0.0,3.6569,3.5373,3.8094,3.8647,3.3696,0.0,0.0,0.0,0.0,0.0,0.0,0.0,0.0,0.0,0.0,0.0,0.0,0.0,0.0,0.0,0.0,0.0,0.0,0.0,0.0,0.0,0.0,0.0,0.0,0.0,0.0,0.0,0.0,0.0,0.0,0.0,0.0,0.0,0.0,0.0,0.0,0.0,0.0,0.0,0.0,0.0,0.0,0.0,0.0,0.0,0.0,0.0,0.0,0.0,0.0,0.0,0.0,0.0,3.2668,3.6229,3.7874,4.0249,4.3341,4.3488,4.3488,4.3488,3.989,3.8016,0.0,0.0,0.0,0.0,0.0,0.0,0.0,0.0,0.0,0.0,0.0,0.0,0.0,0.0,0.0,0.0,0.0,0.0,0.0,0.0,0.0,0.0,0.0,0.0,0.0,0.0,0.0,0.0,2.2777,2.3038,2.3951,0.0,0.0,0.0,0.0,0.0,0.0,0.0,0.0,0.0,0.0,3.3925,3.4147,3.6086,0.0,0.0,3.8292,3.8877,3.9319,3.9434,3.8784,3.6689,3.557,0.0,0.0,0.0,0.0,0.0,0.0,0.0,0.0,0.0,0.0,0.0,0.0,0.0,0.0,0.0,0.0,0.0,0.0,0.0,0.0,0.0,0.0,0.0,0.0,0.0,0.0,0.0,0.0,0.0,0.0,0.0,0.0,0.0,0.0,0.0,0.0,0.0,0.0,0.0,0.0,0.0,0.0,0.0,0.0,0.0,0.0,0.0,0.0,0.0,0.0,0.0,0.0,3.3612,3.6622,3.8248,4.0506,4.3433,4.3488,4.3488,4.3396,4.0055,3.8346,0.0,0.0,0.0,0.0,0.0,0.0,0.0,0.0,0.0,0.0,0.0,0.0,0.0,0.0,0.0,0.0,0.0,0.0,0.0,0.0,0.0,0.0,0.0,0.0,0.0,0.0,0.0,0.0,2.4373,2.4796,2.5573,0.0,0.0,0.0,0.0,0.0,0.0,0.0,0.0,0.0,0.0,3.551,3.5748,3.7547,3.8889,3.8922,3.9152,3.9698,4.0819,3.9641,3.837,3.7691,0.0,0.0,0.0,0.0,0.0,0.0,0.0,0.0,0.0,0.0,0.0,0.0,0.0,0.0,0.0,0.0,0.0,0.0,0.0,0.0,0.0,0.0,0.0,0.0,0.0,0.0,0.0,0.0,0.0,0.0,0.0,0.0,0.0,0.0,0.0,0.0,0.0,0.0,0.0,0.0,0.0,0.0,0.0,0.0,0.0,0.0,0.0,0.0,0.0,0.0,0.0,0.0,0.0,3.4952,3.743,3.9027,4.1028,4.3414,4.3488,4.3488,4.3433,4.112,3.9447,3.8554,0.0,0.0,0.0,0.0,0.0,0.0,0.0,0.0,0.0,0.0,0.0,0.0,0.0,0.0,0.0,0.0,0.0,0.0,0.0,0.0,0.0,0.0,0.0,0.0,0.0,0.0,2.4563,2.5901,2.6817,0.0,0.0,0.0,0.0,0.0,0.0,0.0,0.0,0.0,0.0,3.4788,3.6498,3.734,3.8738,3.9692,3.9698,3.9128,3.8686,3.8794,3.8669,3.7847,0.0,0.0,0.0,0.0,0.0,0.0,0.0,0.0,0.0,0.0,0.0,0.0,0.0,0.0,0.0,0.0,0.0,0.0,0.0,0.0,0.0,0.0,0.0,0.0,0.0,0.0,0.0,2.5789,2.6013,0.0,0.0,0.0,0.0,0.0,0.0,0.0,0.0,0.0,0.0,0.0,3.1926,3.3451,0.0,0.0,0.0,0.0,0.0,0.0,0.0,0.0,0.0,0.0,0.0,0.0,3.5018,3.7437,3.9082,4.1065,4.3396,4.3488,4.3488,4.3496,4.1662,3.9554,3.7136,0.0,0.0,0.0,0.0,0.0,0.0,0.0,0.0,0.0,0.0,0.0,0.0,0.0,0.0,0.0,0.0,0.0,0.0,0.0,0.0,0.0,0.0,0.0,0.0,0.0,2.7392,0.0,0.0,0.0,0.0,0.0,0.0,0.0,0.0,0.0,0.0,0.0,3.2949,3.4261,3.5946,3.7533,3.8843,3.991,4.0747,0.0,0.0,0.0,0.0,0.0,0.0,0.0,0.0,0.0,0.0,0.0,0.0,0.0,0.0,3.7668,3.4648,3.4086,3.4086,3.4086,0.0,0.0,0.0,0.0,0.0,0.0,0.0,0.0,0.0,0.0,0.0,0.0,0.0,0.0,0.0,0.0,2.8379,0.0,0.0,0.0,0.0,0.0,0.0,0.0,0.0,3.2792,3.422,3.4997,3.6164,3.6542,0.0,3.6498,3.5549,0.0,0.0,0.0,0.0,0.0,0.0,0.0,0.0,3.6016,3.7889,3.978,4.1644,4.3396,4.3488,4.3488,4.3451,4.1662,3.957,3.7202,3.4902,3.3439,0.0,0.0,0.0,0.0,0.0,0.0,0.0,0.0,0.0,0.0,0.0,0.0,0.0,0.0,0.0,0.0,0.0,0.0,0.0,0.0,0.0,0.0,0.0,2.9128,0.0,0.0,0.0,0.0,0.0,0.0,0.0,0.0,0.0,3.2064,3.3415,3.4978,3.6256,3.7246,3.8459,4.0031,0.0,0.0,0.0,0.0,0.0,0.0,0.0,3.9638,3.9788,3.9684,4.0,4.1304,4.169,4.1746,4.1463,0.0,0.0,3.7266,3.6713,3.6747,3.6921,3.7326,3.7764,3.8029,3.8657,3.934,0.0,0.0,0.0,0.0,0.0,0.0,0.0,0.0,2.9201,3.0774,0.0,3.1466,0.0,0.0,0.0,0.0,0.0,0.0,0.0,0.0,3.5687,3.6916,3.7639,3.7823,3.8164,3.8891,3.9596,3.9119,3.754,3.5897,0.0,0.0,0.0,0.0,0.0,0.0,3.7925,3.8773,4.1056,4.2671,4.3451,4.3488,4.3488,4.3451,4.123,3.9606,3.8692,3.6051,3.4504,3.4372,3.2228,0.0,0.0,0.0,0.0,0.0,0.0,0.0,0.0,0.0,0.0,0.0,0.0,0.0,0.0,0.0,0.0,0.0,0.0,0.0,0.0,2.9312,0.0,0.0,0.0,0.0,0.0,0.0,0.0,0.0,0.0,0.0,3.3847,3.5279,3.7024,3.8526,0.0,0.0,0.0,0.0,4.1106,4.1217,4.1827,4.2044,4.1316,4.1771,4.1727,4.0352,0.0,0.0,4.2447,4.2465,4.2553,4.2471,4.2555,4.2302,4.1876,4.1507,4.1555,4.2037,4.2091,4.2606,4.3271,4.2821,4.2966,3.3731,0.0,0.0,0.0,0.0,3.2225,3.3404,3.472,3.4939,3.5125,3.5209,3.4228,0.0,0.0,0.0,0.0,0.0,0.0,3.5859,3.6564,3.9294,4.0708,4.1001,4.269,4.3029,4.2129,4.178,4.1075,4.0057,3.9004,3.7609,3.5947,0.0,0.0,0.0,0.0,3.8744,3.9614,4.135,4.269,4.3488,4.3488,4.3488,4.3488,4.2276,4.0965,3.9588,3.8196,3.6536,3.4555,3.3601,0.0,0.0,0.0,0.0,0.0,0.0,0.0,0.0,0.0,0.0,0.0,0.0,0.0,0.0,0.0,0.0,0.0,0.0,0.0,3.1547,3.1625,3.2004,0.0,0.0,0.0,0.0,0.0,0.0,0.0,0.0,0.0,3.6906,3.7334,3.8138,0.0,0.0,4.0756,4.1794,4.1939,4.214,4.2713,0.0,0.0,0.0,4.2268,4.2202,4.316,4.4664,4.5615,4.527,4.5691,4.5966,4.5626,4.5585,4.564,4.5695,4.3759,4.2537,4.3064,4.3639,4.4256,4.504,4.5842,4.6659,3.9203,3.6223,3.5143,3.4668,3.4785,3.5912,3.6977,3.7949,3.825,3.8493,3.8605,3.7452,3.6589,3.5903,3.4798,0.0,0.0,0.0,3.8799,3.9953,4.2213,4.3424,4.3809,4.5232,4.5406,4.4461,4.3956,4.3332,4.2526,4.1717,4.0432,3.8715,0.0,0.0,3.7312,3.8846,3.9892,4.0414,4.1956,4.301,4.3488,4.3488,4.3488,4.3488,4.2708,4.1699,4.0432,3.9294,3.7761,3.5771,3.4723,3.3848,0.0,0.0,0.0,0.0,0.0,0.0,0.0,0.0,0.0,0.0,0.0,2.9275,0.0,0.0,0.0,0.0,3.209,3.288,3.3394,3.3546,0.0,0.0,0.0,0.0,0.0,0.0,0.0,3.5719,3.7578,3.9112,3.9714,3.9823,4.008,4.0765,4.1012,4.1507,4.2616,0.0,4.3057,4.3846,4.3828,4.3901,4.4369,4.3852,4.3907,4.5479,4.6507,4.7205,4.7325,4.7697,4.7881,4.7645,4.7562,4.7674,4.7939,4.6218,4.5045,4.586,4.6688,4.7471,4.827,4.8939,4.9528,4.4084,4.2311,3.8638,3.7015,3.7026,3.8516,3.9213,3.935,4.0092,4.1175,4.2333,4.0799,4.0432,4.0901,3.9599,0.0,0.0,4.103,4.2211,4.3751,4.4551,4.534,4.6056,4.6148,4.613,4.6056,4.6066,4.5616,4.4808,4.4047,4.3314,4.2561,4.112,3.989,3.903,4.0471,4.1287,4.1305,4.2873,4.3653,4.3598,4.3524,4.346,4.3378,4.2698,4.1892,4.1003,3.9588,3.8395,3.7503,3.5712,3.4645,3.4481,0.0,0.0,0.0,0.0,0.0,0.0,0.0,0.0,0.0,0.0,0.0,0.0,0.0,0.0,0.0,3.3862,0.0,3.4806,3.511,0.0,0.0,0.0,3.5439,3.5473,3.6501,3.7511,3.8252,0.0,0.0,4.2128,0.0,4.2431,4.2421,4.1772,4.1819,4.3313,4.3478,4.3763,4.4406,4.5176,4.569,4.5589,4.5764,4.614,4.6994,4.7362,4.7721,4.8347,4.8532,4.8587,4.8514,4.8569,4.8559,4.8569,4.8467,4.891,4.9397,5.0284,5.1228,5.1908,5.1668,5.164,4.6734,4.5203,4.4252,4.3053,4.1872,4.2855,4.3626,4.4195,4.4378,4.4342,4.4021,4.2451,4.1148,4.023,4.1056,4.1882,4.268,4.3489,4.4516,4.5737,4.6534,4.7167,4.7604,4.8202,4.8165,4.7596,4.7336,4.6793,4.6007,4.5539,4.5223,4.5039,4.4654,4.3149,4.0681,4.2121,4.2928,4.2919,4.4507,4.5021,4.4415,4.3818,4.3194,4.2598,4.2396,4.1625,4.0249,3.9827,3.8953,3.7577,3.6802,3.6105,3.5429,3.4828,0.0,0.0,0.0,0.0,0.0,0.0,0.0,0.0,0.0,3.2957,3.3343,0.0,3.3561,0.0,3.4836,3.5296,3.5927,3.6069,0.0,0.0,3.7413,3.7522,3.7835,3.8651,3.9297,3.9541,4.089,4.1985,4.2455,4.3064,4.3443,4.3443,4.3142,4.3082,4.3519,4.3522,4.3578,4.3869,4.4098,4.439,4.5187,4.6273,4.7084,4.7341,4.7877,4.8375,4.8559,4.8578,4.8578,4.8578,4.8578,4.8578,4.8605,4.9159,4.9658,4.9926,5.0555,5.1551,5.29,5.3029,5.3077,4.9386,4.8258,4.8258,4.7444,4.615,4.5983,4.6166,4.6552,4.6571,4.6331,4.5834,4.4583,4.3533,4.2779,4.3601,4.4515,4.5462,4.6204,4.7195,4.8346,4.9091,4.9589,4.9807,5.0231,5.017,4.9757,4.9557,4.9075,4.8274,4.7721,4.7267,4.6861,4.6385,4.5227,4.3566,4.4199,4.4562,4.4571,4.5094,4.5149,4.47,4.3928,4.3286,4.2855,4.2488,4.1717,4.0469,4.0084,3.9321,3.8109,3.7491,3.6986,3.653,3.5808,3.5342,0.0,0.0,0.0,0.0,0.0,0.0,0.0,0.0,0.0,0.0,0.0,3.4895,0.0,3.6171,0.0,3.7117,3.7306,3.7672,3.8298,3.839,3.8632,3.9212,3.97,4.0299,4.1072,4.1939,4.2656,4.3092,4.3509,4.3812,4.3826,4.3728,4.3652,4.3723,4.3945,4.4176,4.4229,4.4237,4.4531,4.5402,4.6583,4.7561,4.7966,4.8382,4.8715,4.8732,4.8741,4.8741,4.8741,4.8732,4.8741,4.8759,4.911,4.959,5.0008,5.0361,5.1231,5.2759,5.3379,5.3658,5.1748,5.0978,5.0864,5.046,4.9753,4.8304,4.771,4.7684,4.7785,4.7767,4.7646,4.7063,4.6711,4.6637,4.6689,4.7298,4.837,4.9011,4.988,5.0941,5.1589,5.194,5.2028,5.1997,5.1959,5.1959,5.1905,5.1524,5.0835,5.0093,4.9307,4.8446,4.7447,4.6898,4.6721,4.6463,4.6277,4.6204,4.5415,4.5012,4.4993,4.4121,4.3561,4.3341,4.2561,4.1727,4.082,4.012,3.9423,3.8726,3.8036,3.7658,3.7632,3.6658,3.6069,0.0,3.573,0.0,0.0,0.0,0.0,0.0,0.0,0.0,0.0,3.5623,3.591,3.6575,3.7559,3.8186,3.8186,3.8598,3.8869,3.8869,3.8909,3.9282,4.0082,4.0228,4.0865,4.244,4.2699,4.3042,4.3689,4.3837,4.3851,4.3907,4.3867,4.3818,4.3866,4.4329,4.4719,4.4873,4.4863,4.4925,4.5628,4.6497,4.7355,4.8203,4.8517,4.8729,4.8846,4.8881,4.8881,4.8881,4.8873,4.8881,4.889,4.89,4.9141,4.9754,5.0024,5.0655,5.2048,5.2884,5.3497,5.2802,5.195,5.1312,5.1324,5.1632,5.0017,4.9264,4.9157,4.9849,4.9804,4.9243,4.9728,4.9559,4.9028,4.9619,5.0368,5.1205,5.1341,5.1694,5.2172,5.2304,5.2519,5.2797,5.2791,5.2785,5.2747,5.244,5.2235,5.212,5.1658,5.1039,5.0293,5.0071,4.9509,4.865,0.0,0.0,0.0,4.7067,4.6636,4.6581,4.5214,4.3846,4.258,4.1746,0.0,3.9232,3.9019,3.8872,3.8699,3.8553,0.0,0.0,0.0,0.0,0.0,0.0,0.0,0.0,0.0,0.0,0.0,3.847,3.8173,3.7619,3.7865,3.796,3.7816,3.8269,3.857,3.8596,3.9289,3.976,3.9768,3.981,4.0195,4.1015,4.1108,4.1516,4.2537,4.3241,4.372,4.3921,4.3968,4.3966,4.4005,4.3974,4.3976,4.3958,4.4031,4.4059,4.4116,4.4217,4.4247,4.4385,4.522,4.6102,4.6766,4.7509,4.8111,4.8694,4.8853,4.8872,4.8862,4.889,4.889,4.889,4.889,4.8937,4.9094,4.9689,5.0469,5.1416,5.1732,5.2048,5.3881,0.0,5.2785,5.2511,0.0,5.1645,5.1412,5.1319,5.1051,5.0939,5.096,5.1374,5.1299,5.0953,5.1319,5.18,5.237,5.2722,5.3089,5.3458,5.381,5.4087,5.4265,5.425,5.4239,5.4233,5.4026,5.3741,5.3403,5.3193,5.2682,5.1891,5.1719,5.1078,4.9956,4.9235,4.8713,4.8401,4.7526,4.6911,4.648,4.5324,4.414,4.2937,0.0,0.0,0.0,0.0,0.0,0.0,0.0,0.0,0.0,0.0,0.0,3.9073,3.9414,3.9566,3.9449,3.9441,3.9698,4.0274,4.0345,4.0138,3.966,3.9813,3.9879,3.9731,3.9535,3.9565,3.9978,4.0053,4.0213,4.0637,4.0761,4.1121,4.1877,4.2037,4.2375,4.3163,4.3682,4.4013,4.4169,4.4192,4.4257,4.4367,4.4395,4.4351,4.4199,4.4017,4.3913,4.3953,4.3966,4.4164,4.4589,4.4952,4.5581,4.6345,4.6847,4.7293,4.7812,4.8145,4.8357,4.8481,4.8704,4.889,4.889,4.889,4.889,4.8927,4.9243,4.9652,5.0153,5.0803,5.1509,5.4881,5.3683,5.426,5.376,5.2601,5.3024,5.3294,5.335,0.0,0.0,0.0,5.27,5.2681,5.2675,5.2627,5.2823,5.3263,5.3862,5.4312,5.4658,5.5255,5.5562,5.5607,5.5562,5.5539,5.5533,5.5522,5.5182,5.4566,5.4541,5.4018,5.3086,5.2752,5.1985,5.0684,4.937,4.8678,4.8587,4.7657,4.6847,4.6158,4.5249,4.4367,4.3567,4.2777,4.2299,4.2116,4.0858,4.0142,4.0157,3.9509,3.9134,3.9212,3.9808,4.0189,4.0259,4.0848,4.1296,4.14,4.1408,4.1464,4.1585,4.1751,4.1665,4.1291,4.1246,4.1277,4.1374,4.0754,4.0635,4.1326,4.0928,4.0843,4.1553,4.1688,4.2072,4.2853,4.2887,4.3159,4.3953,4.4147,4.4232,4.4425,4.4465,4.4546,4.4732,4.4751,4.4732,4.4493,4.4231,4.4117,4.4181,4.4218,4.4435,4.499,4.5162,4.5534,4.6215,4.6405,4.6542,4.6915,4.733,4.7743,4.8191,4.8568,4.8837,4.9019,4.9117,4.9042,4.8993,4.8976,4.8959,4.9029,4.9968,5.0896,5.5555,5.5299,5.4747,5.4741,5.5049,5.376,5.3645,5.4299,5.4101,5.4079,5.4189,5.4189,5.4189,5.4189,5.4183,5.4578,5.5264,5.5393,5.5467,0.0,5.5629,5.5687,5.5692,5.5687,5.5682,5.5657,5.5613,5.5555,5.5498,5.5421,5.4666,5.3359,5.3126,5.2165,5.0366,4.951,4.911,4.9075,4.7932,4.7314,4.7166,4.5727,4.4574,4.3763,4.2986,4.221,4.1564,4.1217,4.1062,4.1169,4.097,4.0888,4.1011,4.1103,4.1203,4.12,4.1329,4.1385,4.1408,4.1408,4.1696,4.2387,4.3073,4.2881,4.1514,4.1366,4.1385,4.1408,4.1316,4.1271,4.1427,4.1948,4.2316,4.2509,4.2585,4.3018,4.3978,4.3558,4.356,4.4505,4.4682,4.4669,4.4726,4.4745,4.4763,4.4813,4.4849,4.4807,4.4745,4.4531,4.4471,4.4643,4.4682,4.4739,4.4863,4.4877,4.521,4.5941,4.604,4.626,4.6907,4.7168,4.7543,4.8282,4.8484,4.8841,4.9448,4.9667,4.9543,4.9388,4.9337,4.9247,4.9027,4.9285,4.9576,5.5522,5.5142,5.52,5.5175,5.5084,5.4746,5.4811,5.5131,5.5164,5.5145,5.5145,5.517,5.5164,5.5145,5.5145,5.5338,5.5689,5.5689,5.5689,5.5689,5.5689,5.5689,5.5689,5.5689,5.5689,5.5703,5.5662,5.5682,5.5698,5.5657,5.5272,5.4544,5.3955,5.2955,5.1652,5.0694,4.9928,4.9307,4.8483,4.7839,4.7396,4.626,4.5263,4.445,4.3683,4.3092,4.2704,4.2229,4.1989,4.2047,4.1583,4.1335,4.1419,4.1807,4.207,4.2117,4.2506,4.2754,4.2827,4.2809,4.2976,4.3346,4.3709,4.3695,4.3084,4.2852,4.2773,4.2783,4.2431,4.2422,4.2947,4.3005,4.3203,4.3787,4.3866,4.4084,4.4472,4.4335,4.4273,4.47,4.4794,4.4849,4.4988,4.5,4.5085,4.5171,4.5123,4.5069,4.5196,4.5013,4.4818,4.4806,4.4794,4.4794,4.48,4.4794,4.4984,4.5319,4.535,4.5563,4.6104,4.6365,4.7005,4.787,4.8283,4.883,4.9646,4.981,4.9735,4.9672,4.9638,4.9532,4.9401,4.9283,4.9268,5.5495,5.4983,5.561,5.5499,5.4959,5.5557,5.5782,5.5745,5.5716,5.571,5.5724,5.5714,5.5607,5.5458,5.5612,5.5612,5.5478,5.5612,5.5689,5.5689,5.5689,5.5689,5.5689,5.5689,5.5689,5.5689,5.5689,5.5689,5.5689,5.5689,5.5612,5.5308,5.4173,5.3218,5.2575,5.1466,5.0448,4.9618,4.9128,4.841,4.7485,4.6699,4.5895,4.5082,4.4461,4.4046,4.3824,4.3243,4.29,4.2879,4.2308,4.1967,4.2009,4.2583,4.2947,4.3047,4.3577,4.3974,4.4079,4.4094,4.4113,4.4181,4.4162,4.4272,4.4425,4.4257,4.4132,4.4099,4.3594,4.3594,4.4194,4.3947,4.3906,4.4694,4.4794,4.4787,4.4866,4.4884,4.4933,4.4967,4.4966,4.5074,4.5227,4.5297,4.5376,4.5499,4.5419,4.54,4.5546,4.5415,4.5211,4.5058,4.499,4.5013,4.499,4.5007,4.5032,4.4971,4.5026,4.5216,4.5441,4.572,4.6304,4.73,4.8031,4.8692,4.9473,4.9924,4.9974,4.9936,4.9884,4.9858,4.9744,4.962,4.9404,5.5842,5.5798,5.5866,5.5856,5.5765,5.5856,5.5885,5.5875,5.5802,5.5787,5.5796,5.573,5.5304,5.4761,5.5395,5.5338,5.478,5.5381,5.5689,5.5689,5.5689,5.5689,5.5689,5.5689,5.5689,5.5689,5.5689,5.5689,5.5689,5.5689,5.5343,5.4491,5.2927,5.2162,5.1886,5.0899,5.0249,5.0123,4.9838,4.9025,4.7727,4.6878,4.6087,4.5308,4.5207,4.478,4.4058,4.3855,4.3791,4.3862,4.3725,4.368,4.374,4.3822,4.3867,4.3864,4.3968,4.4109,4.4332,4.4367,4.4452,4.4688,4.4695,4.4726,4.477,4.4726,4.4714,4.4701,4.4663,4.4613,4.4738,4.465,4.4655,4.4798,4.4849,4.4903,4.5107,4.5169,4.5248,4.5499,4.5476,4.5527,4.5537,4.5522,4.5559,4.5586,4.5564,4.5546,4.5577,4.5568,4.5513,4.5499,4.5508,4.5495,4.5462,4.5513,4.5448,4.5466,4.5504,4.5499,4.5548,4.5619,4.5945,4.692,4.7564,4.835,4.919,4.9984,5.0357,5.0084,5.0039,5.0086,4.989,4.9797,4.9658,5.5969,5.5969,5.595,5.5951,5.5967,5.5943,5.5943,5.5895,5.588,5.587,5.5846,5.5782,5.5548,5.5228,5.5574,5.5516,5.5241,5.5555,5.5689,5.5689,5.5689,5.5689,5.5689,5.5689,5.5689,5.5689,5.5689,5.5689,5.5689,5.5689,5.553,5.5151,5.3991,5.3197,5.2635,5.1706,5.0903,5.022,5.0099,4.9674,4.893,4.7953,4.7226,4.6686,4.5815,4.5165,4.4748,4.4271,4.3974,4.3997,4.3974,4.4041,4.4228,4.4224,4.4315,4.4457,4.4459,4.4531,4.4643,4.4631,4.4682,4.4788,4.4794,4.4874,4.5024,4.5022,4.5096,4.5231,4.4996,4.4868,4.5013,4.5022,4.5091,4.5232,4.5282,4.5317,4.5419,4.5429,4.549,4.5586,4.5594,4.5594,4.5594,4.5594,4.5594,4.5594,4.5594,4.5594,4.5594,4.5594,4.5594,4.5594,4.5594,4.5594,4.5594,4.5594,4.5594,4.5594,4.5594,4.5594,4.5594,4.5594,4.5893,4.674,4.7178,4.7735,4.8447,4.8856,4.9221,4.9543,5.0277,5.0442,5.0349,5.0178,5.0006,5.6008,5.6008,5.6008,5.601,5.5998,5.5998,5.5975,5.5919,5.5924,5.5938,5.5933,5.5851,5.5792,5.5751,5.5705,5.5593,5.542,5.5588,5.5689,5.5689,5.5689,5.5689,5.5689,5.5689,5.5689,5.5689,5.5689,5.5689,5.5689,5.5689,5.5689,5.5574,5.4895,5.4184,5.351,5.2486,5.1486,5.0747,5.0456,5.0202,4.9822,4.9097,4.8438,4.7905,4.6834,4.5985,4.5518,4.4894,4.4464,4.4232,4.4206,4.4315,4.4486,4.4506,4.4592,4.4782,4.4794,4.485,4.4909,4.4921,4.495,4.5013,4.5019,4.5115,4.5253,4.5312,4.5381,4.5517,4.5237,4.5137,4.5258,4.5312,4.5405,4.5577,4.5594,4.5594,4.559,4.5594,4.5586,4.5594,4.5594,4.5594,4.5594,4.5594,4.5594,4.5594,4.5594,4.5594,4.5594,4.5594,4.5594,4.5594,4.5594,4.5594,4.5594,4.5594,4.5594,4.5594,4.5594,4.5594,4.5594,4.5594,4.5633,4.6259,4.662,4.7081,4.7755,4.7985,4.8702,4.9529,5.0202,5.062,5.0614,5.0467,5.0383,5.6008,5.6008,5.6008,5.6008,5.6003,5.5965,5.5984,5.599,5.5969,5.599,5.5966,5.5938,5.5895,5.588,5.5756,5.5304,5.4766,5.5406,5.5705,5.571,5.5695,5.5689,5.5689,5.5689,5.5689,5.5719,5.5724,5.5719,5.5695,5.5695,5.5689,5.5656,5.4886,5.4477,5.417,5.2774,5.1899,5.1758,5.1162,5.0562,5.0275,5.0146,4.9606,4.8724,4.8431,4.7591,4.6329,4.6045,4.5616,4.4808,4.4802,4.4808,4.4801,4.4801,4.4806,4.4843,4.4818,4.4925,4.5145,4.5201,4.5292,4.5499,4.5494,4.554,4.5544,4.5564,4.5577,4.5594,4.5544,4.5527,4.5564,4.5531,4.5564,4.5586,4.5594,4.5594,4.5594,4.5594,4.5594,4.5594,4.5594,4.5594,4.5594,4.5594,4.5594,4.5594,4.5594,4.5594,4.5594,4.5594,4.5594,4.5594,4.5594,4.5594,4.5594,4.5594,4.5594,4.5594,4.5594,4.5594,4.5594,4.5614,4.5667,4.5821,4.6317,4.6755,4.7178,4.799,4.9072,4.9822,5.0168,5.0476,5.0649,5.0688,5.0619,5.6008,5.6008,5.6008,5.6008,5.595,5.5447,5.5524,5.593,5.5453,5.5522,5.5958,5.5971,5.5967,5.5962,5.5875,5.5672,5.5436,5.5661,5.5813,5.5869,5.5808,5.5793,5.5879,5.5861,5.5826,5.5826,5.5826,5.5826,5.5826,5.5821,5.5845,5.5667,5.4948,5.4504,5.4288,5.3333,5.2717,5.2717,5.2433,5.1989,5.1334,5.1272,5.0856,4.995,4.9042,4.8313,4.7707,4.7182,4.6499,4.5665,4.5628,4.5454,4.5129,4.5222,4.5351,4.5362,4.5386,4.5414,4.5502,4.5524,4.5545,4.5628,4.566,4.5656,4.566,4.566,4.5679,4.5656,4.5679,4.566,4.5647,4.5629,4.5594,4.5594,4.5594,4.5599,4.5594,4.5594,4.5594,4.5594,4.5594,4.5594,4.5594,4.5594,4.5594,4.5594,4.5594,4.5594,4.5594,4.5594,4.5594,4.5594,4.5594,4.5594,4.5594,4.5594,4.5594,4.5594,4.5594,4.5594,4.5594,4.5594,4.5652,4.5652,4.6067,4.6259,4.6605,4.7163,4.8432,4.9163,4.9572,5.0284,5.0592,5.0668,5.0688,5.6008,5.6008,5.6008,5.6022,5.5998,5.5498,5.5567,5.6015,5.5518,5.5592,5.6035,5.6086,5.6094,5.6091,5.6044,5.6013,5.6016,5.5904,5.5939,5.6043,5.5965,5.5964,5.5974,5.5945,5.5918,5.5905,5.5914,5.5914,5.5914,5.5914,5.5914,5.5856,5.5229,5.495,5.4805,5.4101,5.3638,5.3624,5.3388,5.2945,5.2406,5.2098,5.1713,5.1073,4.9961,4.9162,4.8873,4.8287,4.7478,4.6551,4.6358,4.6077,4.5477,4.5525,4.565,4.5679,4.5679,4.5695,4.568,4.5684,4.5684,4.5684,4.5684,4.5684,4.5684,4.5684,4.5684,4.5684,4.5684,4.5684,4.5696,4.5651,4.5618,4.5637,4.5618,4.5633,4.5635,4.5631,4.5627,4.5599,4.5594,4.5594,4.5594,4.5594,4.5594,4.5594,4.5594,4.5594,4.5594,4.5594,4.5594,4.5594,4.5594,4.5594,4.5594,4.5594,4.5594,4.5594,4.5594,4.5594,4.5594,4.5594,4.5594,4.5594,4.5648,4.5763,4.6047,4.6528,4.7298,4.8202,4.9048,4.988,5.0265,5.0668,5.0688,5.6005,5.6018,5.5997,5.6075,5.6149,5.6003,5.6153,5.6242,5.6156,5.6105,5.623,5.629,5.6274,5.6292,5.6266,5.6292,5.6249,5.612,5.6084,5.6183,5.6175,5.6113,5.6049,5.6009,5.5979,5.5924,5.5905,5.5905,5.5914,5.5914,5.5909,5.5885,5.5847,5.5745,5.5861,5.4988,5.4607,5.4472,5.3966,5.3527,5.331,5.2678,5.2211,5.195,5.1181,5.0317,4.9495,4.9432,4.8667,4.718,4.7011,4.6602,4.5826,4.5669,4.57,4.5708,4.5708,4.5688,4.5712,4.5696,4.57,4.57,4.5692,4.57,4.5704,4.57,4.57,4.5704,4.57,4.5715,4.5715,4.5708,4.5704,4.5684,4.5673,4.5676,4.569,4.5678,4.5665,4.5607,4.5599,4.5594,4.5594,4.5594,4.5594,4.5594,4.5594,4.5594,4.5594,4.5594,4.5594,4.5594,4.5594,4.5594,4.5594,4.5594,4.5594,4.5594,4.5594,4.5594,4.5594,4.5594,4.5594,4.5594,4.5594,4.5706,4.5975,4.649,4.7336,4.8182,4.8894,4.9567,5.0245,5.0688,5.0688,5.6211,5.6208,5.6211,5.623,5.6186,5.5641,5.5701,5.6193,5.5686,5.5747,5.6232,5.631,5.631,5.6312,5.631,5.6344,5.644,5.639,5.6361,5.6324,5.6256,5.6227,5.6244,5.6176,5.6079,5.599,5.5964,5.5959,5.5998,5.5979,5.5964,5.5959,5.5966,5.5971,5.5947,5.5654,5.5495,5.548,5.5263,5.4863,5.4293,5.3966,5.329,5.219,5.1824,5.1285,5.0449,5.04,4.956,4.7959,4.788,4.7232,4.6016,4.5684,4.5719,4.5765,4.5769,4.5781,4.5764,4.5787,4.5783,4.5768,4.5768,4.5771,4.5771,4.5768,4.5768,4.5768,4.5768,4.5768,4.5768,4.5748,4.5746,4.5712,4.5684,4.5708,4.5688,4.5698,4.5678,4.568,4.5635,4.5594,4.5594,4.5594,4.5594,4.5594,4.5594,4.5594,4.5594,4.5594,4.5594,4.5594,4.5594,4.5594,4.5594,4.5594,4.5594,4.5594,4.5594,4.5594,4.5594,4.5594,4.5594,4.5594,4.5594,4.5686,4.5975,4.6374,4.7067,4.7812,4.8375,4.926,5.0341,5.0688,5.0668,5.5996,5.6251,5.5957,5.6055,5.6255,5.5438,5.5376,5.5764,5.5006,5.4928,5.5416,5.5787,5.5922,5.6001,5.6255,5.6448,5.6548,5.6529,5.6507,5.648,5.6398,5.6369,5.6404,5.626,5.6368,5.642,5.6177,5.6182,5.6452,5.6143,5.6008,5.5999,5.5996,5.6002,5.5998,5.5971,5.5933,5.5952,5.5918,5.5672,5.5189,5.4827,5.4035,5.2803,5.232,5.1698,5.0902,5.0825,5.0203,4.8939,4.8233,4.716,4.5889,4.5734,4.5765,4.5799,4.581,4.5801,4.58,4.58,4.5803,4.5803,4.5803,4.5803,4.5803,4.5803,4.5803,4.5803,4.5803,4.5803,4.5803,4.5803,4.5801,4.5761,4.5734,4.5746,4.5731,4.5711,4.5706,4.5675,4.565,4.5625,4.5635,4.5599,4.5594,4.5594,4.5594,4.5594,4.5594,4.5594,4.5594,4.5594,4.5594,4.5594,4.5594,4.5594,4.5594,4.5594,4.5594,4.5594,4.5594,4.5594,4.5594,4.5594,4.5594,4.5594,4.5821,4.5782,4.6206,4.6971,4.7908,4.8817,4.9779,5.0515,5.0649,5.5584,5.6168,5.5445,5.5708,5.6352,5.5671,5.5453,5.5312,5.4668,5.4433,5.459,5.5293,5.5508,5.5625,5.6289,5.6582,5.6601,5.6601,5.6601,5.6601,5.6562,5.6536,5.6477,5.6322,5.6619,5.7104,5.6548,5.6564,5.7099,5.6523,5.6046,5.6008,5.6003,5.6003,5.5999,5.6003,5.5995,5.5995,5.5999,5.596,5.5864,5.5288,5.448,5.359,5.2797,5.202,5.1432,5.118,5.0608,4.9544,4.8133,4.6992,4.6109,4.5881,4.597,4.5858,4.5803,4.58,4.5803,4.5803,4.5803,4.5803,4.5803,4.5803,4.5803,4.5803,4.5803,4.5803,4.5803,4.5803,4.5803,4.5803,4.58,4.5803,4.5789,4.5782,4.5795,4.5735,4.5731,4.5723,4.5695,4.5686,4.5682,4.5648,4.5627,4.5603,4.5599,4.5594,4.5594,4.5594,4.5594,4.5594,4.5594,4.5594,4.5594,4.5594,4.5594,4.5594,4.5594,4.5594,4.5594,4.5594,4.5594,4.5594,4.5594,4.5594,4.5594,4.5614,4.5956,4.6812,4.7658,4.8409,4.924,5.0091,5.0649,5.6303,5.6475,5.628,5.6341,5.656,5.6306,5.623,5.623,5.5976,5.5664,5.5918,5.6133,5.6152,5.6269,5.6445,5.6621,5.6621,5.6621,5.6621,5.6621,5.6621,5.6562,5.6515,5.6461,5.682,5.7415,5.7191,5.7169,5.7398,5.7077,5.6607,5.6008,5.6008,5.6008,5.6008,5.6008,5.6008,5.6008,5.6008,5.6008,5.5969,5.5814,5.5296,5.4465,5.3618,5.3053,5.2743,5.2186,5.1157,4.9734,4.8674,4.766,4.6864,4.6751,4.6519,4.6055,4.5861,4.5823,4.5842,4.5803,4.5803,4.5803,4.5803,4.5803,4.5803,4.5803,4.5803,4.5803,4.5803,4.5803,4.5803,4.5803,4.5803,4.5803,4.5803,4.5803,4.5805,4.5776,4.5792,4.5769,4.5735,4.5696,4.5699,4.5694,4.5665,4.5657,4.564,4.5594,4.5594,4.5594,4.5594,4.5594,4.5594,4.5594,4.5594,4.5594,4.5594,4.5594,4.5594,4.5594,4.5594,4.5594,4.5594,4.5594,4.5594,4.5594,4.5594,4.5594,4.6201,4.6639,4.7543,4.8351,4.9202,5.0034,5.0515,5.6269,5.6562,5.6211,5.6269,5.6523,5.6211,5.6055,5.5976,5.5664,5.5508,5.5566,5.5918,5.6055,5.6094,5.6426,5.6601,5.6621,5.6621,5.6621,5.6621,5.6621,5.6582,5.6551,5.652,5.7078,5.8051,5.764,5.7641,5.7845,5.7551,5.6848,5.6162,5.6008,5.6008,5.6008,5.6008,5.6008,5.6008,5.6008,5.6008,5.6008,5.6008,5.5543,5.489,5.4252,5.3811,5.3037,5.2438,5.1432,4.9997,4.9204,4.8566,4.7753,4.7641,4.7409,4.6906,4.6577,4.6364,4.6268,4.6055,4.5803,4.5803,4.5803,4.5803,4.5803,4.5803,4.5803,4.5803,4.5803,4.5803,4.5803,4.5803,4.5803,4.5803,4.5803,4.5803,4.5803,4.5805,4.581,4.5799,4.5757,4.5731,4.5731,4.5715,4.5702,4.5682,4.568,4.5655,4.5618,4.5614,4.5594,4.5594,4.5594,4.5594,4.5594,4.5594,4.5594,4.5594,4.5594,4.5594,4.5594,4.5594,4.5594,4.5594,4.5594,4.5594,4.5594,4.5614,4.5802,4.6413,4.737,4.8178,4.8913,5.0053,5.0495,5.5878,5.6543,5.5762,5.5879,5.6426,5.5781,5.5625,5.5332,5.4922,5.457,5.4726,5.5195,5.5683,5.5488,5.6348,5.6621,5.6621,5.6621,5.6621,5.666,5.6738,5.6797,5.6581,5.6532,5.7301,5.8335,5.7826,5.788,5.8027,5.7618,5.6848,5.6201,5.6008,5.6008,5.6008,5.6008,5.6008,5.6008,5.6008,5.6008,5.6008,5.5988,5.5679,5.5195,5.5026,5.3947,5.2844,5.2225,5.1625,4.9919,4.9838,4.9374,4.8662,4.8546,4.8392,4.8179,4.7563,4.7196,4.6983,4.6364,4.59,4.5861,4.5803,4.5803,4.5803,4.5803,4.5803,4.5803,4.5803,4.5803,4.5803,4.5803,4.5803,4.5803,4.5803,4.5803,4.5803,4.5803,4.5803,4.5803,4.5814,4.5815,4.58,4.5758,4.5719,4.5726,4.5717,4.5676,4.5635,4.5622,4.5599,4.5594,4.5594,4.5594,4.5594,4.5594,4.5594,4.5594,4.5594,4.5594,4.5594,4.5594,4.5594,4.5594,4.5594,4.5594,4.5594,4.5633,4.5667,4.6148,4.7105,4.7697,4.8351,4.9837,5.0688,5.6422,5.6581,5.6406,5.6426,5.6562,5.6406,5.6308,5.6269,5.6094,5.5879,5.6055,5.625,5.6289,5.6289,5.6484,5.6621,5.6621,5.6621,5.6621,5.6699,5.7363,5.7148,5.6758,5.6582,5.7148,5.7871,5.778,5.7683,5.7717,5.75,5.6839,5.6104,5.6008,5.6008,5.6008,5.6008,5.6008,5.6008,5.6008,5.6008,5.6008,5.6008,5.5911,5.5679,5.5679,5.4503,5.2883,5.2863,5.2356,5.1134,5.0573,5.0186,4.9591,4.9417,4.9165,4.8643,4.8275,4.7792,4.7235,4.6945,4.65,4.5958,4.5919,4.5803,4.5803,4.5803,4.5803,4.5803,4.5803,4.5803,4.5803,4.5803,4.5803,4.5803,4.5803,4.5803,4.5803,4.5803,4.5803,4.5803,4.5816,4.5812,4.5809,4.5799,4.5769,4.5773,4.5754,4.5705,4.5661,4.564,4.5631,4.5627,4.5594,4.5594,4.5594,4.5594,4.5594,4.5594,4.5594,4.5594,4.5594,4.5594,4.5594,4.5594,4.5594,4.5594,4.5594,4.5614,4.5652,4.6244,4.6894,4.7682,4.8625,4.9918,5.0688,5.6615,5.6619,5.6621,5.6621,5.6621,5.6621,5.6621,5.6621,5.6621,5.6621,5.6621,5.6621,5.6621,5.6621,5.6621,5.6621,5.6621,5.6621,5.6621,5.668,5.707,5.7012,5.6758,5.668,5.7031,5.7734,5.7735,5.7641,5.7568,5.7363,5.6885,5.607,5.6008,5.6008,5.6008,5.6008,5.6008,5.6008,5.6008,5.6008,5.6008,5.6008,5.6008,5.6008,5.595,5.5099,5.3734,5.3405,5.2782,5.1776,5.1134,5.0743,5.038,5.0264,4.9993,4.9626,4.8701,4.8566,4.8217,4.7563,4.6867,4.6461,4.6422,4.6151,4.5958,4.5803,4.5803,4.5803,4.5803,4.5803,4.5803,4.5803,4.5803,4.5803,4.5803,4.5803,4.5803,4.5803,4.5803,4.5803,4.5803,4.5803,4.5812,4.5798,4.5799,4.5796,4.5789,4.5742,4.5683,4.5667,4.5661,4.5648,4.5603,4.5594,4.5594,4.5594,4.5594,4.5594,4.5594,4.5594,4.5594,4.5594,4.5594,4.5614,4.5652,4.5594,4.5594,4.5614,4.5936,4.6547,4.7259,4.8009,4.8894,4.9995,5.0553,5.6615,5.6618,5.6621,5.6621,5.6621,5.6621,5.6621,5.6621,5.6621,5.6621,5.6621,5.6621,5.6621,5.6621,5.6621,5.6621,5.666,5.6855,5.6914,5.664,5.7226,5.7051,5.6816,5.6875,5.709,5.7695,5.7499,5.7435,5.7513,5.7328,5.6831,5.625,5.6027,5.6008,5.6008,5.6008,5.6008,5.6008,5.6008,5.6008,5.6008,5.6008,5.6008,5.6008,5.5969,5.5563,5.4619,5.4063,5.325,5.2264,5.1505,5.1095,5.0917,5.0898,5.0898,5.0805,4.961,4.9204,4.9146,4.8411,4.7599,4.7366,4.7099,4.677,4.6248,4.5919,4.5803,4.5803,4.5803,4.5803,4.5803,4.5803,4.5803,4.5803,4.5803,4.5803,4.5803,4.5803,4.5803,4.5803,4.5803,4.5803,4.5803,4.5816,4.5798,4.5803,4.5815,4.5796,4.5739,4.5684,4.5698,4.5693,4.5648,4.5603,4.5599,4.5594,4.5594,4.5594,4.5594,4.5594,4.5594,4.5594,4.5614,4.5691,4.571,4.5782,4.6033,4.6379,4.6721,4.7081,4.7716,4.8586,4.938,5.0111,5.0457,5.6613,5.6614,5.662,5.6621,5.6621,5.6621,5.6621,5.6621,5.6621,5.6621,5.6621,5.6621,5.6621,5.6621,5.6621,5.6621,5.6738,5.707,5.7148,5.6953,5.7617,5.7812,5.6836,5.7109,5.7285,5.6894,5.6841,5.7073,5.723,5.6839,5.6765,5.6809,5.6336,5.6008,5.6008,5.6008,5.6008,5.6008,5.6008,5.6008,5.6008,5.6008,5.6008,5.6008,5.6008,5.5621,5.5041,5.4619,5.385,5.2403,5.207,5.1602,5.1192,5.1014,5.0898,5.0786,5.0438,4.9974,4.9761,4.9451,4.8836,4.8256,4.766,4.7235,4.6809,4.6326,4.6132,4.5919,4.59,4.5842,4.5803,4.5803,4.5803,4.5803,4.5803,4.5803,4.5803,4.5803,4.5803,4.5803,4.5803,4.5803,4.5803,4.5803,4.5812,4.5798,4.581,4.5803,4.5781,4.5743,4.5707,4.5702,4.5678,4.5648,4.5622,4.5599,4.5594,4.5594,4.5594,4.5594,4.5594,4.5594,4.5652,4.5917,4.622,4.6471,4.6778,4.7048,4.7509,4.7889,4.8548,4.9202,4.9764,5.0303,5.063,5.6612,5.6613,5.662,5.6621,5.6621,5.6621,5.6621,5.6621,5.6621,5.6621,5.6621,5.6621,5.6621,5.6621,5.6621,5.6621,5.6758,5.6953,5.6953,5.6914,5.7383,5.7539,5.664,5.709,5.6953,5.6699,5.6597,5.6713,5.701,5.705,5.6828,5.6547,5.6202,5.6008,5.6008,5.6008,5.6008,5.6008,5.6008,5.6008,5.6008,5.6008,5.6008,5.6008,5.6008,5.5795,5.5485,5.4929,5.4449,5.356,5.267,5.2322,5.1985,5.1424,5.0937,5.0883,5.0554,5.0399,5.0186,5.0012,4.9455,4.9123,4.8604,4.8217,4.7831,4.7405,4.6906,4.6577,4.6442,4.6268,4.5884,4.5861,4.5803,4.5803,4.5803,4.5803,4.5803,4.5803,4.5842,4.5842,4.5823,4.5823,4.5803,4.5803,4.5803,4.5816,4.5824,4.5798,4.5814,4.5784,4.5746,4.5738,4.571,4.5661,4.5631,4.5618,4.5768,4.5782,4.5782,4.5782,4.5936,4.609,4.6225,4.6413,4.6735,4.7178,4.7158,4.7355,4.8009,4.8682,4.9086,4.9534,4.9995,5.0438,5.0765,5.6611,5.6613,5.662,5.6621,5.6621,5.6621,5.6621,5.6621,5.6621,5.6621,5.6621,5.6621,5.6621,5.6621,5.6621,5.6621,5.6621,5.6621,5.6621,5.6699,5.6973,5.6914,5.666,5.6777,5.6855,5.666,5.6914,5.6816,5.6949,5.7005,5.686,5.6647,5.6265,5.6008,5.6008,5.6008,5.6008,5.6008,5.6008,5.6008,5.6008,5.6008,5.6008,5.6008,5.6008,5.5988,5.5834,5.5451,5.5006,5.4387,5.3637,5.2979,5.3169,5.2178,5.1385,5.1076,5.038,5.0399,5.0496,5.0399,5.0032,4.9896,4.9761,4.9301,4.8817,4.8333,4.8005,4.7521,4.7351,4.7157,4.6674,4.6209,4.6132,4.6074,4.5977,4.5803,4.5803,4.5861,4.6016,4.5997,4.59,4.6055,4.6248,4.5881,4.59,4.6132,4.6141,4.5812,4.5809,4.5798,4.5788,4.5781,4.5742,4.5682,4.5644,4.5622,4.5883,4.6186,4.624,4.6278,4.6528,4.6802,4.6951,4.7158,4.7605,4.7971,4.7798,4.799,4.8952,4.9567,4.963,4.9861,5.0322,5.063,5.0899,5.6607,5.6593,5.6598,5.662,5.6582,5.6582,5.6621,5.6621,5.6621,5.6621,5.6621,5.6621,5.6621,5.6621,5.6621,5.6621,5.6621,5.6621,5.6621,5.668,5.7168,5.7129,5.6797,5.7441,5.7051,5.6777,5.7265,5.7637,5.7312,5.6806,5.6831,5.6884,5.6312,5.6008,5.6008,5.6008,5.6008,5.6027,5.6046,5.6027,5.6008,5.6008,5.6008,5.6008,5.6008,5.6008,5.6008,5.5756,5.5505,5.4909,5.4639,5.414,5.3637,5.3386,5.2747,5.2066,5.1327,5.0786,5.0879,5.0709,5.0612,5.0476,5.0148,4.9742,4.9455,4.8991,4.8585,4.8333,4.8256,4.8101,4.7715,4.7328,4.7061,4.6751,4.65,4.619,4.6035,4.6538,4.6635,4.6654,4.6732,4.6867,4.7022,4.6461,4.6016,4.6287,4.6403,4.6074,4.5803,4.5812,4.5814,4.58,4.577,4.5714,4.5665,4.564,4.6041,4.6475,4.6605,4.6774,4.7201,4.7528,4.7855,4.8105,4.8548,4.8913,4.8995,4.9399,5.0168,5.0322,5.0188,5.0341,5.0611,5.088,5.1164,5.5142,5.5168,5.5662,5.5859,5.5918,5.6367,5.6621,5.6621,5.6621,5.6621,5.6621,5.6621,5.6621,5.6621,5.6621,5.6621,5.6621,5.6621,5.6621,5.6621,5.6973,5.6973,5.6758,5.6953,5.6836,5.6855,5.6933,5.6992,5.6994,5.7076,5.7082,5.665,5.6307,5.6008,5.6008,5.6008,5.6317,5.6588,5.6723,5.6472,5.6143,5.6008,5.6008,5.6008,5.6008,5.6008,5.6008,5.5988,5.5872,5.5408,5.5142,5.4929,5.46,5.4136,5.3424,5.373,5.2859,5.1966,5.1111,5.0975,5.0956,5.0879,5.0589,5.0415,5.0283,5.0012,4.9494,4.9165,4.9146,4.8972,4.8566,4.8063,4.7931,4.766,4.7308,4.7231,4.7099,4.727,4.7521,4.7544,4.7583,4.7796,4.7718,4.6906,4.6616,4.6945,4.6848,4.6384,4.6035,4.58,4.5817,4.5807,4.5777,4.5746,4.5698,4.5699,4.6251,4.6661,4.6851,4.7139,4.7851,4.8255,4.8644,4.9086,4.951,4.9861,5.0111,5.0265,5.0495,5.0611,5.0688,5.0899,5.1125,5.1486,5.1986,5.3347,5.345,5.453,5.4961,5.5058,5.5918,5.6269,5.6289,5.6523,5.6621,5.6621,5.6621,5.6621,5.6621,5.6621,5.6621,5.6621,5.6621,5.6621,5.6621,5.6621,5.664,5.664,5.666,5.666,5.6621,5.668,5.6719,5.6797,5.6883,5.6777,5.6299,5.6147,5.6014,5.6008,5.6066,5.6336,5.7129,5.7207,5.6917,5.6472,5.6104,5.6027,5.6008,5.6008,5.6008,5.6008,5.6008,5.5988,5.5853,5.5485,5.5408,5.5524,5.4944,5.4407,5.4484,5.3923,5.313,5.212,5.1559,5.1269,5.1153,5.0937,5.0782,5.0821,5.0879,5.0743,5.0012,5.0012,4.9645,4.9184,4.8933,4.872,4.8624,4.8411,4.843,4.8411,4.8275,4.8333,4.8469,4.8604,4.8914,4.8546,4.7467,4.7235,4.7599,4.7347,4.6751,4.6287,4.59,4.5851,4.588,4.6205,4.6221,4.6267,4.63,4.6709,4.7074,4.7268,4.787,4.8779,4.9279,4.963,5.0072,5.0361,5.0664,5.0856,5.0784,5.0707,5.0765,5.0919,5.1318,5.1659,5.2082,5.2697,5.1574,5.1711,5.3376,5.4062,5.416,5.5019,5.539,5.5469,5.623,5.6543,5.6621,5.6621,5.6621,5.6621,5.6621,5.6621,5.6621,5.6621,5.6621,5.6621,5.6621,5.6621,5.6621,5.6621,5.6621,5.6621,5.6621,5.6621,5.6582,5.6541,5.6465,5.6281,5.6151,5.6054,5.622,5.6549,5.6723,5.7323,5.7419,5.7303,5.6839,5.6414,5.6008,5.6008,5.6008,5.6008,5.6008,5.6008,5.6008,5.6008,5.5834,5.5756,5.5853,5.564,5.5311,5.4987,5.4871,5.4194,5.344,5.255,5.2109,5.1877,5.1405,5.0898,5.0898,5.0898,5.0801,5.0705,5.0589,5.0627,5.0341,5.0148,4.9664,4.949,4.9297,4.9088,4.903,4.8871,4.8968,4.9277,4.9529,4.9761,4.98,4.8817,4.8295,4.8624,4.7463,4.6848,4.6364,4.5997,4.5939,4.6076,4.6634,4.6885,4.7086,4.7336,4.7679,4.8117,4.8456,4.9192,5.0091,5.0418,5.0322,5.0515,5.0726,5.1164,5.1548,5.1491,5.1356,5.1072,5.1221,5.1933,5.2683,5.3299,5.378,5.14,5.1462,5.2148,5.2715,5.3262,5.4121,5.4492,5.4648,5.543,5.6133,5.6621,5.6621,5.6621,5.6621,5.6621,5.6621,5.6621,5.6621,5.6621,5.6621,5.6621,5.6621,5.6621,5.6621,5.6621,5.6621,5.6621,5.6621,5.6582,5.6406,5.6757,5.6752,5.6318,5.6499,5.6762,5.7516,5.7806,5.7419,5.7632,5.7695,5.651,5.6278,5.6008,5.6008,5.6008,5.6008,5.6008,5.6008,5.6008,5.6008,5.6008,5.6008,5.6008,5.6008,5.5814,5.5509,5.5466,5.5253,5.4774,5.3749,5.2805,5.207,5.1443,5.0975,5.1095,5.096,5.0917,5.0898,5.0917,5.0898,5.0801,5.0612,5.0434,5.0357,5.0148,4.9838,4.9703,4.9587,4.9664,4.9993,5.0206,5.0415,5.0415,5.0279,4.9896,4.9548,4.8159,4.6983,4.6558,4.6306,4.6345,4.6558,4.7116,4.7619,4.7859,4.8217,4.8626,4.9068,4.9552,5.011,5.0693,5.0649,5.0611,5.0822,5.1188,5.1683,5.2024,5.2164,5.2145,5.2029,5.2337,5.2895,5.3664,5.4414,5.4722,5.1401,5.1385,5.1386,5.1758,5.2383,5.3242,5.3594,5.3828,5.4863,5.5801,5.6601,5.6621,5.6621,5.6621,5.6621,5.6621,5.6621,5.6621,5.6621,5.6621,5.6621,5.6621,5.6621,5.6621,5.6621,5.6621,5.6601,5.6582,5.6562,5.6387,5.6574,5.6656,5.6539,5.67,5.7791,5.8662,5.8758,5.7845,5.7651,5.7772,5.6491,5.6143,5.6008,5.6008,5.6008,5.6008,5.6008,5.6008,5.6008,5.6008,5.6008,5.6008,5.6008,5.6008,5.6008,5.6008,5.6008,5.6008,5.5621,5.4774,5.3521,5.2767,5.224,5.185,5.1656,5.1463,5.1424,5.1351,5.1153,5.0917,5.0937,5.0821,5.0782,5.0647,5.0666,5.0457,5.0496,5.0457,5.055,5.0724,5.0801,5.0763,5.0724,5.0627,5.0264,4.9916,4.9184,4.7908,4.7003,4.6867,4.6983,4.727,4.7711,4.8195,4.8644,4.9183,4.9667,4.9778,5.02,5.0462,5.0832,5.0866,5.1284,5.1856,5.2183,5.237,5.2736,5.3203,5.3222,5.3106,5.3453,5.3799,5.4453,5.5126,5.5304,5.1401,5.1385,5.1386,5.1426,5.1601,5.2363,5.2734,5.3086,5.459,5.5801,5.6543,5.6621,5.6621,5.6621,5.6621,5.6621,5.6621,5.6621,5.6621,5.6621,5.6621,5.6621,5.6621,5.6621,5.6621,5.6621,5.6601,5.6559,5.6515,5.6376,5.6407,5.6563,5.6649,5.694,5.841,5.8589,5.8159,5.7477,5.7477,5.7284,5.7033,5.6394,5.6046,5.6008,5.6008,5.6008,5.6008,5.6008,5.6008,5.6008,5.6008,5.6008,5.6008,5.6008,5.6008,5.6008,5.6008,5.6008,5.5911,5.5176,5.4387,5.3598,5.3091,5.2975,5.3076,5.2728,5.2182,5.2148,5.1563,5.1115,5.0979,5.0917,5.0917,5.1057,5.1076,5.1231,5.1269,5.1211,5.1269,5.1308,5.1095,5.0917,5.0898,5.0782,5.0434,5.0109,4.9823,4.8952,4.7734,4.7463,4.7621,4.8082,4.8488,4.9003,4.9564,5.0259,5.067,5.0724,5.0752,5.0894,5.1222,5.1476,5.2034,5.2779,5.3121,5.3255,5.3818,5.4414,5.426,5.4126,5.428,5.4645,5.5299,5.5651,5.5689,5.1385,5.1386,5.1387,5.1387,5.1445,5.1699,5.2168,5.2949,5.4492,5.5781,5.6465,5.6621,5.6621,5.6621,5.6621,5.6621,5.6621,5.6621,5.6621,5.6621,5.6621,5.6621,5.6621,5.6621,5.6621,5.6621,5.6601,5.6558,5.6489,5.6369,5.6665,5.689,5.7067,5.7669,5.7927,5.8178,5.8372,5.8101,5.7709,5.7284,5.7183,5.6491,5.6008,5.6008,5.6008,5.6008,5.6008,5.6008,5.6008,5.6008,5.6008,5.6008,5.6008,5.6008,5.6008,5.6008,5.6008,5.6008,5.5969,5.5601,5.5238,5.4542,5.3962,5.371,5.3463,5.3285,5.3095,5.2902,5.2264,5.1873,5.1796,5.1192,5.1115,5.1525,5.1699,5.1985,5.2062,5.1931,5.1873,5.1896,5.1776,5.1269,5.1053,5.0937,5.0627,5.0395,5.0148,4.9436,4.8314,4.8198,4.8314,4.8875,4.9374,4.9877,5.0407,5.0735,5.1004,5.1029,5.0991,5.1024,5.1419,5.214,5.2606,5.328,5.3722,5.4164,5.453,5.4876,5.5088,5.5145,5.5088,5.5088,5.5478,5.567,5.5689,5.1386,5.1426,5.1738,5.166,5.1484,5.1719,5.25,5.3594,5.4551,5.5488,5.6406,5.6621,5.6621,5.6621,5.6621,5.6621,5.6621,5.6621,5.6621,5.6621,5.6621,5.6621,5.6621,5.6621,5.6621,5.6621,5.6601,5.6556,5.6419,5.6336,5.6461,5.6825,5.743,5.7127,5.7207,5.7559,5.7869,5.7462,5.6917,5.6743,5.6626,5.6298,5.6008,5.6008,5.6008,5.6008,5.6008,5.6008,5.6008,5.6008,5.6008,5.6008,5.6008,5.6008,5.6008,5.6008,5.6008,5.6008,5.5988,5.5969,5.5621,5.5277,5.4639,5.4407,5.4271,5.4155,5.402,5.3714,5.3095,5.2805,5.2515,5.1834,5.1892,5.2322,5.2476,5.2763,5.2879,5.2743,5.2457,5.2476,5.2148,5.166,5.1173,5.1014,5.0821,5.0647,5.0457,4.9703,4.9088,4.9107,4.9068,4.9455,4.9954,5.036,5.0623,5.0789,5.1059,5.129,5.1408,5.1514,5.2493,5.3329,5.3545,5.3799,5.4434,5.4895,5.5016,5.5247,5.5381,5.5497,5.5535,5.5574,5.5689,5.5689,5.5689,5.1386,5.1523,5.2305,5.2129,5.1621,5.2148,5.3476,5.5058,5.4355,5.4961,5.6406,5.6308,5.6191,5.6387,5.6465,5.6465,5.6523,5.6523,5.6621,5.6621,5.6621,5.6621,5.6621,5.6621,5.6621,5.6621,5.658,5.6482,5.6328,5.6234,5.6207,5.616,5.6377,5.6356,5.653,5.6762,5.7018,5.6801,5.6452,5.6414,5.6452,5.6162,5.6027,5.6008,5.6008,5.6008,5.6008,5.6008,5.6008,5.6008,5.6008,5.6008,5.6008,5.6008,5.6008,5.6008,5.6008,5.6008,5.6008,5.6008,5.5988,5.5776,5.5795,5.5892,5.564,5.5103,5.489,5.4484,5.3908,5.3695,5.3405,5.3231,5.3076,5.325,5.3328,5.3517,5.3672,5.3517,5.3153,5.2863,5.2399,5.1912,5.1366,5.1134,5.1037,5.1115,5.096,5.0689,5.019,5.0206,5.0109,4.9861,5.0322,5.0724,5.0933,5.1087,5.1369,5.1701,5.2153,5.2438,5.349,5.4254,5.4368,5.4661,5.5304,5.5612,5.5458,5.5478,5.5612,5.5689,5.5689,5.5689,5.5689,5.5689,5.5689,5.1387,5.1426,5.168,5.1621,5.1445,5.168,5.2754,5.4199,5.4082,5.4394,5.4746,5.4746,5.4922,5.4785,5.539,5.5664,5.5937,5.625,5.6543,5.6621,5.6621,5.6621,5.6621,5.6621,5.6621,5.6582,5.6534,5.6443,5.6303,5.6191,5.6089,5.6025,5.6008,5.6008,5.6104,5.6278,5.651,5.6568,5.622,5.6317,5.6414,5.6259,5.6124,5.6008,5.6008,5.6008,5.6008,5.6008,5.6008,5.6008,5.6008,5.6008,5.6008,5.6008,5.6008,5.6008,5.6008,5.6008,5.6008,5.6008,5.6008,5.6008,5.6008,5.6008,5.5911,5.5756,5.5567,5.5142,5.4561,5.4213,5.4063,5.3966,5.402,5.4194,5.4233,5.4252,5.4426,5.4484,5.4116,5.3594,5.313,5.2283,5.1718,5.1269,5.1231,5.1443,5.1505,5.137,5.1196,5.1173,5.1037,5.0728,5.0921,5.1385,5.1385,5.1482,5.1811,5.2147,5.2696,5.3299,5.4106,5.4718,5.5005,5.5287,5.5598,5.5689,5.567,5.5689,5.5689,5.5689,5.5689,5.5689,5.5689,5.5689,5.5689,5.1387,5.1445,5.1777,5.2109,5.2285,5.1699,5.2226,5.334,5.3476,5.3633,5.3965,5.4043,5.3984,5.4219,5.4941,5.5371,5.543,5.6211,5.6621,5.6621,5.6621,5.6621,5.6621,5.6621,5.6621,5.6582,5.6507,5.6426,5.6276,5.6121,5.6008,5.6008,5.6008,5.6008,5.6027,5.6104,5.6278,5.6375,5.6356,5.6414,5.6375,5.6298,5.6104,5.6008,5.6008,5.6008,5.6027,5.6027,5.6008,5.6008,5.6008,5.6008,5.6008,5.6008,5.6008,5.6008,5.6008,5.6008,5.6008,5.6008,5.6008,5.6008,5.6008,5.6008,5.6008,5.5911,5.5892,5.5718,5.5122,5.4639,5.4581,5.4561,5.4871,5.5157,5.5079,5.5006,5.52,5.5412,5.5045,5.4523,5.3768,5.2844,5.2206,5.1718,5.1679,5.2279,5.255,5.2492,5.2186,5.1916,5.1757,5.1486,5.1757,5.2105,5.2047,5.2124,5.2705,5.3156,5.364,5.4248,5.4848,5.5142,5.5381,5.5523,5.5651,5.5689,5.5689,5.5689,5.5689,5.5689,5.5708,5.5728,5.5728,5.5689,5.5689,5.1211,5.1348,5.2246,5.2871,5.3496,5.2031,5.1855,5.2558,5.2598,5.3027,5.3594,5.3711,5.3652,5.3828,5.459,5.5117,5.5488,5.6191,5.6621,5.6621,5.6621,5.6621,5.6621,5.6601,5.6601,5.6562,5.6498,5.6363,5.6244,5.61,5.6008,5.6008,5.6008,5.6008,5.6008,5.6008,5.6104,5.6124,5.6124,5.6124,5.6085,5.6027,5.6008,5.6008,5.6008,5.6027,5.6104,5.6085,5.6046,5.6085,5.6008,5.6027,5.6008,5.6008,5.6008,5.6008,5.6008,5.6008,5.6008,5.6008,5.6008,5.6008,5.6008,5.6008,5.6008,5.6008,5.6008,5.5892,5.5316,5.5234,5.5215,5.5026,5.5142,5.5466,5.5582,5.5543,5.564,5.5679,5.5389,5.4851,5.4136,5.3347,5.3289,5.2879,5.2647,5.3265,5.3304,5.325,5.3328,5.2921,5.2612,5.2395,5.2511,5.2763,5.2767,5.2999,5.3768,5.4293,5.4596,5.4933,5.5389,5.5586,5.5733,5.5716,5.5689,5.5689,5.5689,5.5689,5.5689,5.5689,5.5728,5.5761,5.5799,5.5901,5.5766,4.9902,5.0566,5.1367,5.1836,5.1973,5.1582,5.1504,5.1719,5.1699,5.1875,5.2012,5.2109,5.2441,5.3105,5.4023,5.4648,5.5351,5.6133,5.6523,5.6621,5.6621,5.6621,5.6621,5.6601,5.6582,5.6498,5.6407,5.6271,5.6128,5.6028,5.6008,5.6008,5.6008,5.6008,5.6008,5.6008,5.6008,5.6008,5.6008,5.6008,5.6008,5.6008,5.6008,5.6008,5.6008,5.6336,5.6375,5.6278,5.6549,5.6781,5.624,5.6066,5.6008,5.6008,5.6008,5.6008,5.6008,5.6008,5.6008,5.6008,5.6008,5.6008,5.6008,5.6008,5.6008,5.6008,5.595,5.5814,5.5741,5.5776,5.5737,5.5505,5.5393,5.5718,5.6008,5.6008,5.6008,5.5814,5.5621,5.5084,5.4426,5.4233,5.4194,5.4078,5.3923,5.3749,5.3556,5.3618,5.4233,5.4179,5.3792,5.3536,5.3285,5.3382,5.3424,5.3811,5.4542,5.4948,5.5202,5.555,5.5871,5.5802,5.5721,5.5705,5.5689,5.5689,5.5689,5.5689,5.5689,5.5689,5.5785,5.5862,5.6324,5.6555,5.6189,4.918,4.9707,5.0527,5.1074,5.1367,5.1387,5.1387,5.1387,5.1387,5.1387,5.1387,5.1426,5.168,5.2402,5.3418,5.4199,5.498,5.6074,5.6484,5.6621,5.6621,5.6621,5.6621,5.6601,5.6582,5.6506,5.6353,5.6217,5.6024,5.6008,5.6008,5.6008,5.6008,5.6008,5.6008,5.6008,5.6008,5.6008,5.6008,5.6008,5.6008,5.6008,5.6008,5.6008,5.6104,5.6414,5.6336,5.6259,5.6646,5.6994,5.6801,5.6317,5.6162,5.6008,5.6008,5.6008,5.6008,5.6008,5.6008,5.6008,5.6008,5.6008,5.6008,5.6008,5.6008,5.6008,5.6008,5.5892,5.5857,5.5872,5.5892,5.5737,5.5718,5.5911,5.5988,5.6008,5.6008,5.593,5.5814,5.5601,5.5103,5.4832,5.4774,5.4639,5.4581,5.5002,5.4677,5.4523,5.5045,5.518,5.4871,5.4639,5.4349,5.4155,5.4175,5.4639,5.5277,5.5582,5.5698,5.5796,5.5895,5.5782,5.5689,5.5805,5.5805,5.5689,5.5689,5.5939,5.5766,5.5689,5.5824,5.5958,5.6555,5.719,5.7055,4.8672,4.9004,4.9844,5.0664,5.1348,5.1387,5.1387,5.1387,5.1387,5.1387,5.1387,5.1387,5.1445,5.2129,5.2988,5.3672,5.4531,5.5664,5.623,5.6601,5.6621,5.6621,5.6621,5.6601,5.6562,5.6454,5.6299,5.6155,5.5997,5.6008,5.6008,5.6008,5.6008,5.6008,5.6008,5.6008,5.6008,5.6008,5.6008,5.6008,5.6008,5.6008,5.6008,5.6008,5.6027,5.6104,5.622,5.622,5.6607,5.6897,5.7149,5.6704,5.6356,5.6143,5.6008,5.6008,5.6008,5.6008,5.6008,5.6008,5.6008,5.6008,5.6008,5.6008,5.6008,5.6008,5.6008,5.5988,5.595,5.595,5.5969,5.5969,5.5969,5.5969,5.5988,5.6008,5.6008,5.6008,5.5969,5.593,5.5698,5.5408,5.5296,5.5161,5.5374,5.5834,5.6008,5.6008,5.593,5.5737,5.5485,5.5427,5.5311,5.5157,5.5006,5.5219,5.5756,5.5814,5.5864,5.5907,5.59,5.5782,5.581,5.6035,5.5997,5.6112,5.6305,5.6588,5.6299,5.6035,5.6497,5.6901,5.719,5.7728,5.7978,4.7617,4.8984,4.9844,5.0644,5.1308,5.1387,5.1387,5.1387,5.1387,5.1387,5.1387,5.1465,5.1719,5.2422,5.2676,5.3379,5.4512,5.541,5.6055,5.6523,5.6387,5.6504,5.6582,5.6504,5.6465,5.636,5.6217,5.6056,5.6008,5.6008,5.6008,5.6008,5.6008,5.6008,5.6008,5.6008,5.6008,5.6008,5.6008,5.6008,5.6008,5.6008,5.6008,5.6008,5.6008,5.6902,5.7327,5.6631,5.7172,5.7443,5.7168,5.6801,5.651,5.6278,5.6066,5.6008,5.6008,5.6008,5.6008,5.6008,5.6008,5.6008,5.6008,5.6008,5.6008,5.6008,5.6008,5.6008,5.5988,5.5988,5.5988,5.5988,5.5988,5.5988,5.6008,5.6008,5.6008,5.6008,5.5988,5.5969,5.5911,5.5776,5.5756,5.5679,5.5698,5.6008,5.6008,5.6008,5.6008,5.6008,5.6008,5.6008,5.6008,5.5988,5.5756,5.5621,5.5911,5.5969,5.599,5.5951,5.5885,5.5776,5.5878,5.6272,5.6689,5.694,5.7132,5.7261,5.7165,5.7049,5.7607,5.8011,5.8165,5.8357,5.8665]}]]